GFSNW_2pvu_pres_000.txt.gz
Presure
249 165 253 238 263 241 224 249 247 242 215 217 209 210 204 207 210 209 199 202 200 198 197 204 197 206 203 205 211 204 218 213 208 203 205 200 197 191 195 206 203 200 200 199
227 153 226 237 241 215 245 239 219 222 206 213 212 207 200 207 206 206 203 201 198 201 199 209 209 202 207 215 216 204 206 200 200 204 205 208 206 199 198 195 191 193 194 197
226 244 244 240 248 218 246 225 233 207 210 218 211 202 206 201 201 202 194 196 198 198 207 203 198 212 213 209 194 191 196 200 197 195 204 197 190 189 195 191 196 197 193 195
229 192 254 243 233 230 240 238 212 207 214 211 203 202 201 201 204 194 191 192 196 201 198 197 158 192 194 201 201 189 188 189 187 189 197 191 193 196 196 196 191 197 196 194
234 263 252 246 224 247 229 236 205 215 217 208 200 198 195 198 207 201 193 193 197 198 196 192 195 192 192 194 191 191 191 190 191 191 185 186 188 193 194 194 189 194 189 195
252 252 245 233 224 243 226 210 205 218 210 207 201 197 197 191 197 199 197 194 198 199 195 190 190 197 196 195 192 189 189 190 191 193 196 194 194 192 193 187 187 194 202 188
240 248 236 228 238 237 223 204 217 206 215 182 198 197 194 188 195 199 139 200 196 192 195 194 189 190 194 194 194 191 189 193 193 188 190 183 185 189 194 194 198 198 197 196
254 240 230 223 251 224 218 206 212 201 209 182 198 195 197 187 195 209 205 197 194 197 197 195 196 192 188 187 194 192 189 193 194 195 193 185 186 198 199 194 191 202 205 197
243 231 230 220 244 218 222 211 203 205 206 197 195 194 202 190 188 208 207 200 199 199 197 198 197 192 191 192 192 191 190 189 191 191 192 189 193 194 191 201 186 198 199 191
235 230 225 246 215 221 219 211 196 205 206 199 191 193 198 190 191 193 187 207 208 203 198 197 197 195 197 201 200 196 196 197 194 193 195 193 195 189 196 199 197 187 193 198
227 228 219 249 229 218 217 208 198 204 197 200 197 198 188 198 195 188 199 190 190 202 206 206 194 194 199 198 200 201 203 199 195 196 196 192 194 191 190 198 140 160 197 195
226 226 218 246 227 220 205 214 204 186 194 201 178 194 193 194 195 193 190 189 185 198 186 202 211 198 193 196 192 204 206 209 209 201 180 198 202 193 191 193 194 193 193 194
225 222 218 243 228 227 197 218 194 202 203 200 199 180 187 195 194 194 195 193 191 198 199 186 195 199 191 189 184 198 211 222 196 196 197 190 109 192 193 198 191 189 190 197
220 223 216 221 233 224 198 213 208 216 198 191 191 196 189 186 191 197 190 189 190 191 190 193 201 197 196 192 195 195 199 195 158 85 165 187 189 196 194 188 189 199 205 208
224 219 213 194 213 222 204 187 214 204 211 208 202 200 199 185 193 193 193 190 191 189 192 198 195 195 195 192 190 185 102 176 192 189 189 195 196 191 190 201 208 202 196 213
220 214 219 239 233 222 217 204 204 195 202 208 204 202 199 203 196 177 181 182 185 192 189 94 198 196 195 198 193 183 191 196 194 196 196 191 193 199 199 197 208 215 212 213
211 218 225 235 230 220 220 213 202 206 199 206 207 198 192 191 193 196 196 200 202 199 198 198 198 198 192 194 180 198 200 197 200 207 199 205 211 215 209 208 220 215 212 206
217 206 238 251 219 233 222 216 210 210 203 201 207 204 204 205 197 192 188 206 200 201 198 203 199 199 200 179 183 189 198 199 205 211 216 221 221 222 225 213 209 193 200 202
216 210 211 217 204 236 230 223 220 207 206 195 209 202 200 203 202 204 204 202 203 204 207 212 199 192 196 201 211 203 207 213 226 223 215 212 213 216 197 195 200 202 205 211
217 216 212 207 245 241 241 239 223 218 216 226 224 205 200 205 210 210 216 219 214 195 194 198 200 196 200 210 217 219 207 206 202 201 199 197 202 205 207 207 208 215 215 214
215 216 214 213 212 212 217 235 232 231 235 238 217 216 225 229 211 210 218 216 224 223 218 218 216 219 209 202 205 207 208 209 209 210 210 207 214 219 219 215 218 226 229 228
218 216 207 209 213 210 211 209 202 200 216 228 222 221 215 213 214 220 220 216 219 220 208 205 201 202 206 208 210 208 204 213 221 220 219 217 217 218 228 232 229 240 241 244
219 215 219 216 214 209 210 213 210 206 201 203 200 202 210 212 212 207 208 212 212 212 213 213 212 210 214 220 220 220 219 215 214 225 227 228 239 243 239 245 248 243 252 261
204 222 224 220 221 211 216 213 213 213 213 211 212 211 211 211 211 209 206 205 216 214 215 217 221 224 217 210 215 224 227 226 228 226 236 243 244 252 260 262 269 265 233 271
237 235 230 223 221 221 222 222 220 218 212 210 209 209 213 215 216 216 215 217 217 213 209 209 218 222 227 229 226 229 238 244 249 248 253 258 260 257 247 240 243 236 237 241
228 222 214 226 231 234 232 230 229 227 223 218 218 220 219 219 220 224 226 229 231 231 235 229 234 238 239 242 250 255 253 258 253 254 261 254 241 236 235 240 246 277 285 277
229 234 238 233 235 240 238 238 231 228 231 231 235 234 230 230 226 225 228 228 224 232 233 241 246 252 255 251 255 240 256 235 240 234 233 237 246 295 298 285 285 291 291 279

GFSNW_2pvu_pres_003.txt.gz
Presure
240 238 168 249 230 239 172 194 177 239 252 201 160 204 211 205 220 217 219 213 212 209 208 210 207 203 132 201 206 208 200 226 218 212 205 204 201 198 194 192 206 200 194 183
249 237 173 226 227 233 177 186 211 262 246 233 210 209 206 205 211 221 210 211 209 208 206 206 201 205 201 195 203 212 197 207 204 197 202 203 206 209 209 202 194 194 195 193
185 187 261 176 192 248 229 208 244 261 237 232 217 213 201 223 195 208 209 206 199 207 199 207 206 202 200 201 209 208 201 198 201 197 195 200 205 202 200 201 198 193 193 191
230 240 150 229 159 262 204 247 234 244 239 221 216 211 205 200 199 211 207 203 204 199 201 207 196 200 212 201 205 191 191 191 189 189 187 188 195 195 186 186 192 196 194 192
265 188 216 183 192 248 273 242 232 237 239 218 215 209 209 212 204 207 205 202 200 198 203 196 197 199 197 196 199 201 191 194 188 195 192 194 194 197 197 198 197 192 188 193
237 198 263 192 237 227 252 229 236 233 215 219 208 209 208 204 208 204 204 197 196 196 198 199 195 193 196 194 197 199 197 189 194 195 195 192 190 194 188 188 182 186 197 199
283 272 199 216 260 245 237 227 230 229 227 209 210 211 204 203 200 208 205 196 193 197 198 201 196 191 193 195 198 195 195 196 195 190 191 187 189 193 193 191 186 194 197 189
270 220 190 226 254 241 226 220 232 229 215 213 217 207 206 201 196 195 201 199 199 200 191 199 196 192 194 192 189 190 193 191 193 191 189 185 184 189 189 191 193 202 190 190
251 247 253 254 251 237 234 221 231 223 209 220 214 206 201 197 198 195 195 194 200 201 135 194 198 196 194 193 195 194 193 192 193 191 190 191 196 193 193 191 193 188 195 199
239 247 247 262 245 224 228 216 228 219 205 220 212 206 203 201 197 196 188 164 208 203 197 197 198 196 197 196 197 197 197 200 201 201 199 196 197 197 197 202 207 191 113 190
255 253 265 241 235 215 225 222 227 214 211 213 217 207 187 199 196 199 192 190 211 208 203 202 204 200 195 196 199 197 196 196 198 202 200 207 209 206 207 190 194 194 193 185
248 245 247 246 226 215 229 221 219 213 212 208 218 210 200 195 195 191 197 192 194 191 207 197 190 204 203 205 207 209 207 204 198 186 184 193 208 197 196 194 190 182 189 196
232 244 243 231 218 218 231 219 217 212 205 204 209 212 201 199 198 190 194 199 195 193 188 188 187 185 192 187 188 183 204 203 209 184 196 204 111 193 183 195 196 195 189 190
239 249 238 230 214 238 227 212 217 214 211 201 206 201 204 202 200 201 196 194 194 197 195 198 195 193 189 182 191 195 77 78 136 190 187 190 187 188 192 192 196 197 196 197
255 230 225 228 213 240 225 219 215 211 214 194 201 179 199 203 200 188 179 188 194 192 198 195 192 190 188 189 190 181 188 195 196 199 192 197 197 193 192 196 194 197 206 217
246 227 224 224 213 240 223 218 215 196 200 211 199 200 202 202 196 198 199 195 190 191 193 190 179 186 107 187 194 194 191 200 206 201 198 190 189 196 193 202 203 207 201 203
242 226 225 219 213 242 228 219 217 212 195 211 206 196 196 202 196 200 200 199 199 199 200 198 199 201 201 188 203 199 196 202 199 208 209 194 204 201 204 211 209 203 203 204
238 225 219 215 209 226 242 222 217 217 212 186 213 213 212 210 204 207 207 201 197 198 198 194 191 195 192 190 200 200 196 207 199 193 200 201 205 215 216 204 181 210 206 204
232 223 217 216 212 240 194 235 224 218 217 209 203 204 201 193 193 200 207 208 208 207 205 206 206 201 199 199 200 202 192 196 208 214 214 218 227 209 208 207 210 205 213 220
230 219 215 220 212 238 249 232 229 223 216 213 209 209 208 206 207 205 206 207 211 210 206 206 202 203 199 208 213 208 209 219 223 219 220 202 202 202 207 212 220 214 215 224
225 220 214 214 218 238 254 246 228 231 223 220 213 210 212 210 211 216 217 213 213 217 216 211 213 205 213 216 216 221 228 217 213 200 207 211 211 214 221 216 216 226 225 235
218 220 216 218 213 218 222 249 244 228 222 227 222 217 220 223 223 192 184 226 235 208 221 221 219 212 222 232 229 218 210 213 211 204 211 221 219 213 218 226 231 237 249 254
220 226 221 218 218 219 208 204 208 246 242 236 231 231 232 231 232 229 233 232 232 232 229 223 217 213 209 209 211 204 201 213 223 219 212 216 224 233 233 243 251 246 238 228
227 220 212 210 216 217 215 213 210 210 209 210 212 211 211 211 209 207 207 208 209 204 207 213 214 213 214 214 218 220 213 210 214 228 227 234 237 246 248 241 253 254 243 243
236 230 226 222 218 220 218 218 218 214 213 213 212 212 214 216 216 215 216 218 218 218 219 220 216 211 210 211 218 227 235 232 230 234 243 243 252 235 244 257 249 239 241 252
236 232 237 235 230 226 222 218 217 218 219 220 221 220 221 222 221 222 221 223 222 223 228 231 235 238 241 242 242 239 238 244 253 255 252 239 241 257 250 244 270 266 292 291
242 237 233 193 194 237 233 229 222 217 220 221 224 225 226 230 231 231 231 231 227 223 225 231 233 237 235 245 249 248 249 255 258 254 258 251 249 248 258 298 314 327 333 333

GFSNW_2pvu_pres_006.txt.gz
Presure
204 268 160 175 186 174 247 202 218 248 173 261 275 242 225 250 210 214 220 222 227 217 216 212 212 208 129 170 124 127 215 233 233 229 220 214 204 198 205 198 194 195 199 196
276 151 203 231 282 290 270 177 159 218 181 237 226 134 246 219 214 206 219 221 217 214 210 211 209 212 207 210 207 199 201 231 220 203 201 202 202 198 198 197 196 200 194 188
226 271 282 159 280 268 193 166 205 225 184 204 223 238 233 218 214 204 197 209 217 208 203 211 207 206 208 200 210 217 215 204 203 200 199 195 196 204 207 201 198 193 192 195
183 208 252 208 258 166 250 187 200 195 177 208 229 230 216 200 213 218 205 216 206 212 206 205 208 209 204 197 207 203 201 200 196 197 196 196 196 193 196 196 193 194 190 189
290 180 266 165 254 244 248 259 231 186 230 244 221 235 199 206 215 229 213 211 205 206 206 199 207 199 194 213 204 206 190 195 194 193 192 191 189 193 188 194 194 195 193 198
283 281 183 243 235 188 185 257 187 254 238 175 233 219 203 211 207 220 199 210 198 206 202 209 203 195 207 200 193 206 201 197 194 194 194 195 194 196 196 192 189 188 191 191
324 256 222 222 192 193 180 184 226 183 217 233 232 223 215 212 205 209 199 213 200 205 197 206 201 197 200 202 197 194 200 205 199 195 193 191 192 190 195 192 190 191 189 193
304 203 283 282 221 166 119 191 234 218 183 230 234 215 221 210 204 210 197 208 203 199 198 198 198 198 197 195 194 194 196 195 193 194 194 188 191 192 193 191 194 197 195 194
308 247 271 265 193 265 198 177 251 240 245 221 230 209 216 208 200 204 206 203 204 200 193 191 194 199 200 197 193 192 194 195 191 190 188 190 193 195 196 197 199 199 202 207
298 272 208 205 267 230 148 191 246 238 235 231 217 212 216 209 201 200 205 203 205 201 193 193 183 196 197 196 199 197 195 194 193 194 195 197 199 199 198 197 195 157 207 206
286 270 239 242 212 234 215 218 241 235 233 226 215 220 210 209 204 200 205 197 193 198 194 197 199 199 195 196 198 198 198 199 197 152 196 198 201 191 167 185 187 200 198 189
194 259 229 221 247 196 234 244 235 229 227 214 222 213 205 210 211 202 202 196 197 191 190 202 201 202 200 199 203 202 202 206 206 207 193 92 208 93 206 202 187 187 183 187
259 243 255 250 235 253 242 237 225 226 229 224 221 204 213 211 210 200 197 195 196 199 193 190 204 196 199 208 189 185 184 193 81 200 185 194 197 196 191 186 197 197 194 190
256 255 237 247 243 243 240 230 225 220 228 217 217 201 216 212 210 203 191 197 197 194 194 194 190 192 192 192 194 197 193 192 195 145 192 192 191 110 201 204 208 190 193 194
248 236 252 229 259 243 224 230 216 215 223 221 215 210 212 213 210 209 196 200 195 196 191 190 198 198 192 176 196 193 183 194 195 193 194 204 205 200 203 199 195 201 191 191
234 242 245 253 244 229 222 213 218 214 215 223 215 200 211 203 211 213 193 200 200 200 197 198 194 192 191 193 193 179 178 137 201 201 192 201 198 202 195 207 193 188 195 211
239 232 254 233 233 224 215 215 214 222 214 219 213 213 210 202 199 205 210 196 200 199 199 197 197 197 182 180 195 198 200 198 108 187 207 209 200 198 201 202 208 205 217 218
239 235 220 234 234 220 211 212 219 225 218 213 215 208 210 205 200 189 197 206 203 204 201 195 199 200 199 197 196 198 194 199 206 202 206 204 204 207 204 210 219 218 222 215
234 250 242 232 228 219 211 230 227 225 219 206 212 214 204 199 203 207 204 197 195 201 205 201 201 202 204 200 205 207 208 208 209 209 209 205 212 218 214 226 238 224 215 205
257 257 227 229 216 226 211 210 238 224 220 216 210 212 210 205 187 183 214 213 211 213 213 211 212 208 208 203 209 209 209 210 212 212 217 219 217 224 173 225 218 205 214 221
269 251 228 227 218 221 216 210 219 240 223 217 209 213 209 210 209 207 199 200 206 206 205 204 206 187 207 201 210 199 200 211 221 226 214 209 219 222 211 213 218 220 213 226
272 251 237 218 220 220 215 205 211 227 226 222 219 218 216 213 214 216 214 213 213 212 209 213 211 211 185 195 206 214 222 226 232 230 228 215 213 216 219 220 212 226 234 240
266 245 234 229 218 216 217 208 208 215 232 216 225 226 226 223 222 225 224 218 218 219 221 220 214 219 220 223 229 234 216 213 209 213 217 218 220 216 213 230 236 238 237 246
251 225 235 233 224 212 218 216 211 208 211 243 248 244 235 229 220 218 219 220 225 220 224 228 231 234 241 221 208 213 218 218 206 216 219 213 227 233 234 237 238 248 246 227
250 241 241 238 226 216 217 212 215 213 212 231 236 242 248 245 241 241 242 244 246 231 233 213 212 214 218 217 216 207 212 219 212 233 234 237 238 237 248 254 249 251 256 260
244 244 238 226 227 224 221 219 218 219 218 219 219 216 215 215 216 214 216 217 216 217 219 219 219 219 220 221 217 223 207 237 236 238 239 241 252 249 248 248 260 251 249 261
225 229 239 235 235 232 225 221 219 217 216 217 220 222 223 224 224 222 222 220 220 225 220 223 217 214 227 233 233 228 236 245 243 247 256 253 249 258 259 251 253 275 313 348

GFSNW_2pvu_pres_009.txt.gz
Presure
226 249 159 244 197 178 243 174 200 210 174 176 165 180 193 187 248 261 212 207 217 205 233 225 230 223 221 218 217 207 150 210 215 125 156 212 241 226 214 212 205 202 203 201
240 199 220 246 179 245 175 238 239 179 165 179 230 242 197 197 281 238 218 206 212 219 227 223 217 216 215 210 210 206 126 207 215 244 246 232 217 210 204 198 203 201 200 195
275 223 263 146 186 238 239 246 233 176 241 187 219 219 194 245 259 227 218 212 224 216 215 209 213 209 209 205 211 201 231 238 247 239 212 208 202 199 197 201 198 205 209 203
157 162 180 201 198 160 256 236 178 242 183 239 220 186 279 183 120 225 182 209 208 222 212 206 206 209 205 210 205 208 244 197 233 206 205 196 198 199 197 198 205 202 201 196
220 283 255 296 281 159 280 180 175 165 258 230 240 177 189 253 242 225 211 222 210 198 212 208 206 213 202 206 206 199 221 212 204 203 200 195 195 197 198 197 189 188 188 195
347 260 272 196 296 230 168 241 234 259 250 228 258 210 176 239 231 222 215 214 206 203 211 208 208 208 207 207 205 205 202 209 198 199 200 198 196 196 191 195 196 193 192 193
310 256 252 276 306 178 204 213 249 256 270 194 192 197 219 235 222 221 213 215 207 202 206 206 207 199 208 208 196 215 210 211 209 205 200 191 195 192 193 196 193 189 189 189
234 311 193 279 195 181 97 173 266 200 252 247 217 240 241 231 222 220 207 221 206 208 200 200 205 199 206 198 198 208 195 194 196 196 199 200 196 197 196 191 190 190 194 197
145 279 281 266 162 234 178 244 149 162 241 225 225 219 241 230 219 208 210 217 207 192 205 199 203 194 207 196 196 199 192 189 188 192 192 190 189 192 190 195 194 196 200 200
312 254 277 268 214 285 142 175 179 193 240 196 224 242 235 233 219 208 208 208 206 195 210 198 195 199 195 201 202 197 196 194 191 192 192 194 192 193 192 193 198 197 181 195
292 273 254 266 290 234 260 202 202 170 190 186 240 198 230 231 212 208 201 204 199 195 210 202 198 194 193 195 197 196 196 195 196 197 196 194 126 195 197 202 192 194 200 196
279 255 274 285 242 252 201 257 232 175 178 199 243 238 234 226 215 217 208 193 209 197 209 201 199 201 194 194 195 197 195 92 195 185 201 199 201 202 187 190 185 195 188 182
280 268 274 275 243 206 191 260 236 201 188 209 240 235 227 228 215 206 200 206 203 198 193 207 198 198 196 187 195 197 197 193 199 200 188 186 194 194 191 191 192 182 208 189
278 281 271 258 252 181 246 246 237 244 210 240 232 213 225 224 212 214 194 202 202 197 201 195 199 196 195 194 195 204 202 192 201 189 193 199 193 196 193 188 198 192 190 193
270 271 273 262 251 242 252 191 240 236 213 231 231 227 225 216 216 214 194 203 203 195 197 195 196 196 197 198 197 199 195 179 194 195 196 197 199 179 192 198 190 191 194 198
266 262 246 251 261 205 249 225 221 216 233 228 228 226 224 215 215 210 207 202 208 202 199 190 191 194 191 195 194 197 198 197 173 192 91 182 183 202 194 186 191 199 203 206
265 255 216 249 239 234 230 232 188 219 227 228 222 224 218 219 214 205 208 212 208 207 204 197 193 199 199 195 195 192 189 189 192 186 198 201 200 198 202 205 205 209 208 202
250 213 221 212 225 234 222 235 232 204 234 219 224 222 220 216 218 205 202 210 216 208 207 159 201 197 198 198 198 198 194 192 197 201 201 204 201 214 206 203 205 206 208 214
236 237 242 238 236 222 220 242 236 228 233 223 220 223 219 214 214 207 185 214 206 198 209 212 211 208 205 205 202 200 199 205 206 200 201 212 208 201 209 207 203 211 216 228
237 220 223 230 234 218 236 247 235 230 227 222 213 209 210 218 218 213 209 214 200 200 196 196 197 196 191 197 197 201 203 198 207 210 208 196 207 202 202 210 214 222 236 224
224 242 231 233 218 234 249 241 231 219 223 222 216 214 213 200 210 216 216 210 204 203 200 199 193 198 201 205 204 212 215 212 205 202 206 213 197 208 216 220 233 222 206 219
230 240 234 242 255 241 240 229 222 219 230 210 214 211 216 220 215 208 209 214 216 213 205 203 203 203 203 211 212 210 211 211 212 211 217 217 218 216 224 219 216 221 215 200
231 247 242 240 248 233 235 236 223 216 212 210 234 232 220 219 221 220 217 215 216 217 213 213 215 212 218 219 219 218 215 209 217 218 216 222 228 243 220 217 215 197 222 226
238 238 249 263 251 241 228 227 227 224 210 209 211 231 240 225 226 223 222 223 224 224 222 220 222 220 217 214 214 216 218 222 219 225 233 239 212 216 215 193 216 228 219 239
244 236 250 272 257 235 232 229 220 220 222 214 212 211 215 218 229 229 223 221 230 228 221 224 226 227 224 222 224 227 229 240 235 207 208 217 208 209 225 227 217 237 241 249
261 248 257 266 264 241 229 227 224 224 224 221 217 215 213 209 210 208 204 240 245 248 250 249 247 246 245 247 224 214 216 200 219 216 213 213 226 224 231 240 245 247 252 262
271 194 272 266 262 248 243 236 232 225 222 218 219 219 218 218 216 214 217 215 216 216 215 215 216 219 220 220 221 221 218 200 208 225 227 234 246 239 250 242 262 261 258 250

GFSNW_2pvu_pres_012.txt.gz
Presure
239 232 233 208 170 206 191 197 132 176 205 192 191 204 205 182 194 232 184 219 256 281 195 213 206 198 201 222 216 213 210 214 219 225 220 168 219 223 217 216 231 228 219 212
245 241 220 236 208 140 201 221 193 205 211 197 204 188 199 196 191 197 192 245 246 214 198 211 199 235 230 235 227 226 218 227 223 217 207 214 205 214 215 231 223 216 214 202
248 235 125 233 155 199 180 187 213 221 212 193 193 192 186 218 167 184 189 214 242 239 208 210 214 226 222 220 220 218 218 216 216 203 210 211 228 222 229 219 212 201 203 198
152 270 243 198 223 180 212 213 178 147 204 195 216 206 218 217 168 230 193 251 283 238 210 207 215 221 211 212 213 210 206 207 200 211 222 248 237 225 216 209 201 200 197 206
319 315 262 122 161 213 135 150 173 205 233 197 185 201 170 180 208 230 198 262 260 233 206 208 217 214 208 204 206 203 211 207 207 242 247 196 217 206 208 204 200 197 207 195
294 311 316 275 258 144 244 258 247 214 215 238 240 233 176 185 242 235 254 266 194 191 212 207 215 207 205 202 205 214 204 203 205 213 233 213 201 210 200 197 204 194 195 196
539 386 311 139 152 267 214 159 200 256 240 249 241 212 232 243 234 192 269 267 240 171 214 208 202 208 206 201 208 203 198 203 201 205 217 203 201 197 198 195 196 192 188 192
555 391 163 279 179 247 188 278 161 258 252 246 171 176 265 244 232 198 198 256 234 217 211 208 204 203 208 205 200 205 203 204 196 208 202 201 201 199 201 199 200 189 193 191
535 263 363 320 189 314 317 141 170 161 159 193 244 186 259 257 232 192 191 242 231 211 204 208 203 202 201 205 202 202 205 199 205 207 193 193 192 194 194 193 194 193 194 190
419 380 348 324 191 275 312 178 277 276 263 180 221 244 248 200 233 236 249 229 227 213 199 204 205 201 198 199 202 195 204 193 193 196 195 193 190 191 191 170 196 196 195 196
361 355 345 348 241 209 223 274 150 207 260 190 184 252 212 187 198 240 241 227 223 213 205 212 198 206 195 196 200 193 201 198 198 194 125 124 195 196 195 197 196 197 197 199
358 340 333 263 233 271 254 274 161 173 235 221 213 246 243 194 253 196 229 231 221 215 206 212 202 194 204 199 198 127 139 95 184 196 198 195 85 193 195 194 194 195 194 197
338 317 199 271 187 255 262 177 184 168 161 247 247 243 234 224 242 228 235 219 229 211 203 210 208 193 203 205 198 197 182 192 194 190 199 198 194 191 197 195 191 189 193 191
290 291 281 258 264 270 250 218 170 151 105 242 200 215 186 230 242 190 227 223 220 215 208 206 202 201 197 204 201 199 201 199 195 192 199 199 205 191 190 192 192 191 191 188
276 283 272 254 252 249 262 216 235 211 240 235 242 173 176 242 235 236 225 224 223 212 205 206 192 205 196 201 200 204 202 197 197 196 196 201 201 192 192 196 190 184 176 192
238 270 255 278 266 258 235 190 256 240 256 213 215 189 185 234 232 235 227 229 223 214 209 202 198 206 201 197 203 199 195 194 191 194 197 195 197 198 183 193 193 196 197 196
259 262 243 261 254 258 230 236 185 188 205 217 203 197 192 207 230 233 227 224 224 214 210 202 201 205 202 199 197 194 191 194 195 200 202 198 200 201 190 191 197 201 201 196
254 248 268 252 240 244 231 236 216 247 237 228 199 196 219 221 231 233 227 220 225 215 211 206 155 204 205 205 199 198 197 194 192 193 199 192 199 199 192 202 200 203 196 211
260 262 261 259 243 243 229 236 200 198 237 247 188 226 219 233 224 228 225 222 220 217 212 209 210 204 204 204 185 206 207 209 207 204 205 208 195 198 202 179 193 211 196 199
266 258 249 250 244 248 234 238 234 231 201 217 237 191 221 231 228 223 224 223 219 219 216 195 196 200 202 213 210 203 206 206 195 195 197 200 202 200 191 212 209 190 209 211
256 239 246 247 221 199 235 204 210 224 230 228 206 229 201 222 224 225 221 224 223 219 217 214 202 189 198 210 205 200 200 200 204 203 200 194 197 213 209 198 215 209 209 217
236 243 235 238 226 238 230 229 224 223 232 223 231 234 216 222 223 219 218 224 226 219 213 214 208 201 200 208 210 207 206 204 204 210 214 213 200 220 209 214 221 219 221 223
237 234 237 238 228 219 218 229 228 227 212 214 241 239 224 227 222 219 220 215 214 213 214 215 213 209 213 215 217 217 216 215 214 217 219 205 214 218 215 224 223 226 231 244
234 230 238 239 237 233 230 229 230 234 219 242 238 234 230 223 228 219 222 223 221 220 219 217 211 212 212 213 215 218 219 217 214 218 219 217 223 227 233 201 211 244 231 219
240 244 225 219 241 228 232 238 250 222 234 245 240 230 229 224 221 222 220 219 220 221 216 218 220 222 222 223 222 221 223 223 228 232 235 239 244 249 211 218 204 223 228 227
237 241 247 240 237 245 237 229 237 246 238 233 241 233 227 226 226 224 223 218 218 220 228 239 240 239 237 234 230 224 237 244 249 252 236 232 218 202 217 228 228 212 239 240
241 241 241 243 240 231 237 254 256 246 243 234 233 235 237 238 231 227 224 219 218 217 214 213 213 213 212 213 215 217 217 220 222 223 198 214 226 229 229 236 241 240 246 247

GFSNW_2pvu_pres_015.txt.gz
Presure
231 262 212 211 218 201 206 208 197 210 199 219 195 157 186 188 189 152 200 193 163 208 227 245 171 197 212 209 215 206 209 206 203 214 209 212 212 210 210 210 209 216 220 221
248 217 264 228 208 212 220 196 163 124 213 199 188 197 196 151 204 141 209 197 166 223 208 250 268 197 218 207 217 232 225 220 214 207 215 126 156 217 226 224 219 219 215 238
197 221 262 211 195 226 210 187 217 209 201 189 194 202 196 168 200 180 218 208 201 178 208 191 264 206 213 217 225 228 231 234 224 225 227 225 221 219 215 209 205 213 239 216
283 256 217 267 233 188 147 141 161 208 216 178 130 198 203 204 193 192 207 201 184 189 242 230 206 261 214 211 226 220 217 217 213 213 212 208 199 209 207 210 226 236 222 199
367 295 261 276 241 232 135 227 117 187 212 207 206 208 208 205 213 224 211 199 187 183 249 243 266 258 206 210 221 213 214 208 208 205 207 202 208 208 239 233 243 218 199 197
601 350 314 260 247 185 193 209 221 201 199 208 206 190 218 217 211 226 205 200 184 178 253 168 111 247 211 212 213 210 203 205 204 206 203 206 205 246 250 239 213 200 193 193
597 491 349 318 251 279 266 217 202 203 208 159 225 219 185 215 199 196 201 208 194 173 110 221 211 248 209 212 207 225 204 197 204 208 195 200 206 233 228 206 199 196 196 198
601 596 350 298 297 194 154 220 223 233 238 213 229 197 216 202 206 194 208 220 195 243 241 197 262 243 212 209 209 203 207 197 205 198 199 204 198 238 206 204 196 196 198 198
504 566 402 318 309 150 239 272 239 142 220 218 197 222 197 226 198 197 210 198 245 245 260 188 248 240 216 214 204 200 203 199 197 203 204 205 199 210 197 193 192 191 193 195
579 469 413 362 298 302 183 269 154 159 158 207 220 211 201 193 205 241 223 244 258 198 223 182 239 238 213 207 207 201 198 202 201 201 204 199 192 134 200 172 193 190 194 195
177 513 322 355 356 304 139 302 280 270 156 175 247 237 239 245 251 231 229 231 207 253 248 190 236 231 213 203 211 201 200 196 202 194 202 201 191 194 196 198 198 196 195 195
498 172 374 188 353 238 167 292 278 242 274 236 261 265 261 266 261 246 252 248 249 243 243 185 234 232 208 202 210 207 198 198 186 188 161 191 192 197 196 197 197 199 199 193
201 310 172 349 347 160 171 170 279 282 284 250 271 281 248 267 262 249 187 247 252 244 249 240 226 228 213 200 213 200 205 202 179 200 197 193 190 190 191 191 195 198 200 197
476 240 347 353 292 273 256 287 247 222 233 182 190 246 264 176 233 234 248 243 228 197 222 237 221 225 216 199 209 208 195 202 204 151 178 197 195 197 197 159 196 195 195 196
382 355 325 300 272 236 242 239 163 220 225 178 220 218 226 245 203 225 241 236 192 195 199 221 224 229 216 207 153 209 210 197 201 202 201 199 197 196 196 193 191 184 192 191
348 308 282 279 247 247 235 165 214 225 160 158 206 173 175 238 228 232 231 229 231 252 234 229 220 215 228 212 207 191 196 207 199 195 198 203 199 196 193 191 194 198 199 200
295 289 274 270 274 261 252 187 231 163 240 208 188 240 236 226 229 173 213 221 193 237 205 228 219 216 221 217 208 203 206 199 204 203 198 194 192 191 192 192 192 193 198 192
255 250 228 218 254 231 231 226 216 232 243 193 191 203 209 230 199 227 216 189 231 238 236 233 183 222 223 218 207 206 204 202 202 203 203 201 200 199 199 202 204 207 207 198
257 255 220 218 225 215 230 226 220 215 178 190 193 194 233 234 234 230 222 189 187 224 233 238 231 226 222 217 212 212 213 207 201 202 203 204 208 207 207 197 191 203 201 202
273 255 237 212 266 270 211 239 239 252 245 178 171 175 225 222 207 212 187 201 197 215 237 237 230 225 219 220 219 213 212 210 205 206 205 209 214 217 215 197 200 203 204 200
269 258 280 251 258 250 268 238 252 235 232 245 242 234 219 205 218 237 214 204 205 215 236 231 232 225 219 220 218 214 213 213 210 202 201 193 193 210 208 205 204 212 214 213
234 265 263 254 242 244 230 242 258 217 224 225 234 237 210 228 224 220 228 235 235 209 236 230 223 219 220 221 219 217 218 217 215 215 211 204 204 206 210 213 214 211 200 222
260 250 249 250 226 236 230 233 233 244 248 224 241 224 224 239 235 226 230 231 236 211 223 231 223 217 218 223 225 225 222 219 218 218 221 222 221 219 214 204 219 227 231 239
254 246 268 248 238 269 235 231 229 229 241 232 231 234 234 227 226 219 230 240 235 220 225 229 224 222 221 222 222 225 223 218 215 218 221 222 223 224 225 227 238 244 222 225
236 240 239 248 235 239 246 243 229 222 226 224 211 227 227 222 223 218 221 231 238 234 220 226 229 225 223 224 225 223 221 219 219 220 221 224 234 243 241 226 218 225 220 217
253 246 243 246 230 235 227 232 236 235 224 228 225 219 219 229 240 229 223 226 247 239 233 231 229 228 228 225 221 213 217 229 235 235 232 227 220 219 225 228 203 221 229 220
234 238 233 232 230 231 231 231 234 232 225 226 233 234 228 231 236 228 230 240 251 240 233 227 225 224 224 224 223 220 216 220 220 219 217 226 227 200 224 231 228 217 235 238

GFSNW_2pvu_pres_018.txt.gz
Presure
251 276 243 228 240 228 231 226 190 210 201 219 210 176 198 179 196 211 192 207 173 200 188 214 212 121 232 225 274 207 226 217 206 206 211 209 210 211 211 203 210 212 212 209
282 262 264 242 233 233 214 226 219 197 213 212 209 178 192 155 188 166 189 201 184 185 179 204 167 177 201 208 283 206 214 204 243 225 220 218 207 207 208 214 216 124 148 229
294 270 274 248 246 239 221 214 225 193 237 226 223 191 203 201 211 215 208 187 193 143 205 196 176 181 201 231 272 215 217 236 240 235 244 228 228 222 237 191 121 124 217 205
156 295 262 281 244 253 222 231 228 148 129 169 211 209 196 205 222 175 192 214 199 150 198 215 171 183 197 190 276 247 207 231 233 226 224 216 216 214 209 200 207 208 220 220
345 269 287 271 271 236 260 238 243 232 130 126 202 208 160 205 205 190 193 188 202 218 217 197 178 201 188 223 278 245 212 231 219 217 214 209 206 208 209 208 210 217 216 243
399 326 290 131 253 269 215 225 240 223 220 221 215 133 144 145 180 211 190 203 171 199 199 215 183 225 178 212 281 244 218 220 220 219 209 203 209 217 205 211 226 227 255 228
375 408 115 237 157 292 263 198 230 131 141 194 119 139 197 210 210 194 202 204 208 204 203 210 182 177 176 171 271 238 217 210 220 215 211 207 215 196 207 206 204 254 226 199
361 391 407 414 321 290 163 268 197 150 240 227 222 202 225 207 222 218 203 198 208 208 195 201 196 111 177 168 269 237 223 205 219 222 207 205 213 205 206 204 207 218 204 202
357 368 409 422 335 206 244 284 255 205 245 145 222 211 215 212 189 190 200 197 211 213 216 214 205 177 187 241 262 235 227 217 206 216 211 201 199 206 210 168 203 208 199 198
392 389 399 415 460 298 292 279 272 268 229 232 187 189 215 213 202 208 223 217 216 214 201 201 223 175 187 274 257 237 220 219 214 205 205 202 206 200 160 204 196 198 201 197
337 389 396 413 582 395 350 273 263 261 255 236 236 213 237 216 232 219 230 207 212 214 196 196 201 176 265 260 256 234 225 213 206 200 153 201 202 163 197 202 203 195 196 197
387 400 396 548 522 368 336 315 237 159 253 246 202 200 206 191 205 213 215 206 203 207 200 196 206 244 237 255 250 237 226 215 205 206 208 97 189 200 199 198 196 194 194 192
395 399 433 525 400 358 318 320 289 273 251 247 249 220 219 214 184 194 206 209 222 212 224 202 225 248 252 252 207 186 228 215 206 205 210 205 198 199 193 198 199 197 196 194
345 214 348 367 361 346 297 302 298 167 215 194 174 160 211 208 200 202 196 196 205 199 197 247 247 251 251 244 210 226 228 217 206 201 210 162 197 202 200 198 196 195 199 199
457 259 526 149 317 347 284 287 291 145 241 263 248 242 238 212 255 248 224 262 258 249 252 248 249 252 244 241 233 220 225 222 213 201 105 208 204 196 195 197 198 194 198 198
498 511 222 356 355 310 278 270 270 159 292 269 209 250 232 250 250 268 254 172 236 232 232 244 245 246 230 185 187 231 222 224 220 100 206 202 203 209 206 196 191 193 198 195
231 362 357 337 299 255 266 270 258 252 252 243 225 216 227 231 238 263 233 236 217 180 244 234 239 245 216 196 223 226 228 180 228 213 208 204 203 205 204 201 202 203 202 202
351 186 252 239 258 252 249 264 236 232 249 223 217 197 170 189 240 219 226 219 214 219 221 214 230 235 213 218 223 225 226 222 220 223 220 210 206 204 202 202 201 202 201 203
251 252 241 252 223 230 231 222 224 223 198 236 188 188 215 214 162 169 174 223 219 171 214 179 178 222 197 232 236 229 230 228 223 224 225 221 217 213 211 210 211 210 205 207
256 239 262 242 225 228 243 242 223 213 213 239 215 210 176 174 179 239 233 228 179 226 232 230 228 210 182 229 221 233 235 232 228 229 228 224 222 221 216 213 213 215 211 208
261 256 230 213 231 246 241 244 222 229 235 213 240 233 223 172 179 182 194 224 228 226 225 225 221 221 189 191 210 228 233 234 227 227 225 223 224 223 223 220 216 216 215 216
248 233 242 253 239 239 244 230 233 243 226 225 214 237 228 196 179 176 182 208 230 232 229 230 225 197 193 202 208 219 233 229 226 225 225 224 224 224 224 222 219 219 219 220
225 237 247 226 225 221 230 231 240 238 255 238 243 224 230 227 228 209 231 227 223 188 205 213 226 217 222 226 229 201 229 232 233 230 227 224 224 227 226 225 225 225 220 216
235 249 264 251 219 207 254 235 248 230 208 214 215 218 237 226 229 230 230 229 228 221 223 225 225 223 230 235 233 234 216 221 225 234 234 229 227 225 224 225 224 226 229 226
242 239 253 263 227 237 251 252 218 240 233 236 230 241 243 238 238 240 237 238 236 227 222 223 222 226 228 228 232 236 235 235 229 230 232 228 230 233 232 227 226 228 241 232
251 243 261 234 244 242 267 260 244 225 223 232 241 232 217 221 220 222 235 234 226 225 223 229 235 238 221 214 214 220 240 242 240 236 235 233 233 231 232 233 232 227 223 228
256 254 266 241 261 235 225 226 228 227 230 229 233 239 227 227 231 228 242 228 230 231 224 221 227 232 241 234 225 232 244 247 242 238 235 233 233 234 233 233 236 242 241 239

GFSNW_2pvu_pres_021.txt.gz
Presure
315 289 278 265 260 256 254 257 248 240 236 206 225 125 164 186 162 199 185 188 171 192 183 182 190 205 200 209 189 210 205 272 221 216 212 209 222 211 210 219 213 212 213 211
345 301 277 270 268 269 257 252 248 219 243 238 214 206 199 197 206 117 193 189 191 179 192 167 186 157 178 201 212 214 212 275 249 210 204 219 216 215 211 208 211 211 216 219
456 351 301 276 268 254 258 261 253 206 178 236 217 191 188 194 200 202 208 190 185 183 175 204 197 218 191 201 200 199 197 276 252 218 199 240 237 226 214 214 212 223 229 236
432 342 321 281 268 256 275 256 252 170 201 242 225 218 211 206 201 204 205 204 191 200 205 206 214 210 156 200 165 182 198 278 254 230 208 232 233 231 226 225 227 217 202 214
429 389 331 298 277 265 270 279 258 257 224 226 217 179 210 206 165 210 204 200 203 213 209 205 182 195 218 197 218 177 191 200 257 236 212 227 222 217 221 211 210 207 215 208
396 438 507 290 283 267 277 272 270 254 140 165 208 213 216 192 204 209 216 211 218 161 204 188 198 202 197 207 216 178 193 186 260 238 230 222 218 218 215 213 213 215 211 225
372 397 334 330 289 288 280 268 272 252 244 235 197 207 206 188 210 221 196 202 209 216 216 215 198 203 199 213 206 140 184 201 266 242 225 211 222 215 218 218 210 204 200 203
356 228 413 291 335 285 294 274 268 278 250 134 165 214 121 203 208 188 194 193 191 196 193 200 217 212 206 197 190 170 205 185 258 246 227 235 241 215 208 214 199 192 206 203
278 363 390 307 327 335 143 286 262 269 145 235 180 226 204 195 224 213 217 173 222 208 214 199 202 213 214 221 132 192 195 209 277 253 234 219 216 207 203 206 184 200 214 210
331 345 369 408 373 121 318 178 185 269 275 232 215 172 168 210 205 203 207 203 207 214 205 214 199 192 203 217 219 189 189 187 252 258 234 220 216 208 202 202 206 205 204 219
330 333 352 369 412 398 212 269 164 273 257 243 148 145 138 141 220 203 200 211 180 181 190 215 210 215 198 208 216 206 178 224 267 252 209 221 217 208 202 198 207 209 202 201
327 336 345 354 379 421 363 315 295 280 248 263 244 143 224 227 223 221 230 195 216 207 220 217 218 212 217 210 227 192 197 203 259 251 186 228 218 216 211 208 202 202 203 200
327 324 354 367 363 414 336 325 241 296 268 246 253 196 235 221 224 215 226 219 208 216 203 211 214 216 213 205 205 187 204 225 250 249 221 211 220 213 206 204 202 202 206 206
348 362 359 381 380 405 417 333 324 282 268 256 262 222 231 233 170 223 214 200 210 206 207 204 217 211 205 202 200 207 250 243 245 244 235 215 219 215 209 187 203 206 204 197
353 376 376 392 385 392 406 362 313 296 272 258 260 218 236 238 217 194 210 212 208 187 203 196 203 214 202 184 201 268 241 238 245 245 237 228 223 216 138 210 202 204 208 207
385 390 386 396 396 412 371 333 305 296 286 145 199 254 243 235 225 223 201 212 222 210 208 208 201 211 196 180 242 248 232 240 243 242 237 227 224 125 222 213 209 204 203 202
392 386 191 432 246 474 345 316 301 291 260 251 244 243 246 160 242 231 222 149 191 210 209 203 226 201 190 217 238 191 236 241 234 235 220 223 115 224 224 219 215 212 209 204
437 377 498 554 497 283 305 294 292 285 278 193 174 225 199 227 206 174 218 227 225 214 218 258 246 249 242 232 230 228 228 237 231 202 197 230 230 229 226 223 223 225 224 220
466 474 413 360 273 307 293 287 277 275 271 266 184 241 237 210 217 190 228 214 231 221 225 237 185 184 248 239 197 233 232 233 245 242 237 233 226 230 231 230 225 223 224 224
331 165 265 274 267 267 278 269 274 270 276 268 263 264 201 232 237 233 233 219 210 226 243 238 231 172 180 227 212 222 227 225 216 212 197 232 236 211 231 234 234 229 224 222
262 264 251 239 257 227 256 255 253 258 243 246 255 250 248 214 235 192 176 234 211 192 234 219 233 227 220 217 211 215 222 224 224 214 220 218 197 216 224 233 235 229 226 225
246 237 252 250 250 250 243 234 253 239 240 236 221 236 219 209 229 199 171 170 172 177 186 229 229 227 222 221 219 224 229 221 220 222 214 195 192 221 220 213 231 231 224 227
257 245 250 254 232 243 219 233 216 231 222 220 222 170 229 229 233 231 225 235 239 175 218 181 204 222 225 224 227 228 222 219 224 228 209 220 230 233 234 233 226 223 219 222
252 235 227 192 189 198 234 234 233 211 232 232 220 214 240 209 228 243 234 241 177 179 175 236 234 232 224 227 229 231 226 218 224 226 229 220 222 222 226 232 233 234 236 237
243 234 248 254 193 224 210 208 248 231 229 241 219 252 229 228 218 230 230 229 220 210 243 241 239 235 231 227 223 221 221 221 229 232 233 230 221 224 227 223 223 226 237 249
262 219 262 247 227 244 244 209 240 248 248 229 240 230 258 247 239 244 223 241 235 227 231 237 238 231 230 230 226 222 223 224 226 231 228 224 226 233 239 241 237 241 248 244
274 245 224 236 257 253 220 230 255 250 246 249 253 242 246 234 247 247 221 222 237 244 244 242 233 229 229 235 236 233 239 238 229 225 226 230 233 239 249 246 245 251 253 252

GFSNW_2pvu_pres_024.txt.gz
Presure
341 338 502 408 374 300 271 275 265 251 254 265 262 246 234 213 210 212 210 188 176 182 202 192 196 188 194 177 192 202 196 190 174 215 252 243 216 198 205 212 204 205 208 221
309 337 360 396 388 336 289 279 260 251 249 274 233 237 122 213 213 217 210 206 198 199 206 172 187 196 181 198 195 214 191 208 191 204 285 266 238 205 234 223 229 212 202 211
312 317 332 417 395 347 316 279 273 259 252 186 257 217 167 214 212 218 210 196 200 200 203 181 196 159 179 197 189 221 185 220 203 170 243 266 239 226 240 242 227 220 214 208
317 310 335 380 400 356 329 288 272 255 97 262 252 233 229 221 200 220 179 182 204 191 203 198 194 204 174 200 209 213 202 205 195 182 213 265 235 232 229 251 235 221 226 219
309 307 332 350 440 371 318 318 280 269 99 116 256 239 229 233 229 218 219 208 201 196 189 196 201 205 206 213 194 180 156 166 178 180 220 274 234 220 209 227 224 218 217 213
314 304 330 333 408 383 337 356 281 81 137 200 254 247 233 225 221 216 210 152 192 182 192 193 194 206 194 208 197 214 204 202 200 193 198 211 238 232 226 212 210 210 207 205
319 298 323 326 383 382 335 306 287 280 271 101 187 182 231 218 234 216 212 203 192 200 199 193 172 206 207 188 218 209 215 197 210 206 177 207 258 242 220 208 209 206 206 213
311 305 310 326 357 413 349 326 302 281 273 243 140 222 151 211 227 228 221 210 202 210 206 208 215 212 220 213 193 205 212 225 233 224 180 211 255 250 236 211 214 204 206 216
320 320 321 309 347 485 376 334 309 285 267 249 247 231 222 216 207 220 220 194 221 214 209 207 185 210 176 171 189 213 209 192 177 197 213 190 263 255 244 234 213 216 208 208
309 295 324 327 415 414 376 334 317 289 259 247 243 240 149 143 176 224 208 222 230 227 200 212 212 192 189 203 211 221 200 219 191 188 198 186 218 258 249 225 220 215 210 209
306 308 323 378 123 431 382 326 331 289 257 137 245 192 194 218 221 217 213 222 211 186 189 186 204 203 209 215 204 199 198 205 221 227 188 188 208 242 253 198 227 221 217 207
310 322 360 373 381 424 369 111 322 298 259 261 118 117 129 213 206 225 216 209 216 224 226 209 204 206 205 192 194 216 223 213 217 196 200 187 229 230 258 249 193 225 216 216
331 336 348 367 379 403 360 123 120 155 234 257 249 235 217 188 138 173 227 210 215 200 200 204 206 210 193 197 205 202 217 202 225 200 194 217 210 243 256 248 240 198 228 223
324 325 332 356 374 393 352 133 280 338 263 254 252 244 173 145 222 192 233 228 206 199 188 197 202 210 195 210 201 222 196 208 216 215 211 203 250 240 246 252 243 240 231 224
318 322 329 337 360 380 399 307 317 321 272 261 239 252 238 234 226 221 216 222 219 211 209 207 213 210 211 210 217 212 205 207 211 206 218 212 252 237 243 242 245 236 230 228
310 320 326 335 352 365 408 323 314 316 305 257 251 237 250 237 227 224 221 199 211 207 205 210 212 212 212 197 211 214 200 212 192 223 221 202 249 234 238 237 239 235 232 211
319 323 331 335 357 362 393 341 335 326 316 265 254 239 246 250 240 196 223 225 222 220 217 205 205 213 210 196 209 217 205 204 191 212 225 241 229 233 205 230 232 234 232 228
331 345 350 365 358 365 268 337 329 314 308 290 264 253 237 226 256 238 220 218 197 187 220 195 212 189 191 204 214 219 211 221 209 231 207 223 223 234 237 239 228 211 206 228
316 368 377 380 328 377 476 323 306 299 295 301 268 163 174 234 240 248 246 229 208 227 212 218 209 193 206 215 230 214 203 210 233 236 234 226 232 234 230 207 218 232 231 232
384 377 382 388 378 166 329 298 297 302 295 295 281 258 259 245 233 239 243 239 229 169 218 202 216 226 225 217 211 209 181 238 247 241 231 234 236 231 229 231 219 213 193 216
385 386 452 425 364 323 305 297 296 287 285 281 247 260 183 244 214 227 234 232 214 225 220 220 225 227 222 250 239 232 217 225 223 242 249 230 221 220 221 226 230 223 221 227
271 346 341 315 300 293 291 285 276 273 276 277 278 242 270 217 230 239 250 232 229 218 193 230 222 170 176 225 214 223 244 237 232 237 232 225 218 220 221 224 230 224 223 221
265 267 268 263 278 250 304 273 270 275 266 263 253 246 249 228 219 224 217 191 238 231 222 199 216 214 185 209 180 223 226 235 232 237 230 218 224 224 216 212 224 225 222 229
255 252 262 202 225 224 235 248 250 212 254 233 261 250 246 239 241 209 229 230 236 216 175 176 175 176 183 184 182 178 238 239 242 230 234 231 227 223 226 233 229 224 222 220
228 264 229 242 248 234 253 207 231 235 220 241 244 264 242 232 227 246 238 229 244 235 210 227 231 223 225 195 179 190 220 233 228 226 224 232 234 233 232 228 227 226 232 238
261 218 258 201 209 212 216 252 207 209 256 261 228 246 253 239 237 233 239 234 247 223 220 247 235 241 248 229 228 235 222 224 235 244 242 245 244 243 229 233 238 235 230 231
226 267 252 256 217 211 196 243 252 225 257 254 243 237 249 247 236 205 208 224 226 232 230 212 236 235 231 235 242 247 238 235 234 238 243 243 239 235 228 227 226 239 243 239

GFSNW_2pvu_pres_027.txt.gz
Presure
342 321 314 340 321 313 344 340 388 317 251 269 281 273 254 260 259 239 216 237 224 226 209 211 211 177 213 216 218 215 169 166 195 213 199 185 224 290 231 210 195 217 201 220
403 308 371 373 330 311 318 358 387 370 347 298 297 272 269 256 225 230 237 237 228 213 218 201 212 204 202 195 210 187 176 182 206 184 209 192 208 273 258 220 204 217 217 208
384 378 370 354 337 313 308 334 389 355 355 318 257 287 265 259 233 118 234 235 224 215 214 208 214 218 186 198 197 203 184 169 205 187 179 195 189 238 261 242 240 234 229 227
368 367 357 348 344 318 314 328 417 351 359 353 339 289 226 238 233 235 246 241 222 218 214 207 204 180 205 184 200 187 183 212 205 197 208 191 186 182 265 244 240 234 275 249
357 364 364 361 343 312 308 318 443 375 102 108 199 89 259 236 234 234 237 237 122 216 207 208 169 200 206 170 205 167 207 203 212 191 208 169 173 191 180 257 238 222 220 222
373 378 348 353 339 313 317 324 447 376 280 123 333 180 224 227 231 217 249 226 223 183 209 208 190 191 204 195 206 208 196 200 203 161 193 208 197 192 224 251 240 220 204 208
446 378 348 348 330 315 309 314 454 401 251 209 333 277 178 233 235 243 232 222 222 215 211 210 205 203 198 193 180 197 194 184 209 222 193 205 224 193 209 223 246 224 215 215
385 349 344 342 329 308 304 319 455 337 335 322 130 236 141 229 243 244 230 221 221 210 213 210 206 185 210 205 204 181 206 173 214 222 176 196 216 212 204 210 249 240 225 212
368 344 346 339 316 303 304 334 483 365 83 87 196 205 130 166 244 96 229 226 227 214 217 206 211 210 208 194 201 189 204 193 202 208 202 186 177 227 196 190 188 264 244 243
352 345 336 323 316 303 309 342 548 379 312 312 283 238 243 238 231 231 193 230 195 218 224 212 210 207 208 205 193 204 211 182 193 225 201 209 219 221 191 186 225 230 254 232
353 336 325 316 294 307 315 344 467 386 325 319 256 237 233 196 234 169 226 229 227 233 234 216 207 216 202 181 199 197 201 196 227 210 211 213 219 193 209 199 191 242 260 248
350 327 320 298 299 312 323 339 445 421 315 322 249 234 233 241 239 230 229 236 241 241 226 212 218 185 195 176 207 196 196 179 223 210 205 207 218 210 229 191 193 179 243 254
328 319 296 308 305 310 320 336 499 342 316 325 253 235 232 148 182 143 221 232 242 218 231 228 226 217 222 216 211 211 204 216 185 204 193 215 199 211 217 212 191 222 249 243
318 312 300 301 318 328 336 396 485 338 322 126 250 235 236 237 233 216 227 226 236 236 219 228 225 233 228 213 215 205 217 216 184 198 195 224 225 208 214 213 202 210 232 238
302 299 295 314 350 370 399 423 238 133 308 297 219 241 246 207 206 205 127 192 228 223 227 191 202 208 216 220 222 204 196 192 204 207 230 215 205 202 210 200 227 211 223 240
326 326 342 353 362 365 396 119 118 334 303 308 256 247 239 238 229 237 230 229 225 222 217 220 221 211 205 196 189 192 213 210 217 216 208 212 215 218 206 197 232 246 238 225
314 313 327 343 354 369 394 557 336 325 320 303 257 249 243 243 180 240 160 231 222 220 210 209 200 198 214 204 195 206 206 210 205 213 215 208 206 219 221 190 219 210 229 229
317 317 323 340 346 377 388 376 321 317 317 295 244 245 246 238 238 237 243 234 223 198 208 219 219 226 222 215 199 202 205 210 206 208 218 212 213 221 225 226 216 212 237 238
311 320 321 336 346 366 366 322 308 287 311 291 249 246 245 241 239 238 235 236 222 219 218 219 225 214 209 206 208 207 212 193 209 216 203 219 214 224 228 223 233 243 239 229
311 327 332 344 347 359 377 310 295 298 313 299 251 247 250 247 206 245 235 239 202 224 221 216 213 216 215 208 199 209 216 214 209 197 264 223 207 234 217 248 237 235 237 234
346 356 360 371 347 331 396 311 299 307 319 314 249 252 250 188 197 234 247 239 235 187 226 217 215 209 198 189 189 205 219 222 222 221 200 210 230 233 243 236 250 228 228 238
361 374 378 252 365 254 395 315 303 310 308 304 252 244 244 205 238 229 208 244 247 236 227 219 199 180 201 191 214 206 197 220 215 231 207 244 253 219 230 230 242 248 235 229
364 378 315 406 377 363 324 319 316 320 312 297 288 258 251 246 152 209 169 221 215 224 236 237 234 234 234 231 228 221 221 171 213 239 255 228 193 178 215 230 236 227 239 234
316 312 314 321 339 334 309 310 282 291 282 284 280 272 257 251 242 234 235 233 229 228 226 222 229 235 231 231 224 231 228 224 238 179 178 178 179 181 208 238 228 228 231 227
285 236 320 233 261 274 287 282 280 270 272 268 267 265 255 254 221 246 243 246 251 218 223 226 218 222 214 214 226 226 197 205 178 202 234 219 224 225 233 228 227 233 239 243
242 272 209 256 251 205 258 231 234 279 268 272 267 255 249 249 239 232 267 212 236 246 209 239 238 243 239 226 240 230 222 234 234 227 232 234 236 231 220 250 258 228 251 233
266 233 187 234 217 204 245 220 240 232 215 208 247 200 241 212 234 228 249 249 240 234 230 223 219 223 226 229 239 240 241 231 236 224 223 230 237 242 237 208 218 221 220 228

GFSNW_2pvu_pres_030.txt.gz
Presure
294 300 307 284 309 287 301 317 324 317 355 331 350 267 285 153 243 231 215 219 225 198 198 212 171 197 198 205 200 200 215 220 213 181 181 182 189 208 205 195 262 241 212 210
292 297 347 339 286 307 301 323 311 304 314 343 413 330 303 295 277 246 239 223 226 236 225 205 200 163 235 193 215 200 148 202 192 176 177 173 194 222 205 189 265 242 237 204
373 369 366 324 315 334 320 384 345 236 307 322 280 92 370 266 297 284 276 256 257 207 212 200 218 237 227 216 216 205 223 216 207 185 184 209 196 197 207 193 199 255 233 229
411 421 433 439 409 358 364 354 371 299 317 146 297 355 360 360 344 155 139 249 243 266 237 220 235 233 207 216 196 177 223 199 184 193 207 190 187 213 192 207 180 209 251 230
384 389 435 355 354 365 345 339 384 347 304 316 309 331 370 354 341 139 241 252 253 248 251 244 224 221 235 212 209 209 204 218 202 175 205 179 198 216 215 166 184 194 261 233
370 391 374 351 368 349 358 354 368 373 149 126 206 330 199 144 339 297 274 244 244 239 237 240 220 217 216 211 201 201 211 199 211 196 192 189 209 194 173 211 221 201 192 245
382 379 391 362 350 257 342 352 338 188 209 301 233 410 249 131 218 234 199 264 241 234 242 234 228 226 218 208 210 191 202 202 211 202 196 193 207 188 200 209 223 203 203 251
381 407 361 360 339 336 339 340 360 343 316 95 292 387 165 245 134 257 265 237 240 243 237 234 228 219 216 209 210 214 208 199 178 199 189 201 177 216 185 206 226 204 197 193
395 386 361 355 99 337 338 347 341 315 302 296 339 456 326 189 124 279 262 238 243 236 246 235 234 226 215 207 212 215 181 200 185 203 190 190 213 184 212 197 176 189 188 189
411 367 337 341 338 333 346 347 316 304 232 326 251 332 319 294 276 247 255 241 241 229 235 244 228 195 217 208 203 210 191 189 203 169 175 174 208 202 189 201 211 229 192 192
390 352 365 340 343 342 352 325 297 159 317 81 427 339 306 227 268 246 247 242 239 244 244 253 224 216 195 193 209 202 204 200 208 178 204 209 192 213 200 216 210 209 219 191
367 364 342 339 338 350 325 301 298 308 319 384 457 318 305 271 273 226 119 248 233 242 245 240 226 210 219 210 208 208 200 202 205 189 195 196 202 198 189 219 207 209 210 199
391 365 355 341 340 311 302 299 303 310 344 502 348 305 300 274 259 245 252 244 243 244 241 229 226 225 221 211 179 211 201 202 211 203 198 193 204 200 199 208 197 222 207 220
344 338 333 327 308 307 305 295 309 331 403 487 324 304 283 265 249 248 175 237 242 239 244 229 232 230 215 209 212 202 187 198 208 205 218 181 209 181 180 197 204 221 195 211
335 325 315 309 305 298 295 305 312 354 538 384 304 298 269 254 248 242 160 148 207 240 236 234 228 232 223 214 218 211 206 209 185 204 224 197 221 191 190 198 217 192 218 211
312 309 297 292 297 299 309 311 326 353 485 306 288 287 262 251 244 215 243 248 241 244 245 245 237 229 229 226 225 217 190 221 226 215 222 226 199 192 187 209 204 205 211 210
305 300 305 301 293 255 301 298 321 352 434 306 294 267 226 248 243 240 246 230 136 158 229 225 230 234 230 226 222 222 223 229 225 225 218 208 203 197 199 207 216 211 213 211
294 293 299 299 309 320 326 329 338 444 336 305 275 145 255 249 229 229 239 236 235 234 235 236 242 228 223 223 218 209 187 209 204 203 202 203 209 213 211 211 204 207 214 221
325 335 334 343 360 365 318 394 447 121 314 299 273 261 250 246 226 224 253 237 237 235 238 223 233 228 201 206 211 223 223 211 203 222 213 208 201 205 207 204 204 219 216 222
312 316 332 333 345 368 388 474 436 348 316 313 274 262 249 253 241 232 239 248 245 241 233 231 228 214 218 218 212 212 211 216 221 213 204 205 209 207 200 215 216 204 228 234
310 317 329 340 359 377 388 431 416 314 317 313 264 250 242 235 245 238 236 246 235 234 233 225 214 213 210 208 217 218 214 218 210 212 210 207 206 196 210 214 219 216 217 226
340 344 344 355 370 366 358 410 361 308 317 310 266 250 241 239 239 242 232 245 240 233 234 229 219 213 211 210 211 201 201 207 211 196 200 206 189 203 205 213 185 206 216 233
366 344 354 399 236 356 358 411 305 305 313 298 272 253 242 242 233 224 252 246 244 238 227 229 227 220 219 218 214 215 212 203 202 204 202 186 200 172 211 189 225 235 230 248
348 341 327 335 347 353 333 291 310 310 306 285 279 265 254 241 197 222 157 209 203 238 235 222 221 226 226 220 216 212 213 212 198 198 215 215 211 217 200 172 245 211 184 222
314 312 303 297 266 290 303 289 304 305 298 282 277 266 255 247 239 242 235 217 194 231 227 229 232 231 228 218 214 213 224 220 219 219 222 230 234 217 235 224 228 231 226 236
299 291 308 307 308 312 298 289 311 295 302 286 277 269 253 241 241 243 237 237 216 207 219 221 218 229 235 235 236 236 222 225 201 226 241 243 242 221 238 229 238 239 238 232
186 287 272 271 242 268 280 203 279 281 284 282 284 260 197 240 235 192 239 240 230 233 197 230 230 220 223 224 225 224 224 226 225 229 234 238 225 226 240 237 225 224 243 227

GFSNW_2pvu_pres_033.txt.gz
Presure
287 286 297 295 295 295 303 301 316 312 302 315 341 355 313 263 269 252 222 217 209 215 195 195 194 187 174 174 168 188 169 193 194 207 196 209 207 165 172 183 172 217 211 207
285 278 293 292 277 281 283 300 297 283 316 312 288 328 346 271 229 253 236 244 215 216 202 195 193 195 195 182 198 205 210 212 202 189 226 175 209 190 176 200 178 218 214 204
295 279 275 279 303 275 261 301 300 289 97 296 326 210 319 244 177 275 309 262 221 228 211 210 200 200 203 204 198 198 208 207 190 155 207 206 197 186 185 189 186 186 206 205
296 299 289 293 281 293 266 301 293 140 298 121 261 257 297 306 332 345 383 335 252 244 223 225 205 207 211 206 200 209 205 210 201 210 187 210 207 198 178 186 198 186 220 224
382 372 366 349 334 337 315 324 315 311 112 336 210 286 113 105 319 327 399 359 298 248 217 229 218 216 212 215 211 214 208 208 197 221 209 177 194 185 206 174 197 184 213 216
393 391 390 386 403 329 351 360 365 332 332 349 337 299 315 182 140 322 388 314 309 282 275 239 239 230 233 226 230 225 190 240 216 212 219 206 209 189 182 177 189 191 197 177
365 364 370 379 400 351 358 357 353 371 236 352 350 141 92 303 302 246 261 325 320 293 271 270 257 232 237 236 234 236 203 197 229 193 212 202 179 202 209 185 180 193 187 212
384 382 374 382 398 351 334 346 84 357 359 314 359 330 113 117 149 194 205 314 317 282 274 272 263 251 252 260 270 258 227 237 214 215 207 199 198 194 181 179 197 185 195 199
403 405 409 403 380 344 349 349 348 175 345 293 221 131 300 277 195 150 146 305 293 299 292 269 263 255 250 258 260 242 242 231 217 214 203 173 194 200 182 198 185 86 185 180
410 429 394 357 388 342 334 335 352 345 181 359 340 279 297 240 301 401 254 295 295 278 279 274 259 248 254 246 244 242 243 222 211 201 184 201 196 206 205 168 208 134 203 186
410 382 358 369 337 338 336 347 331 332 341 217 327 242 315 306 318 320 292 305 284 276 280 268 241 248 249 245 184 231 235 221 212 209 206 192 202 185 194 172 170 186 178 183
384 377 383 351 339 337 343 327 324 331 330 327 321 317 310 305 354 367 298 191 272 274 282 259 255 247 237 243 237 231 227 213 214 198 211 181 200 199 207 184 203 203 196 191
370 382 357 341 344 339 298 323 327 324 317 155 211 300 300 328 403 147 295 287 273 280 246 256 251 239 240 239 238 230 224 216 214 206 210 204 195 201 200 208 200 193 190 190
370 343 338 337 338 335 326 325 316 309 308 304 295 299 307 276 362 316 286 197 282 281 266 254 249 245 242 237 238 234 222 214 207 190 193 198 208 192 204 201 202 203 196 171
337 320 326 337 334 335 331 313 305 303 304 298 290 306 342 446 392 302 281 242 272 266 257 241 250 240 238 235 236 231 218 199 206 197 178 205 154 203 208 198 197 194 194 218
326 330 342 343 333 323 309 303 298 296 287 299 308 337 449 471 317 277 278 275 179 255 248 246 238 234 239 238 223 216 214 215 209 208 210 199 209 215 207 203 204 218 184 209
338 324 317 316 315 313 304 289 289 284 291 310 349 400 408 316 289 271 274 258 259 254 249 248 236 243 241 229 218 220 216 213 209 209 206 208 215 212 207 183 222 221 215 202
317 311 309 305 304 301 278 296 291 303 330 454 403 376 340 288 268 266 264 256 227 248 241 187 246 237 232 226 227 225 220 223 221 215 215 211 215 218 227 229 231 227 206 196
303 300 304 290 291 273 292 296 305 218 387 360 344 340 285 280 263 262 262 228 249 250 240 242 182 229 227 221 219 221 221 220 218 214 213 215 223 229 229 230 211 217 199 203
293 282 274 283 291 298 306 297 306 326 347 342 325 298 274 134 137 259 255 244 238 231 218 240 237 233 237 235 225 227 225 224 223 222 222 226 224 202 204 204 192 215 206 206
331 336 337 339 319 327 324 128 309 333 286 169 288 286 262 232 253 250 243 245 235 233 182 238 232 236 226 237 230 229 227 190 221 228 229 226 204 227 203 222 214 210 211 214
325 334 342 346 359 375 382 361 316 343 357 268 285 274 250 255 257 240 199 231 241 242 242 236 233 228 216 221 229 232 233 234 225 225 229 231 211 215 172 213 209 208 202 194
340 353 363 360 381 470 499 428 420 382 350 301 275 260 260 248 263 255 254 220 242 256 220 232 228 230 232 230 229 240 236 224 173 223 213 208 219 210 203 202 213 209 198 215
333 329 333 463 454 394 371 371 390 381 327 268 210 243 256 259 267 270 247 250 223 175 238 232 228 230 232 232 230 227 223 223 214 211 212 212 212 211 211 197 208 215 214 207
320 323 331 340 353 372 353 358 339 286 304 247 239 259 254 252 259 250 252 251 233 231 202 233 231 230 230 215 229 228 227 224 222 218 215 214 215 220 219 213 199 199 202 187
303 300 315 315 325 328 341 316 314 305 310 278 262 238 253 247 243 249 242 238 236 234 227 199 233 233 234 233 229 226 225 227 225 220 220 217 193 199 200 195 201 213 217 227
294 247 265 286 299 277 296 304 271 295 301 287 269 250 245 239 232 234 240 245 244 230 228 195 232 236 232 201 233 227 228 229 210 213 215 214 224 228 228 230 241 244 226 223

GFSNW_2pvu_pres_036.txt.gz
Presure
286 313 311 309 308 310 314 313 316 311 315 321 330 342 282 279 211 111 248 169 218 237 209 214 199 203 189 202 183 191 150 173 164 199 197 187 176 196 186 201 212 194 177 192
291 288 284 285 286 290 294 306 308 301 286 314 293 138 319 330 334 293 308 277 250 221 208 203 199 209 205 185 193 197 190 199 200 171 164 186 174 198 204 195 207 198 191 202
280 277 284 282 287 284 278 296 294 185 302 133 321 318 91 324 175 230 109 324 233 229 224 209 205 216 204 194 196 204 197 170 200 158 181 192 187 198 169 198 174 200 186 199
269 281 289 281 281 278 263 274 284 299 291 301 213 304 290 295 287 300 324 134 348 305 279 224 214 221 174 196 203 205 197 204 203 197 194 195 190 173 198 180 206 209 198 186
281 279 274 273 278 279 283 286 299 273 83 271 310 284 96 292 314 303 304 324 333 368 373 294 243 232 216 204 214 211 205 196 202 205 198 189 198 188 200 198 191 204 186 178
267 278 282 293 293 282 283 286 296 295 162 125 95 291 275 113 110 236 254 304 273 314 361 315 263 244 232 217 211 213 211 206 207 205 202 200 207 197 199 186 216 218 197 191
295 303 301 304 303 304 301 328 371 305 314 312 216 255 219 188 295 285 283 287 293 325 373 307 305 285 253 217 225 221 207 213 202 203 202 201 200 203 178 176 233 184 202 181
396 402 387 375 371 379 412 388 378 367 357 328 335 207 310 335 316 314 318 285 127 294 364 321 300 287 281 229 221 219 212 224 216 218 200 202 201 205 208 212 220 201 194 191
442 428 440 390 364 363 92 393 378 356 346 346 352 193 138 113 150 324 360 331 273 292 372 317 295 247 279 294 257 239 235 234 220 223 214 208 194 210 203 194 206 203 195 197
423 452 435 401 363 351 349 369 339 335 341 328 222 341 269 352 343 322 211 319 274 302 374 338 292 330 275 282 277 286 235 234 231 235 237 237 229 222 224 219 198 149 167 111
426 395 385 379 354 352 362 344 323 316 305 169 186 343 333 327 337 344 392 302 286 319 381 332 301 297 298 287 277 287 278 240 238 232 238 206 191 219 212 183 142 207 183 193
407 381 377 375 361 365 370 361 328 326 322 278 327 170 330 335 124 347 334 221 216 292 435 342 301 298 283 282 276 272 267 287 269 274 275 217 119 206 206 220 202 179 184 210
402 395 383 377 358 366 370 330 321 326 305 114 319 313 331 341 350 336 330 156 220 337 296 319 297 301 286 281 270 276 267 272 269 253 245 225 216 218 217 213 204 202 211 182
406 406 405 401 369 348 358 304 315 327 325 319 264 322 328 334 333 215 302 292 303 321 294 339 300 288 276 272 262 258 260 258 254 244 228 217 211 216 218 205 195 191 191 207
371 375 363 340 333 319 325 332 321 310 309 308 320 320 329 321 309 300 294 218 359 332 304 312 292 283 275 266 261 255 258 246 244 234 221 228 217 211 207 209 194 205 208 207
349 349 340 330 322 327 310 313 311 317 321 320 315 321 312 300 282 276 296 313 331 296 144 306 281 272 270 265 254 247 244 248 235 220 233 223 217 212 214 211 195 209 203 210
333 315 311 309 330 325 320 314 310 311 317 320 330 323 304 302 285 306 292 327 350 257 335 270 272 264 256 246 242 243 235 240 233 224 233 219 212 210 204 211 209 197 207 207
330 327 328 329 332 321 316 313 314 324 329 312 303 297 301 307 297 299 318 366 346 286 279 266 263 251 232 241 241 238 240 245 234 227 230 223 216 216 218 221 213 212 210 207
315 324 325 330 322 322 320 325 303 295 290 295 295 294 292 306 332 415 381 362 309 294 282 264 259 238 236 248 236 239 237 233 232 233 230 228 220 214 212 209 211 212 206 211
318 319 318 321 318 309 298 291 283 285 286 295 304 352 370 384 370 364 361 342 288 276 247 246 246 246 250 238 240 236 231 226 230 231 221 223 229 218 217 218 213 203 215 217
303 306 306 305 297 287 283 287 288 315 348 327 322 316 316 327 301 272 130 279 266 260 245 246 239 234 187 228 234 231 232 227 234 223 222 223 219 214 212 213 224 222 218 223
300 296 297 294 283 280 292 209 336 334 311 290 290 311 300 317 320 295 282 266 259 246 250 238 247 246 232 233 228 232 235 234 232 226 221 221 221 224 223 222 220 218 219 222
332 327 291 288 293 293 297 304 254 301 295 286 280 288 288 300 285 274 265 260 248 248 242 245 237 224 231 235 244 242 236 228 228 225 223 222 220 220 220 222 224 225 223 220
358 352 351 365 347 294 297 311 301 289 302 285 285 292 277 276 264 264 259 246 248 244 245 235 234 238 233 238 244 242 236 226 228 230 230 231 231 231 227 230 229 228 224 228
397 425 395 376 403 362 307 326 297 292 277 282 289 278 270 254 259 256 240 238 244 245 247 236 232 237 231 236 242 234 236 238 239 233 229 223 223 231 235 233 223 225 221 212
350 355 393 436 440 392 321 341 294 295 243 234 267 225 260 267 241 247 244 247 239 213 249 238 192 206 239 181 195 236 233 233 232 233 235 234 232 234 231 224 224 223 221 224
305 323 347 366 442 334 334 369 308 302 307 287 267 265 251 263 249 255 245 265 232 231 241 242 240 162 219 239 242 168 231 226 233 233 233 234 233 229 227 226 222 213 215 211

GFSNW_2pvu_pres_042.txt.gz
Presure
392 398 403 391 258 271 291 298 274 274 269 263 265 256 241 229 229 234 229 225 227 219 210 211 209 202 204 206 202 204 216 218 207 223 201 216 186 197 208 183 169 193 188 193
388 409 407 402 319 322 325 296 270 293 289 282 260 166 92 260 257 244 240 225 229 229 229 229 225 220 221 224 225 218 213 216 216 213 216 221 223 195 167 193 163 159 191 187
371 372 358 326 318 323 312 354 334 375 377 225 282 78 297 268 217 257 255 255 209 240 240 187 228 226 226 216 225 225 224 220 227 210 200 202 211 222 202 201 205 160 179 189
328 329 340 339 343 331 326 335 350 360 340 152 297 262 322 324 221 317 280 133 316 320 250 258 217 250 242 245 237 227 223 224 212 212 214 206 205 218 210 209 160 165 186 199
308 310 314 312 312 306 304 313 319 315 310 308 302 305 309 305 311 309 315 317 228 324 333 342 326 340 297 280 251 242 234 242 241 236 223 225 217 217 217 202 162 199 192 191
296 287 287 281 276 279 284 291 294 292 292 264 227 290 119 208 295 300 295 296 298 309 303 307 313 325 337 323 291 274 270 248 237 243 232 226 230 219 220 210 201 202 177 195
283 280 272 274 275 275 275 277 280 288 290 202 278 275 193 277 275 283 280 161 253 287 286 293 262 311 321 343 341 298 290 289 288 273 245 239 121 153 217 221 217 182 187 198
277 275 270 269 268 272 274 274 280 283 284 282 279 280 271 276 279 282 279 271 123 136 256 289 297 304 311 326 335 353 315 260 265 279 269 225 200 217 206 211 219 212 198 196
274 269 269 272 262 263 267 268 160 261 277 284 261 263 267 227 269 262 247 203 131 269 157 204 282 302 307 305 319 337 344 288 265 275 280 259 232 118 211 213 223 196 195 198
274 270 269 268 269 267 265 271 268 232 278 274 153 245 204 101 211 110 279 161 264 279 120 242 287 292 296 293 266 382 333 295 262 264 277 285 283 220 221 229 177 207 209 213
268 270 272 273 273 270 267 275 270 267 267 275 209 179 282 273 268 281 215 256 247 275 290 252 286 282 294 292 292 298 301 285 227 270 290 281 265 263 223 203 152 152 186 215
300 299 296 295 292 289 289 290 289 288 288 295 300 298 295 243 295 291 132 296 293 290 297 287 282 273 276 234 286 286 327 290 184 256 245 255 257 262 265 221 220 222 220 148
366 357 354 350 353 358 362 363 245 360 372 382 344 332 321 318 295 313 118 326 385 148 175 369 331 279 292 268 295 284 316 265 273 265 249 260 273 281 133 280 290 242 234 229
396 397 396 386 380 375 388 399 217 378 345 337 330 335 336 335 175 123 243 354 341 313 219 338 348 275 276 289 277 274 297 283 267 266 263 262 273 272 249 221 258 261 256 250
417 419 399 397 382 372 379 393 378 384 388 392 358 359 352 107 303 330 335 340 337 333 339 204 360 227 264 268 197 278 343 282 251 268 259 271 248 242 215 257 274 282 270 267
387 408 417 415 410 392 385 381 367 353 346 323 313 336 338 116 336 134 327 323 344 353 299 315 355 307 267 289 359 277 324 313 296 272 258 250 248 255 258 251 250 265 253 250
382 380 376 367 355 348 349 331 323 323 327 329 327 289 314 265 124 326 333 310 293 316 312 312 339 306 160 316 349 280 314 304 301 269 262 260 256 259 261 260 231 248 247 237
340 341 338 336 328 339 316 310 311 312 321 309 318 314 308 249 155 323 309 104 211 315 291 327 335 301 287 330 344 300 280 302 261 259 260 257 261 274 285 254 250 247 236 235
336 333 322 324 331 332 315 308 309 310 316 314 310 305 331 313 321 314 307 309 299 303 298 309 310 300 199 327 274 274 277 280 287 287 274 273 271 260 260 251 245 239 234 233
353 335 330 341 337 325 316 313 307 310 299 323 318 307 308 306 321 312 346 314 294 305 299 290 274 311 279 288 278 287 285 327 279 274 282 279 240 252 255 234 240 263 240 234
326 320 312 320 328 337 338 335 335 330 324 315 310 307 317 316 326 317 303 317 297 291 279 290 297 302 286 311 298 320 328 343 347 266 265 245 255 246 253 244 237 238 236 235
312 298 299 298 295 296 295 299 298 296 300 305 309 310 314 313 319 300 299 298 302 302 301 293 271 274 340 271 285 299 322 298 325 281 272 265 241 241 241 235 241 234 235 237
286 287 287 281 291 291 284 286 291 288 290 289 298 300 296 293 273 272 294 282 290 295 296 275 296 276 283 287 286 294 294 285 274 272 248 243 236 235 237 236 237 235 233 235
283 279 286 287 317 302 296 298 284 315 325 333 341 290 284 289 293 290 288 286 297 294 269 290 281 267 271 269 270 279 279 267 256 247 243 241 238 239 237 239 243 242 235 233
282 279 304 292 277 279 289 300 293 292 232 207 301 313 348 364 363 308 204 317 335 335 316 295 295 269 267 265 266 260 253 249 245 241 239 239 240 238 239 239 238 239 242 241
284 282 299 293 280 286 288 292 283 280 282 281 282 279 283 276 272 276 283 276 270 267 270 273 267 263 257 251 247 246 245 240 239 238 238 242 237 238 237 239 239 243 240 239
292 307 293 289 290 281 278 271 273 272 270 273 267 272 276 265 268 265 256 265 262 261 262 258 258 257 251 247 249 247 241 244 245 239 241 241 240 240 242 241 243 243 242 241

GFSNW_2pvu_pres_045.txt.gz
Presure
295 349 327 333 420 413 404 274 279 279 293 275 255 243 239 233 240 238 218 89 162 95 222 219 211 197 190 199 201 203 204 198 192 191 191 194 197 196 207 217 216 164 208 193
322 332 399 398 396 384 381 394 403 338 279 301 288 272 253 235 231 237 233 231 224 217 221 214 214 217 207 199 192 191 193 189 193 195 199 200 202 198 199 206 205 216 193 185
390 391 374 377 375 363 379 387 431 401 197 205 287 272 278 265 250 239 233 230 227 222 224 224 219 213 223 221 213 209 207 202 198 197 193 201 203 204 209 216 213 216 212 212
352 369 365 390 378 381 368 377 395 396 350 346 261 256 278 286 276 252 250 244 237 234 233 198 226 223 221 223 225 227 219 214 212 208 206 209 210 212 221 221 215 225 203 179
360 380 371 360 350 346 348 346 337 366 316 309 310 324 269 276 282 280 287 253 248 247 244 247 243 239 245 239 218 225 228 228 231 230 222 222 225 224 215 223 220 226 204 192
306 299 305 297 309 295 332 339 350 336 351 330 347 357 153 342 342 293 253 145 288 279 268 261 256 258 253 252 253 254 254 257 252 241 236 224 222 218 223 220 213 209 207 195
318 333 326 321 322 319 330 330 332 335 326 317 102 132 309 314 204 306 307 308 89 283 299 281 301 283 305 297 289 285 280 257 256 259 246 252 244 228 239 235 223 222 226 219
321 298 294 293 290 293 299 295 302 300 287 289 79 289 289 294 291 263 290 291 294 157 136 307 310 314 309 314 332 342 342 251 300 300 307 297 258 103 132 243 220 221 228 227
296 288 285 279 271 279 286 289 286 163 266 268 274 278 283 151 184 274 277 131 281 286 292 295 300 302 302 305 310 312 322 333 343 355 291 277 282 267 253 245 250 227 220 221
287 286 282 283 277 270 268 275 274 275 268 265 267 182 89 270 274 274 269 266 257 191 187 289 290 294 295 295 302 304 305 309 323 329 342 313 262 193 109 136 118 210 171 230
283 279 277 275 273 269 268 275 268 269 271 272 272 203 265 199 97 264 267 272 276 131 290 262 294 282 200 288 288 291 292 297 304 315 335 303 290 300 254 270 274 115 135 230
279 277 274 269 267 270 270 270 267 266 266 272 267 260 251 253 172 256 109 105 184 110 253 138 272 253 261 284 292 273 267 283 289 285 311 390 314 314 276 298 263 275 255 126
279 283 280 274 269 264 261 251 259 258 262 263 261 262 263 244 262 262 265 244 243 250 241 271 205 257 269 265 278 277 274 287 286 297 317 290 270 278 278 280 263 297 297 271
300 298 294 290 282 275 273 274 274 272 275 276 272 267 281 182 269 265 264 262 266 273 129 194 245 292 275 250 276 279 273 288 299 287 331 158 273 238 286 224 254 247 256 284
408 409 410 445 375 321 311 303 294 293 292 291 290 262 283 211 280 280 275 281 283 284 287 294 267 306 308 322 322 283 278 290 302 310 277 264 178 252 251 276 257 262 245 247
420 405 391 385 389 387 387 348 355 356 360 361 358 366 350 341 321 300 299 143 134 144 335 331 339 148 378 373 154 325 283 286 276 302 278 271 263 262 255 245 242 236 250 245
397 411 407 391 374 381 385 383 377 396 408 405 393 375 359 198 189 337 332 230 186 355 362 334 352 343 303 346 202 342 311 292 273 283 304 262 258 257 255 254 255 252 271 278
399 371 380 386 373 376 387 396 385 373 342 342 333 158 362 354 125 223 345 338 332 339 334 337 303 309 224 338 330 341 298 274 290 266 322 282 262 257 252 258 253 264 265 224
372 415 370 351 341 331 328 334 317 324 320 320 328 329 334 329 343 329 123 305 309 135 256 295 289 275 292 285 352 306 296 264 260 258 323 285 279 266 250 253 254 266 254 243
339 329 325 322 316 324 306 311 311 308 309 322 317 309 299 338 333 331 303 299 285 282 300 290 292 293 299 328 339 316 341 317 286 283 262 307 280 271 260 252 254 259 254 252
314 310 314 325 311 317 307 314 330 315 311 313 288 299 308 315 323 300 297 308 308 318 303 292 315 268 314 320 285 317 314 281 320 296 274 316 295 260 276 252 249 255 270 254
324 343 317 320 313 314 313 306 299 304 307 322 314 308 307 318 323 301 316 326 312 304 304 314 313 296 317 184 231 301 301 254 291 272 277 295 292 324 274 262 266 263 269 263
304 307 308 307 307 311 309 304 304 306 305 309 310 306 311 308 316 328 313 304 305 320 305 270 263 259 260 284 270 299 278 281 304 315 280 280 296 275 282 250 256 233 254 254
290 289 287 287 289 292 293 296 299 301 303 305 309 314 322 322 323 328 304 311 321 310 272 264 258 277 299 316 288 269 286 286 288 297 308 282 314 318 284 276 288 275 237 238
290 292 290 303 323 326 321 320 295 280 283 289 288 280 319 281 297 295 283 292 283 266 266 280 276 286 284 279 281 280 274 273 268 272 275 268 274 300 272 260 253 248 247 238
283 298 299 294 295 278 279 289 294 306 346 367 363 302 298 301 290 284 283 269 271 269 266 279 271 268 268 262 260 260 261 260 258 258 261 268 272 272 259 249 258 247 239 239
293 295 291 271 281 285 282 281 281 283 278 283 282 279 281 282 272 279 281 269 273 277 287 315 279 278 269 260 258 260 250 258 260 261 262 259 256 256 255 248 243 242 245 238

GFSNW_2pvu_pres_048.txt.gz
Presure
280 278 278 276 255 244 250 251 272 262 253 259 297 292 261 248 238 244 233 232 248 217 215 214 201 208 211 201 204 203 198 201 194 197 198 197 197 192 196 187 193 199 192 184
271 280 291 300 304 324 341 349 346 361 152 310 287 273 292 251 241 240 239 240 228 132 246 219 211 220 211 210 203 208 199 195 194 195 195 195 189 186 187 195 197 206 187 194
313 306 307 324 320 336 342 398 405 408 413 421 423 430 275 292 253 241 238 240 242 157 231 229 230 174 169 231 223 208 208 206 202 202 204 207 204 205 208 211 202 198 191 197
316 309 325 313 312 339 373 393 380 394 411 137 400 400 370 266 279 259 244 237 233 228 231 231 235 229 228 230 230 223 220 214 212 203 197 196 198 194 196 196 202 198 200 193
319 320 310 314 326 344 356 378 376 372 409 409 390 390 388 230 256 266 267 247 245 236 231 228 226 233 232 226 216 219 221 220 222 220 216 212 207 210 207 205 203 200 205 195
304 308 306 330 346 340 354 396 409 376 371 365 372 367 354 348 155 260 259 269 270 209 240 234 227 227 227 228 229 226 223 223 220 210 218 221 220 208 211 212 213 214 213 209
317 320 329 338 344 379 331 335 357 361 345 352 350 339 340 171 327 268 258 263 271 276 272 258 250 244 240 237 229 224 227 226 220 216 216 218 209 213 216 227 227 227 228 225
322 329 351 365 332 326 311 299 305 333 335 337 229 331 305 306 326 309 288 255 264 263 266 269 267 268 262 251 251 247 245 244 249 250 246 169 238 119 171 164 224 220 225 225
340 347 315 335 306 323 330 334 336 334 308 311 310 319 104 296 293 325 303 327 267 261 263 260 168 266 274 279 283 275 260 257 235 252 246 253 239 253 255 260 245 133 248 243
340 327 316 314 319 314 305 313 315 316 314 313 308 162 308 309 94 235 305 307 317 320 322 322 229 280 217 301 274 300 266 258 270 279 215 272 106 192 287 288 283 142 266 178
318 313 310 304 288 289 292 290 286 287 296 301 297 293 296 294 293 292 171 296 304 222 305 303 308 306 305 313 314 314 317 321 324 328 298 240 305 314 312 279 296 191 144 119
303 300 296 288 283 278 276 277 286 212 268 260 278 277 256 275 254 273 106 257 276 127 285 289 287 290 295 296 293 294 289 294 292 295 306 190 325 327 325 327 337 351 304 286
283 287 288 280 277 277 277 278 283 275 266 267 265 258 235 257 262 103 265 269 270 276 161 137 280 278 276 275 279 281 252 278 282 289 293 228 298 316 318 301 331 313 318 328
292 285 280 280 281 280 277 276 274 274 276 272 262 261 190 235 261 263 116 203 266 270 274 194 186 141 276 194 277 273 170 270 271 276 277 288 282 299 305 294 329 304 295 305
267 263 259 256 255 258 259 260 271 273 271 273 272 267 264 262 215 263 261 254 167 254 255 264 163 137 257 253 248 261 270 284 295 283 282 290 284 307 290 308 317 319 295 308
298 284 278 277 274 270 267 280 281 269 271 268 259 257 253 258 256 256 250 246 254 257 256 268 276 147 241 239 279 295 297 268 287 260 267 282 273 295 300 304 311 313 156 271
396 345 321 314 308 296 287 284 259 274 278 271 268 194 268 250 265 243 229 260 262 165 178 160 150 278 280 293 266 297 306 321 314 339 271 280 295 291 283 273 271 271 188 284
409 413 398 382 378 382 365 319 311 308 301 294 288 236 279 231 278 175 186 273 276 282 141 249 140 218 292 301 246 362 375 350 321 330 369 333 284 286 321 291 276 284 277 267
406 398 388 377 366 366 312 368 370 377 404 402 378 344 334 314 345 344 337 336 329 306 288 251 310 342 375 324 184 319 334 295 329 334 350 319 276 292 279 277 283 272 258 257
361 368 357 363 374 376 366 355 349 353 350 361 357 369 372 372 366 361 122 334 335 318 316 216 363 320 318 160 309 307 309 339 334 337 341 276 298 282 274 280 272 262 258 259
334 339 344 342 340 341 339 334 338 340 337 331 344 334 167 275 302 324 334 336 333 329 319 323 307 305 300 303 201 316 274 329 324 326 273 271 280 301 269 256 275 271 274 259
331 330 325 321 324 329 326 324 319 316 322 314 307 304 312 309 312 336 331 316 321 315 323 317 306 298 299 286 316 333 251 321 312 325 270 287 262 284 275 256 315 272 265 263
313 311 297 304 333 321 305 307 313 312 302 291 304 308 315 323 327 323 310 307 322 318 294 303 297 296 306 312 270 306 309 313 306 304 305 312 271 330 271 272 265 359 275 267
305 304 306 311 310 311 311 316 314 318 317 324 317 313 314 316 325 322 304 299 313 357 322 268 264 299 306 295 283 281 286 295 305 313 321 300 286 272 279 272 289 301 287 264
299 298 297 296 302 302 304 307 307 307 311 314 313 316 324 326 341 321 288 270 266 267 272 269 270 261 287 307 278 271 286 278 282 283 285 288 287 289 284 281 279 276 280 296
315 306 305 319 309 278 281 276 276 285 279 284 286 277 302 289 278 283 279 270 266 273 266 264 282 275 283 284 280 269 271 266 267 264 272 272 274 274 273 273 278 279 280 280
288 293 288 283 280 285 305 317 277 273 279 285 271 286 286 274 283 281 289 274 268 261 259 277 276 270 262 260 257 259 267 262 260 261 263 269 264 264 265 266 270 269 269 273

GFSNW_2pvu_pres_051.txt.gz
Presure
291 284 278 276 277 281 286 283 282 252 76 249 286 277 295 266 264 261 257 234 237 219 226 219 215 215 206 206 216 204 202 92 192 190 196 198 205 204 197 198 196 195 171 191
308 298 293 291 284 279 278 284 282 283 272 299 272 258 274 284 308 265 254 257 241 231 228 219 224 219 218 212 197 209 197 204 201 194 203 198 198 199 204 203 211 180 205 179
328 321 319 310 302 302 304 302 310 323 316 328 330 333 266 255 279 318 266 252 257 249 232 234 131 222 222 217 213 207 206 204 205 204 195 197 211 213 214 208 210 206 202 195
387 365 356 329 322 311 313 316 310 314 327 327 333 347 409 394 268 277 321 260 247 250 257 237 227 226 230 221 222 219 225 215 219 206 213 212 208 205 200 197 192 193 187 185
386 373 365 344 352 338 333 314 313 322 317 353 89 382 394 395 405 330 262 304 262 250 240 243 246 248 231 224 220 223 215 206 207 205 204 203 204 209 203 201 201 201 195 198
365 371 369 353 342 338 320 319 319 307 355 345 374 387 389 382 334 388 377 268 297 156 242 247 232 240 244 240 244 230 220 219 214 212 214 212 207 206 207 211 211 204 205 202
349 358 357 353 344 343 326 315 311 348 332 385 381 286 388 363 359 359 357 347 264 297 266 244 245 238 237 238 237 239 237 235 240 230 228 219 212 219 221 225 224 219 218 211
344 348 349 348 344 311 308 323 340 339 396 371 367 349 342 338 338 338 342 353 337 273 305 268 228 247 244 233 228 226 230 216 224 234 232 125 213 214 220 223 220 222 227 224
343 338 343 318 306 314 332 339 373 386 347 351 337 330 331 328 326 327 332 334 350 261 272 297 269 247 238 244 239 236 226 225 226 220 219 214 222 226 226 225 205 225 223 222
340 327 322 315 321 333 353 352 305 312 322 328 322 325 172 318 312 312 322 333 338 318 259 255 268 277 260 256 250 244 241 241 241 238 235 221 226 227 225 224 227 214 229 229
328 317 319 321 334 361 302 326 316 335 312 310 307 308 312 89 98 102 234 324 334 335 343 265 252 255 254 253 262 266 266 261 252 244 241 84 164 201 253 249 249 210 257 179
321 318 325 345 347 323 319 316 315 309 320 306 287 291 294 300 296 286 101 105 315 333 341 311 292 247 250 199 257 146 254 257 259 266 262 271 269 271 276 278 273 266 269 268
332 344 338 320 316 331 313 302 300 305 298 303 303 295 295 121 290 277 298 286 307 139 314 317 177 318 309 314 319 311 316 315 268 259 152 261 260 179 267 322 324 270 269 287
340 321 313 312 311 312 290 288 290 175 297 297 254 292 295 205 296 278 221 297 298 294 301 299 296 300 299 299 223 297 298 301 301 307 309 308 306 239 309 314 315 317 314 315
309 306 301 297 302 303 291 282 275 269 274 285 290 288 287 286 229 287 230 175 281 284 288 241 281 281 214 233 251 277 268 283 286 286 287 289 290 296 293 293 293 299 301 294
299 301 294 286 285 295 291 286 281 268 268 267 268 268 263 268 269 265 264 269 266 139 276 279 277 277 161 261 269 269 267 268 273 275 275 279 277 280 278 279 283 297 286 280
278 289 291 284 281 282 274 235 278 279 285 266 256 261 262 262 260 136 260 144 161 252 264 201 249 230 263 262 258 255 258 260 262 256 254 258 257 266 280 256 299 295 285 287
295 288 277 278 288 279 271 257 265 269 279 251 272 265 266 177 259 253 205 255 257 206 196 204 264 255 267 264 255 275 273 271 279 156 243 274 276 315 284 273 278 206 276 290
324 312 299 292 286 274 274 274 280 282 287 280 277 276 272 265 260 260 259 252 203 132 254 257 268 271 147 166 271 278 269 250 207 322 289 255 342 322 330 378 362 266 290 290
386 381 336 316 306 294 293 288 287 284 285 281 277 279 272 272 275 274 270 266 265 259 252 133 200 148 277 279 289 289 322 382 348 370 342 330 320 321 346 353 358 285 296 281
384 374 371 375 384 385 343 339 317 309 305 306 300 296 289 294 291 287 285 285 286 281 218 284 285 287 299 316 365 332 334 322 309 298 332 326 331 329 341 342 285 281 281 284
353 357 361 361 370 368 363 364 366 360 356 357 361 371 372 373 237 249 259 126 362 366 357 356 351 346 349 327 318 320 305 300 292 144 312 315 324 312 322 281 282 270 263 289
337 349 365 359 336 330 330 323 324 335 332 329 326 329 323 321 320 319 316 329 329 330 328 321 329 320 162 318 313 300 318 341 327 312 311 314 315 284 303 262 272 288 297 289
306 308 312 311 312 309 310 310 317 314 309 307 315 318 306 311 314 317 336 336 344 334 327 332 320 311 315 307 318 299 295 295 296 296 298 302 300 302 271 309 267 255 260 300
307 308 306 307 312 310 311 311 318 318 326 310 316 317 318 326 326 333 331 322 303 327 310 291 290 294 301 296 290 291 286 288 296 296 289 283 285 290 290 289 296 296 278 281
295 298 300 300 303 305 303 304 303 304 307 310 312 317 317 330 335 327 310 313 302 298 288 277 270 298 289 277 276 274 279 271 263 265 265 267 272 275 276 281 280 273 270 278
280 279 283 283 284 289 289 299 295 288 293 289 285 287 285 270 269 267 271 271 277 265 257 281 281 249 280 278 272 280 262 266 269 246 274 268 265 273 279 281 282 276 273 273

GFSNW_2pvu_pres_057.txt.gz
Presure
339 346 348 344 341 334 293 290 287 288 299 298 298 290 287 289 272 286 288 292 285 306 247 236 243 226 221 224 211 204 128 241 214 213 198 198 198 194 200 186 182 179 183 185
415 406 377 394 409 421 428 321 335 302 287 292 289 276 281 281 281 276 280 287 287 289 259 243 213 120 224 215 217 210 204 217 236 205 207 205 197 202 205 206 201 187 194 192
386 384 382 379 381 393 360 422 390 332 322 309 293 276 279 279 279 274 272 275 287 269 293 253 230 238 236 218 217 210 204 202 216 218 207 202 200 196 201 202 193 195 180 180
362 360 360 361 360 366 374 394 413 401 330 320 315 304 287 283 273 268 270 272 278 289 270 265 241 235 245 232 216 213 218 210 205 217 219 210 201 197 196 196 199 199 189 192
340 343 383 348 351 350 360 366 381 397 391 364 335 319 307 293 275 270 275 281 279 283 291 294 268 243 239 230 228 213 214 205 211 206 219 220 217 200 195 195 197 196 196 197
361 367 381 397 419 472 517 350 357 380 389 376 351 326 319 310 305 293 290 289 281 282 280 299 306 267 243 238 233 228 211 215 201 209 211 209 212 214 207 204 200 208 208 202
366 379 386 398 421 463 499 422 343 360 381 366 337 332 324 315 90 260 305 311 303 291 284 278 303 317 264 245 238 234 225 226 215 204 211 209 206 209 214 210 208 209 205 207
367 376 385 401 426 469 462 418 340 354 373 366 350 339 317 259 82 310 315 330 317 322 330 297 272 302 324 191 245 238 235 229 235 219 213 208 207 203 209 207 205 199 203 197
372 385 394 409 434 467 443 396 339 360 361 355 344 339 337 331 322 330 333 326 326 331 348 397 203 300 288 314 256 247 237 237 229 228 215 215 212 216 210 208 212 204 196 197
378 392 403 418 442 461 440 336 349 359 352 336 330 325 328 330 332 320 314 317 359 369 379 385 387 387 245 284 321 257 250 238 229 232 222 217 218 218 217 215 214 212 210 209
383 401 414 429 448 452 336 345 353 342 324 322 317 322 321 322 168 305 340 365 350 350 365 369 374 378 252 289 292 321 255 249 243 231 233 229 215 210 212 201 218 215 208 208
389 410 424 440 420 334 344 351 345 330 320 319 319 315 311 305 368 338 341 338 327 339 338 353 358 370 364 97 278 272 309 258 237 240 237 229 233 217 223 230 220 217 216 220
387 415 432 334 337 346 341 333 325 316 314 316 303 171 311 347 336 297 314 325 332 325 326 327 339 343 352 349 260 275 273 288 258 257 233 233 229 98 161 230 239 225 218 225
328 326 326 337 338 331 332 322 314 310 301 290 309 301 327 314 317 329 317 307 312 324 315 321 329 333 336 339 340 266 250 276 278 250 254 253 246 243 203 233 181 237 241 242
322 319 317 314 312 313 309 297 295 299 310 333 322 311 305 317 299 289 292 103 276 174 180 317 316 323 323 328 332 318 308 248 266 281 250 249 246 240 219 247 241 229 230 232
310 311 311 310 307 309 313 310 337 357 335 313 294 287 291 295 301 285 283 286 287 309 294 311 310 313 312 317 317 315 309 288 252 245 280 275 255 252 246 245 241 242 242 243
306 310 307 303 314 331 299 310 329 321 299 294 289 293 286 302 286 283 103 246 218 299 296 295 299 309 309 303 303 304 308 306 306 277 252 251 255 273 280 273 267 266 264 263
340 311 304 321 332 310 300 307 307 302 292 286 287 285 280 289 280 287 274 283 157 297 306 213 289 296 293 294 291 292 295 300 300 301 302 276 249 249 248 247 248 251 253 255
326 330 324 324 308 291 296 296 301 293 288 255 286 285 281 285 283 286 289 242 219 296 297 295 259 174 279 278 278 283 284 287 254 293 298 299 301 299 301 297 298 296 297 297
325 327 325 302 291 292 286 288 284 286 286 282 285 280 280 283 286 284 273 228 289 284 283 285 280 277 141 217 280 281 281 282 282 285 284 285 289 280 283 282 285 287 287 287
313 311 305 299 299 290 290 288 283 278 276 284 278 279 281 272 271 276 283 211 116 216 274 272 270 183 186 192 267 266 270 272 273 275 276 276 264 244 186 155 161 278 278 271
292 294 296 308 306 297 290 284 281 274 269 275 224 268 266 272 273 270 267 266 267 184 132 186 269 258 271 227 144 187 268 202 267 269 268 266 211 257 265 291 233 337 353 334
287 285 291 292 281 298 298 296 278 277 273 274 271 271 268 261 265 266 249 224 266 269 128 257 189 261 266 265 255 135 270 269 247 250 225 342 335 320 334 172 310 314 312 309
286 290 281 288 275 284 278 283 281 281 270 270 271 267 269 267 270 266 269 273 275 270 271 259 274 274 178 269 274 273 280 222 303 341 163 224 314 307 290 288 300 299 288 291
297 295 294 288 291 284 288 285 282 286 281 279 276 279 282 279 280 280 279 277 282 288 293 312 349 364 362 361 142 358 343 329 313 303 297 297 293 292 240 290 286 281 281 281
352 339 306 303 298 302 343 344 346 355 356 349 347 348 355 347 348 344 348 336 347 355 347 328 333 333 330 326 317 310 301 293 289 294 290 286 281 279 271 278 281 281 278 283
324 326 327 323 329 327 325 324 325 324 326 327 336 337 320 311 311 322 302 305 306 306 304 295 293 294 296 305 287 288 282 278 279 278 279 280 273 254 275 250 271 275 278 276

GFSNW_2pvu_pres_060.txt.gz
Presure
282 280 313 318 332 337 367 362 398 340 295 291 292 309 307 271 256 261 267 232 273 269 319 313 313 264 249 237 228 220 234 224 214 211 221 207 202 192 199 192 191 183 182 177
308 338 327 326 344 426 419 418 422 437 421 335 328 288 284 299 288 279 293 274 258 294 303 287 308 275 249 231 224 235 221 216 213 202 217 224 195 193 185 191 192 189 187 183
322 324 385 424 404 394 393 393 395 395 423 375 410 370 324 277 273 279 290 289 278 284 293 284 304 306 255 238 231 228 225 214 203 205 216 220 228 200 189 181 193 197 188 178
369 435 406 386 374 367 367 365 367 370 376 398 412 394 376 316 310 270 279 283 275 275 284 286 300 302 256 239 232 223 223 223 220 216 212 224 227 211 193 198 189 198 195 189
406 385 365 359 350 348 351 344 342 349 360 363 388 402 387 363 310 304 274 281 272 266 281 277 287 299 253 259 236 226 222 217 220 214 222 225 220 214 202 195 190 195 201 203
365 353 340 342 362 362 365 366 368 350 343 353 364 390 390 351 329 310 296 280 282 279 274 287 286 294 302 249 256 237 229 225 222 206 213 216 222 201 212 214 207 201 202 201
332 352 354 349 353 361 371 376 389 413 480 349 353 369 374 368 357 313 305 302 281 280 287 281 282 288 298 253 240 249 232 227 222 220 215 210 207 216 214 205 212 209 210 209
351 344 342 345 351 366 373 376 393 444 456 343 347 360 371 370 350 322 98 314 308 291 289 275 282 289 301 304 248 241 248 234 229 225 217 214 214 215 205 219 217 199 204 201
332 337 338 345 363 374 377 384 421 437 421 339 335 358 366 359 351 339 114 323 315 310 306 294 269 281 292 309 283 249 240 241 244 230 216 217 213 213 212 214 211 217 219 218
328 334 339 351 375 380 387 407 435 420 416 333 340 361 358 354 345 324 315 321 322 320 323 323 305 272 284 297 287 279 250 237 249 233 224 222 220 219 210 204 200 216 218 213
328 334 345 372 384 391 409 435 428 431 331 337 357 359 347 344 337 331 320 322 321 315 329 329 236 330 326 283 298 298 278 252 241 247 236 227 220 220 217 221 213 210 208 203
329 340 361 387 399 413 442 445 401 327 337 359 355 349 343 334 335 318 328 326 324 323 322 365 364 346 360 362 340 295 289 283 251 243 240 229 222 226 213 210 211 210 212 207
332 350 384 405 420 443 456 336 332 350 356 348 340 330 328 324 327 322 283 315 307 310 310 338 342 336 342 353 341 328 286 296 288 258 243 237 234 237 184 222 222 226 220 212
329 374 413 432 433 337 331 347 346 342 335 324 320 320 317 317 309 302 301 330 339 337 326 330 324 321 336 340 356 338 164 301 330 281 266 247 241 234 232 231 164 230 227 228
319 319 318 326 335 341 350 343 333 329 317 324 317 144 303 296 222 330 318 317 322 331 323 320 314 319 328 326 336 334 330 308 317 276 278 294 251 240 245 243 235 226 225 232
311 314 318 338 344 343 335 328 325 321 319 310 300 297 297 326 320 318 322 300 300 295 319 311 306 310 316 318 321 326 326 325 244 313 273 99 286 298 254 251 251 251 177 244
302 311 312 318 321 313 308 314 322 306 292 287 299 326 314 312 305 91 294 204 287 172 300 303 293 301 302 306 313 314 322 326 323 314 291 268 266 266 282 282 253 253 251 246
298 301 304 307 266 298 303 307 303 299 338 335 320 306 296 292 300 289 280 287 178 272 291 293 289 294 298 299 305 307 308 162 310 312 316 265 268 262 254 269 283 285 263 257
307 302 303 303 303 303 316 325 260 344 318 183 296 308 299 287 290 280 286 260 280 289 283 272 286 290 294 223 294 296 300 301 298 300 299 297 297 286 284 252 249 253 275 283
320 296 294 307 330 324 312 342 307 286 288 287 295 291 307 300 288 296 280 278 180 285 284 289 274 282 284 281 293 291 292 293 291 290 294 226 291 294 301 302 305 307 263 261
335 300 301 319 308 302 300 301 311 299 292 290 287 288 281 285 278 296 282 218 270 273 284 295 288 278 277 275 277 278 279 278 280 281 281 284 288 289 290 292 291 289 294 296
314 307 312 310 300 293 301 303 305 295 290 285 285 282 279 281 280 279 278 281 213 282 281 244 261 271 263 164 254 193 278 280 281 281 280 280 280 280 280 279 276 280 284 151
312 317 311 306 278 283 287 280 279 281 274 279 282 280 280 279 271 272 272 270 193 228 248 204 270 131 119 258 270 271 270 160 159 269 268 268 268 266 265 267 270 272 274 311
308 309 299 289 285 283 285 285 286 280 274 271 269 270 270 266 266 265 252 157 262 149 260 258 145 260 262 266 267 150 173 156 142 132 263 248 249 242 128 297 350 328 313 274
302 291 288 296 293 293 284 280 269 259 262 263 261 260 260 262 261 265 268 270 268 272 274 273 273 273 275 270 270 270 277 276 278 281 282 281 284 316 330 312 303 299 292 294
282 280 280 282 279 275 273 275 281 283 276 271 270 271 276 271 269 267 267 266 269 274 281 282 292 340 339 340 337 328 165 192 323 306 323 329 314 302 297 297 293 289 291 278
296 289 287 291 292 292 291 287 283 277 271 272 275 275 279 291 284 301 347 355 363 358 348 340 342 335 326 324 320 314 308 309 311 303 301 292 292 287 285 292 282 281 294 274

GFSNW_2pvu_pres_063.txt.gz
Presure
290 282 278 278 278 279 292 327 326 330 339 345 326 336 328 282 279 302 316 279 266 264 258 256 244 253 267 255 286 239 240 228 228 233 218 223 229 204 208 207 207 194 192 187
276 282 298 318 308 313 340 342 332 327 324 358 431 436 448 360 335 281 284 310 277 272 268 260 257 258 277 281 288 238 247 223 231 220 224 224 212 226 204 204 204 206 194 192
319 297 313 334 328 322 332 351 389 308 408 401 401 407 441 429 382 328 285 278 292 287 273 273 267 263 274 288 308 245 242 234 242 227 222 215 210 222 221 194 205 202 196 183
318 334 315 322 455 438 428 415 391 375 374 374 376 381 410 415 385 337 315 282 273 293 297 271 268 265 304 312 314 249 241 234 229 231 219 217 218 223 220 207 194 201 190 189
313 312 436 416 397 394 384 365 352 355 352 353 358 369 380 405 377 362 320 304 287 274 291 289 284 290 286 306 293 250 240 235 232 223 233 222 235 221 216 213 218 193 197 190
402 376 384 372 363 357 344 337 338 338 336 338 343 348 360 386 387 363 360 328 310 280 270 296 286 291 292 291 284 266 240 236 236 225 223 222 224 217 208 206 216 218 196 198
377 354 337 327 341 359 349 344 351 364 356 364 358 336 345 359 405 369 360 348 325 311 286 273 285 289 286 288 260 302 242 234 230 233 227 228 215 217 213 209 215 219 221 192
370 376 365 355 346 337 333 338 349 364 370 371 374 369 334 347 358 388 366 356 333 313 311 285 278 283 282 284 273 295 246 236 234 227 222 228 222 215 206 208 220 220 220 224
382 355 342 333 331 330 334 339 360 371 373 378 398 452 372 339 350 384 367 84 324 316 301 305 268 282 272 280 265 290 296 245 240 230 230 224 223 221 215 204 207 207 214 227
347 328 322 323 330 333 341 360 370 382 381 403 451 398 349 336 350 356 355 344 337 320 312 308 291 278 284 277 285 275 293 263 239 239 229 223 233 227 218 222 225 227 208 215
319 311 319 326 333 345 365 371 378 385 391 421 409 389 340 341 357 353 357 358 346 324 311 253 303 294 278 279 279 281 291 294 259 242 234 227 228 219 228 231 216 215 214 210
326 310 325 331 349 366 378 385 390 398 425 408 419 345 333 344 355 350 341 342 334 322 315 310 310 308 298 284 281 274 280 297 300 251 253 222 228 224 216 221 220 217 216 210
317 318 329 350 368 383 391 403 419 447 416 406 328 327 353 356 346 339 335 319 320 313 307 313 312 311 309 310 304 272 275 285 296 299 244 247 243 230 228 221 222 220 218 215
312 323 336 378 393 403 420 447 446 413 333 327 339 363 353 345 336 326 319 299 306 310 308 309 308 336 307 332 322 308 332 287 283 298 309 241 243 241 247 232 173 227 222 223
319 319 316 329 429 443 464 350 334 332 348 356 354 339 330 323 314 313 311 322 316 307 308 303 326 323 320 336 329 320 314 279 251 292 325 292 243 240 244 245 235 241 212 223
306 313 317 329 330 327 336 346 356 353 343 333 327 324 315 309 214 306 300 231 222 325 328 327 320 323 324 339 325 308 304 297 290 314 283 297 279 293 242 244 247 245 248 243
282 312 315 338 338 346 346 344 334 326 322 314 311 305 304 300 294 293 314 312 192 317 316 302 260 304 316 326 332 304 299 297 292 295 306 310 283 277 294 286 263 251 250 242
281 311 311 331 334 339 341 330 320 312 311 199 299 310 310 319 310 218 302 287 295 298 131 302 303 300 306 310 308 322 318 301 302 300 298 295 296 304 290 269 278 282 286 286
283 309 307 312 309 319 318 316 308 296 288 282 329 319 321 314 292 300 107 195 290 285 294 289 290 292 291 296 296 303 311 312 315 308 308 305 302 297 302 303 306 278 272 271
292 302 299 307 303 303 301 296 292 295 314 322 308 300 295 299 283 293 292 232 208 279 276 282 286 284 279 283 285 291 298 303 306 309 311 309 306 299 298 297 295 294 273 269
312 299 301 304 306 307 320 325 317 335 312 303 288 290 309 286 289 275 285 270 274 284 282 278 275 279 278 278 280 284 286 288 292 293 290 291 289 286 289 290 288 288 289 288
307 301 296 323 333 324 334 358 321 308 296 301 287 309 282 284 225 292 198 277 271 275 274 275 280 272 268 272 273 279 282 286 284 284 283 282 281 281 281 283 284 285 288 289
310 300 312 314 327 369 316 300 294 296 295 294 279 280 286 272 270 282 267 201 113 279 269 282 275 282 276 213 271 274 275 276 276 273 237 273 274 275 276 279 281 283 282 280
308 306 306 293 272 294 305 297 297 295 289 290 288 285 279 282 279 281 279 278 275 140 125 279 261 261 237 154 275 277 276 267 258 137 144 267 180 272 272 273 272 272 272 271
304 303 295 289 289 293 283 281 271 271 277 276 271 272 269 265 265 269 270 266 268 270 265 264 261 188 264 264 264 265 262 262 215 264 264 213 265 221 236 264 215 133 225 275
306 300 300 295 289 277 277 275 271 271 269 270 270 270 270 261 265 265 266 269 275 264 117 270 273 274 275 280 284 289 289 294 289 283 284 281 290 285 298 286 296 339 326 313
301 297 291 288 286 285 284 285 279 280 272 277 273 275 278 274 271 270 272 271 271 275 284 321 361 355 344 341 324 331 330 330 327 330 328 330 324 322 315 312 305 301 301 293

GFSNW_2pvu_pres_066.txt.gz
Presure
258 317 303 299 291 284 277 275 277 280 293 305 317 292 281 287 287 283 292 303 311 278 320 318 279 279 270 256 253 248 253 233 261 238 237 229 225 218 223 221 216 206 193 204
294 295 290 281 278 285 325 314 313 341 344 348 345 341 345 348 345 335 323 322 282 282 282 300 315 268 268 263 257 257 253 220 245 241 239 238 229 222 218 218 214 214 200 199
289 280 280 280 295 316 342 330 390 390 467 446 430 368 369 331 320 323 337 330 320 313 279 289 289 300 290 267 257 252 246 233 240 243 230 244 230 220 223 211 213 225 200 188
276 277 287 308 324 328 348 435 416 418 412 407 405 397 403 398 402 438 396 396 326 312 314 284 285 307 287 273 264 255 246 256 234 258 229 231 222 227 231 221 210 212 213 202
279 323 310 330 356 400 375 381 383 388 379 377 366 372 371 370 381 403 393 386 260 341 312 324 283 296 309 283 277 261 259 261 227 283 248 229 225 225 219 226 219 212 217 204
302 312 322 332 387 383 360 342 331 346 348 352 352 348 350 352 363 372 386 367 367 354 319 317 281 271 299 299 270 275 262 278 238 307 249 233 223 218 222 213 218 222 214 209
328 314 383 386 381 369 349 359 363 356 352 348 334 338 341 343 347 359 360 361 362 346 325 315 312 280 284 290 291 273 271 268 237 297 243 245 225 229 222 224 216 209 220 220
308 391 377 391 386 367 353 346 340 334 337 342 349 352 353 332 342 343 360 371 351 361 326 309 303 281 272 290 294 284 268 289 240 277 243 233 240 230 223 220 219 213 210 212
391 361 403 372 351 338 327 329 332 332 332 336 351 359 356 359 328 340 376 355 347 343 342 318 308 293 266 272 288 282 277 254 254 287 241 230 235 229 240 218 215 208 218 223
350 374 356 333 324 321 320 325 329 336 339 356 370 362 364 363 342 331 341 376 343 337 339 331 304 301 293 261 280 278 284 281 285 286 244 228 235 233 232 229 218 221 213 224
340 334 331 324 312 321 323 330 338 362 370 366 382 377 375 378 343 323 339 373 241 362 337 334 322 305 302 273 267 271 282 282 288 275 250 233 233 233 238 230 221 222 219 226
326 346 332 318 315 324 326 351 371 380 388 378 386 416 426 417 346 323 335 370 337 335 369 336 321 302 300 295 264 269 269 278 287 252 295 238 234 231 233 241 223 217 222 226
301 315 319 315 327 351 371 374 382 389 392 397 423 405 402 375 339 326 337 353 354 339 342 333 311 296 282 296 270 266 273 278 275 289 262 275 240 228 229 232 235 225 229 220
290 298 313 322 323 374 381 386 397 406 410 426 405 391 384 342 324 336 344 339 344 349 332 325 305 297 293 293 286 279 275 282 286 283 292 298 272 237 224 228 227 227 228 233
283 286 304 317 326 395 401 413 424 448 458 423 407 350 325 333 344 346 345 327 328 323 320 301 297 292 298 300 303 299 294 264 270 280 287 286 291 269 238 231 227 150 228 231
282 280 294 323 340 339 444 451 451 356 329 330 336 354 352 343 333 325 317 314 309 307 305 304 300 301 305 322 305 299 297 307 301 296 283 282 283 284 285 242 239 237 233 223
279 276 291 327 351 343 340 332 337 350 353 345 334 324 317 316 311 310 308 299 189 299 299 295 314 308 311 326 301 314 307 310 304 304 291 314 298 285 293 293 293 251 246 240
273 276 289 340 353 357 358 353 342 340 329 322 313 308 306 308 308 302 303 307 300 292 300 303 296 304 314 314 326 309 302 304 305 297 308 292 304 304 305 306 315 320 297 256
347 299 303 339 348 336 332 327 322 319 315 310 309 303 298 322 301 312 309 294 297 290 292 311 317 316 314 323 317 302 301 301 298 301 304 304 295 303 304 311 310 307 325 314
318 286 329 320 321 321 317 310 311 306 304 299 301 285 317 311 298 301 299 293 293 299 299 294 301 298 304 311 319 292 302 292 291 293 294 292 297 296 295 290 287 315 301 303
284 306 299 301 297 309 297 297 290 284 284 303 315 313 300 295 297 287 281 185 288 289 285 285 281 282 289 292 297 310 302 296 288 291 298 297 297 299 291 292 291 287 287 287
301 304 302 294 295 294 292 286 290 302 321 311 314 303 283 286 281 281 282 282 285 276 280 278 280 276 277 280 283 287 290 291 295 298 299 299 303 307 312 316 312 309 306 307
305 300 298 305 309 307 302 297 319 308 296 288 299 288 257 284 284 287 271 279 270 285 272 279 279 280 282 278 282 282 280 283 284 285 286 290 290 290 294 295 296 296 294 292
294 321 318 315 317 324 337 336 300 289 274 275 283 304 275 278 291 286 270 265 111 128 280 272 276 260 131 197 261 135 274 271 272 258 273 275 276 276 277 277 277 279 278 281
308 304 333 342 285 322 309 285 299 290 281 281 280 278 281 283 275 282 281 281 275 133 113 131 131 214 265 182 275 188 278 278 279 280 225 130 197 278 148 276 267 277 277 276
306 307 325 311 301 290 293 293 290 290 287 290 288 286 283 281 275 275 271 276 272 266 268 266 262 260 214 260 196 259 260 261 262 263 267 269 270 271 270 269 270 267 264 268
300 288 289 290 286 269 270 275 278 276 271 270 265 269 262 266 261 273 271 163 275 269 269 280 301 309 328 361 346 341 344 328 319 331 326 338 349 347 351 353 348 351 349 335

GFSNW_2pvu_pres_069.txt.gz
Presure
289 296 292 284 283 302 295 293 292 294 283 279 280 276 276 278 277 283 281 297 306 315 295 289 287 278 269 265 264 259 278 266 265 256 248 240 239 234 235 236 252 209 203 208
288 280 282 271 282 295 297 292 281 285 284 296 335 348 349 353 322 275 135 307 282 281 294 303 316 295 292 296 289 287 269 244 261 253 247 233 254 238 227 228 228 218 207 208
282 277 295 292 298 293 283 273 277 317 333 400 464 477 469 455 410 326 344 326 311 312 296 274 287 288 301 314 292 280 260 245 252 256 255 234 243 246 226 226 239 213 206 213
295 294 293 292 285 278 272 302 331 334 394 421 435 437 437 409 406 408 379 310 329 333 329 310 316 277 283 283 278 314 265 255 252 260 260 229 243 234 227 223 235 220 210 206
291 284 279 274 271 301 310 330 400 394 370 362 379 401 392 385 378 383 384 400 310 310 313 324 330 330 298 279 282 303 289 267 250 254 250 232 256 240 234 226 223 224 213 205
275 270 269 275 301 314 321 391 384 374 357 348 338 369 368 365 365 361 362 376 417 418 359 305 318 324 315 322 275 276 302 271 255 251 256 233 246 249 239 222 219 216 229 209
266 269 286 299 328 342 380 409 375 363 369 366 356 337 344 350 348 346 355 378 400 390 378 376 332 316 314 308 267 281 290 284 266 254 257 233 222 266 242 234 226 217 216 222
275 291 294 327 322 382 395 378 366 353 342 340 341 354 352 332 334 336 346 369 368 355 369 371 350 315 312 304 277 265 287 283 284 265 242 247 231 263 262 241 230 223 215 218
294 291 319 308 356 361 359 336 329 317 325 329 329 333 343 357 321 327 341 342 333 339 329 370 350 337 312 306 295 272 277 290 280 271 259 243 261 261 258 232 236 222 227 220
295 303 302 354 352 341 327 317 314 319 319 325 326 332 336 350 354 318 329 330 331 339 335 368 346 333 312 299 296 271 271 287 288 276 272 233 261 233 264 256 233 224 225 224
292 295 331 313 337 329 317 315 322 322 325 331 343 350 350 355 358 345 313 325 339 126 188 352 342 324 309 297 299 275 261 272 277 281 282 248 271 252 271 252 248 224 215 224
289 296 325 301 315 310 320 327 332 342 344 352 367 368 362 363 362 349 322 319 347 336 333 349 352 333 300 295 288 276 257 262 281 283 270 281 290 263 304 253 249 244 222 219
302 349 309 287 304 316 314 316 372 379 382 379 379 376 373 375 359 342 349 319 334 357 344 213 353 325 300 294 291 283 267 263 276 284 276 280 280 255 293 255 248 240 244 221
323 328 291 284 300 312 333 343 388 391 391 384 382 393 386 393 366 338 333 338 348 348 348 367 331 329 315 291 290 289 285 268 266 279 278 286 244 283 287 258 245 246 231 244
350 308 279 292 295 308 336 391 386 381 384 389 411 397 443 435 347 352 324 351 357 361 319 340 339 313 301 298 284 286 295 285 269 258 265 276 274 283 250 289 243 238 238 234
327 293 281 285 292 314 328 409 401 398 412 447 439 427 413 364 354 323 334 337 341 351 324 321 312 299 296 288 315 288 295 293 285 266 264 270 268 277 282 263 250 237 167 238
309 281 278 281 291 340 334 329 407 437 420 444 398 335 326 326 333 354 335 319 316 316 309 303 303 299 293 295 289 295 285 289 290 280 275 278 280 274 276 281 248 272 228 237
290 271 270 281 293 347 333 334 336 338 342 344 342 343 342 344 331 314 316 310 306 305 301 302 300 301 299 307 307 299 294 289 292 294 302 281 274 280 283 281 277 281 288 268
291 269 268 287 321 354 357 355 356 350 345 339 336 324 317 318 310 307 304 305 303 297 299 304 302 298 295 293 303 311 292 310 302 306 303 302 309 298 304 302 292 282 284 286
270 359 311 295 340 339 335 340 334 328 324 320 315 315 301 306 299 295 299 289 280 293 293 293 322 294 293 307 311 296 327 306 304 302 302 303 300 318 299 296 291 330 320 324
351 304 293 331 326 319 318 317 317 314 309 313 309 305 297 305 316 298 308 250 309 111 298 307 303 305 313 308 313 303 319 301 302 301 301 305 302 302 322 304 315 297 300 313
296 292 314 317 312 306 311 304 296 295 296 294 310 310 314 306 302 304 303 303 106 305 298 284 294 295 299 297 302 309 327 313 294 301 295 295 292 293 291 286 285 291 293 289
291 301 307 309 296 300 291 286 280 272 324 309 291 289 292 287 281 281 281 287 288 288 281 284 282 287 283 286 288 291 295 303 313 311 299 289 290 290 295 303 315 312 311 312
297 297 295 297 294 286 283 287 301 317 302 300 284 281 287 277 275 273 279 265 283 128 277 280 279 280 280 279 280 280 281 284 285 284 286 286 287 288 292 293 294 295 296 297
295 296 241 296 299 294 294 320 306 299 295 293 287 267 286 282 276 282 285 273 264 276 279 276 276 223 175 227 193 189 169 126 280 283 284 284 232 135 127 141 282 286 286 232
322 324 323 321 321 312 317 295 280 272 274 273 291 273 275 275 273 275 282 272 277 267 207 218 120 116 130 244 183 266 177 270 198 270 269 269 269 271 271 273 275 276 276 277
350 346 291 348 343 294 293 289 284 292 292 289 278 286 275 284 277 278 270 265 267 145 133 257 255 256 284 290 285 293 288 291 290 291 292 292 292 291 292 296 295 305 316 317

GFSNW_2pvu_pres_072.txt.gz
Presure
264 266 250 281 254 283 305 294 290 290 302 302 299 297 298 296 286 287 285 283 75 267 284 174 331 298 290 271 266 249 245 245 246 246 259 257 237 278 255 259 252 258 243 241
285 284 245 279 289 303 299 285 301 309 307 297 296 287 279 298 345 344 335 119 207 297 282 278 277 284 309 305 289 269 266 260 255 254 261 284 277 261 246 257 242 256 229 217
273 262 289 283 295 289 299 304 298 213 285 282 281 332 383 422 442 482 484 338 458 353 327 315 303 279 271 297 299 291 266 266 258 252 281 283 260 252 247 247 236 249 250 205
275 281 283 295 293 296 296 286 282 282 284 326 337 408 390 377 378 427 420 440 429 418 384 338 303 314 291 265 285 296 308 304 287 289 284 272 256 251 244 242 239 251 247 210
279 289 290 285 302 291 281 278 275 311 323 334 407 385 371 366 398 413 398 388 413 404 399 325 322 290 310 297 266 280 283 303 299 282 298 266 249 247 239 234 233 249 244 230
287 278 298 290 280 275 272 292 306 315 336 397 375 369 360 359 373 386 380 378 372 395 389 371 312 319 292 299 309 274 276 275 310 277 286 256 249 245 234 243 233 241 238 226
297 292 279 272 267 277 293 305 304 342 396 383 370 364 370 354 341 355 363 361 363 377 411 393 295 313 316 310 296 303 279 268 294 295 277 253 252 251 247 255 228 239 238 221
271 271 269 272 280 293 298 302 312 346 327 325 335 342 338 345 338 336 345 346 376 364 394 403 395 286 307 311 322 326 308 284 271 304 278 254 254 240 249 251 225 239 240 222
268 270 274 281 295 289 297 290 351 340 324 316 318 326 335 332 343 331 335 338 360 352 351 368 390 307 297 298 313 322 298 307 274 282 295 261 265 251 252 247 239 244 232 235
279 282 293 296 285 292 287 292 317 312 313 319 323 324 324 329 338 352 316 335 339 329 329 322 352 358 375 340 306 310 296 308 272 268 292 272 269 250 239 238 254 231 235 225
292 290 293 285 288 269 285 302 304 310 314 315 322 333 336 340 343 344 326 319 331 325 320 323 339 358 360 328 302 306 292 304 262 276 286 265 269 260 247 244 231 265 233 231
280 281 284 283 271 295 322 296 299 310 322 321 359 353 350 353 354 348 338 310 333 329 319 115 255 373 322 346 312 303 296 290 264 269 282 275 277 262 254 238 233 222 259 231
289 287 278 281 310 353 300 289 296 315 321 380 380 379 379 365 365 361 346 326 322 326 336 344 263 337 351 332 315 299 294 287 265 264 280 281 278 277 266 240 232 238 238 253
293 292 296 297 304 328 295 284 305 334 398 395 384 388 382 378 367 354 346 331 321 323 335 340 336 348 333 325 312 293 288 285 274 262 275 282 284 283 274 269 254 247 259 276
299 299 297 305 342 299 285 295 324 336 387 390 383 388 401 385 371 349 340 346 320 325 357 341 333 339 324 312 299 287 285 283 282 261 261 271 280 283 283 282 267 258 284 259
299 299 302 346 321 287 285 301 334 321 384 387 375 383 415 400 376 351 334 338 316 353 343 335 328 307 310 297 289 283 280 281 286 272 258 259 275 277 278 275 265 283 294 260
300 299 299 335 292 281 288 302 342 371 398 390 398 451 415 431 369 355 333 321 352 320 327 341 306 297 292 307 297 289 286 286 283 277 267 260 265 279 281 270 282 267 259 285
302 300 337 307 281 281 292 346 336 327 423 453 439 416 407 370 358 320 347 344 349 311 320 317 302 300 296 302 300 301 296 296 287 288 294 272 263 263 263 274 283 285 276 261
298 337 318 287 273 287 328 349 341 339 326 342 355 334 327 329 334 322 326 326 322 310 310 312 313 300 296 300 306 309 308 316 292 291 294 300 297 279 266 269 277 278 276 270
336 314 289 273 274 296 358 350 359 355 356 356 351 345 331 328 324 323 320 317 307 308 309 316 305 304 310 305 297 281 311 288 292 293 292 295 302 298 310 291 277 279 275 276
305 290 283 291 321 346 347 339 330 332 335 334 334 325 316 313 311 306 308 306 219 307 297 305 293 290 293 293 287 287 307 282 327 297 298 314 310 310 306 308 312 323 312 298
281 281 301 307 300 333 325 314 317 309 309 307 303 295 302 296 298 287 292 288 286 282 279 295 294 305 310 302 290 291 297 315 306 342 341 331 317 309 306 311 303 305 313 310
344 318 297 323 313 309 303 306 307 303 297 291 307 311 311 310 298 315 314 313 101 306 297 296 295 293 293 298 294 293 296 295 300 310 321 327 310 297 299 301 299 298 296 298
307 295 310 304 311 304 300 295 290 288 282 311 306 299 297 297 291 295 297 295 293 289 286 285 280 283 283 285 285 285 288 290 290 294 289 286 287 298 309 307 301 298 303 306
299 302 296 315 307 293 282 281 297 315 290 294 293 291 283 274 277 189 283 202 283 270 265 276 259 272 280 280 282 284 122 206 226 285 284 286 287 287 289 289 290 292 290 289
299 297 303 296 288 286 313 315 305 301 288 273 287 281 282 278 270 279 287 268 263 278 270 272 270 270 138 238 260 265 202 271 176 277 285 285 285 282 280 278 281 283 232 285
294 291 286 292 295 319 313 312 303 297 293 273 275 276 273 276 277 278 279 277 268 262 147 258 167 121 266 293 295 265 263 272 268 264 264 263 264 264 265 265 265 266 268 274

GFSNW_2pvu_pres_075.txt.gz
Presure
234 230 225 229 234 242 233 235 272 252 281 293 297 305 302 309 307 309 306 301 298 291 292 297 307 303 303 322 275 278 278 266 250 248 247 243 241 242 245 245 237 245 281 194
241 259 234 236 236 237 261 253 295 279 292 298 306 311 304 298 294 283 279 297 317 341 344 319 295 280 279 287 304 289 284 270 264 249 249 247 243 244 255 256 252 267 278 251
249 240 254 249 257 254 251 274 293 284 304 306 307 298 290 282 313 374 423 417 414 420 525 483 362 333 281 273 275 297 317 283 269 264 254 245 245 248 247 258 260 289 265 238
264 264 279 282 280 276 279 286 294 296 301 298 287 276 332 416 416 396 390 388 391 437 461 486 458 352 320 296 268 273 288 302 300 283 266 261 253 247 254 254 276 258 268 238
265 275 273 278 268 288 284 294 297 300 288 279 312 323 421 404 388 374 371 440 408 396 415 433 444 408 336 307 297 269 269 271 287 321 291 285 265 268 270 251 270 247 256 240
269 287 281 281 282 287 287 302 288 277 277 311 316 382 348 350 382 370 365 391 396 387 391 406 412 395 357 312 297 297 276 273 281 298 299 288 282 262 260 268 259 245 249 235
279 271 274 289 286 282 293 276 271 273 305 307 308 344 337 324 351 367 356 361 372 369 352 384 394 382 357 315 304 298 304 296 279 279 296 315 294 287 289 259 251 239 251 237
279 286 279 276 284 277 271 267 280 303 303 305 316 326 323 317 335 341 356 345 350 356 380 389 407 380 358 305 309 307 298 320 285 268 286 300 291 282 279 255 245 233 257 234
279 273 280 282 271 273 265 291 302 302 290 336 308 313 317 320 331 333 342 339 341 352 346 345 369 378 352 307 308 315 304 305 305 261 275 288 292 284 269 249 244 232 250 233
273 272 267 268 269 284 299 298 291 291 295 328 304 302 318 316 323 332 336 341 330 338 333 326 339 352 344 306 301 310 321 308 297 256 269 277 282 284 264 250 246 236 244 235
265 266 266 276 292 289 287 283 289 278 353 312 298 304 326 319 340 338 342 343 328 341 324 325 323 337 371 306 291 306 319 325 286 295 264 272 299 280 257 245 245 241 240 229
286 290 292 289 282 277 284 295 282 302 332 302 295 314 344 397 357 341 342 328 325 342 331 323 329 338 349 379 292 283 288 304 311 297 272 272 284 281 253 245 251 247 236 244
280 279 273 276 274 278 296 300 306 336 310 297 300 337 410 406 380 353 347 336 325 341 328 326 325 326 142 369 383 297 287 302 300 285 295 270 264 303 253 250 247 246 245 234
272 273 279 279 284 288 299 298 301 327 296 282 330 329 401 403 388 359 350 345 332 323 327 315 318 193 318 342 239 343 294 294 294 287 296 275 266 293 282 249 247 248 250 242
280 281 279 290 292 302 306 298 334 305 278 307 343 389 409 395 390 367 355 349 334 326 322 324 340 326 339 320 330 323 291 290 288 284 300 264 274 277 283 269 266 253 247 249
293 287 295 295 301 308 307 333 300 285 293 351 332 377 396 396 390 372 357 347 338 329 323 332 320 333 326 327 310 307 294 285 286 291 294 265 253 279 281 277 264 267 253 244
301 302 298 304 305 303 303 325 283 291 336 341 363 391 383 402 428 366 354 347 340 314 325 341 328 325 320 316 303 299 287 294 289 290 290 268 258 262 281 280 275 274 271 262
302 297 304 307 304 304 329 288 286 322 347 335 402 402 466 428 394 363 350 352 313 330 347 324 311 309 308 306 296 290 295 298 292 294 288 270 263 259 267 278 283 284 275 273
300 303 305 304 303 325 295 275 315 351 347 326 424 425 413 427 375 354 329 351 340 333 342 311 307 306 302 307 297 297 296 296 292 291 290 280 271 266 261 265 273 281 282 290
304 299 305 306 319 303 267 332 357 357 339 333 415 413 335 351 321 355 354 335 324 338 318 312 306 300 308 304 317 321 318 283 284 281 286 285 281 273 274 266 261 264 277 285
301 304 321 313 301 265 344 363 360 350 346 343 351 339 328 329 316 333 341 318 322 339 304 315 311 316 319 316 314 292 286 292 298 291 299 306 302 288 289 291 301 283 266 263
303 324 307 296 262 330 347 335 330 326 332 340 327 327 324 322 323 321 321 313 321 296 297 303 292 291 291 290 288 285 287 284 290 306 291 287 298 301 301 309 302 297 311 292
319 303 286 263 332 331 318 306 309 308 308 300 303 299 295 287 288 290 286 282 288 281 290 283 282 299 296 289 295 295 296 297 299 299 305 311 315 319 327 335 340 330 307 305
292 279 324 326 318 311 307 302 304 302 302 311 307 299 303 301 307 307 309 298 291 287 287 291 291 291 294 295 294 295 295 296 297 296 296 295 295 296 298 301 306 312 316 326
354 317 319 317 311 307 306 295 286 313 309 315 315 304 301 296 298 298 298 287 277 278 281 272 278 279 274 278 278 275 275 273 274 276 248 244 287 289 289 288 286 285 287 288
311 318 314 305 299 293 289 284 302 308 303 297 277 290 287 274 291 265 272 275 278 275 264 261 261 262 272 270 280 277 285 289 289 223 222 276 272 272 224 226 288 230 266 306
313 307 304 296 286 281 281 306 299 274 294 285 279 270 280 282 282 272 262 256 262 274 283 288 281 130 144 125 258 259 260 139 135 143 260 262 262 263 264 266 266 272 274 275

GFSNW_2pvu_pres_078.txt.gz
Presure
250 236 230 243 231 233 223 249 241 235 231 241 253 249 264 293 289 297 313 318 316 313 306 297 289 289 302 309 292 289 306 259 289 278 257 251 245 237 238 238 231 230 228 237
267 263 263 246 253 241 267 253 260 242 252 280 281 274 294 284 291 314 309 302 294 290 309 337 310 297 287 280 297 296 298 309 266 280 277 255 248 244 240 236 233 234 236 226
273 260 265 255 238 233 250 250 253 280 281 266 282 293 277 302 317 304 290 373 436 422 412 311 427 448 382 330 274 287 296 297 316 275 275 272 257 250 248 244 236 241 247 246
266 262 255 253 271 244 285 294 282 276 286 270 279 292 306 304 293 287 369 372 405 406 402 438 451 414 437 414 334 272 283 294 307 282 276 271 267 258 251 250 249 246 251 259
283 286 282 284 282 266 277 280 280 267 281 281 295 302 294 285 330 315 357 364 387 387 424 407 417 423 408 427 358 314 272 275 285 304 273 276 272 265 256 252 251 251 253 262
269 272 269 275 269 276 265 272 276 294 285 294 292 282 278 330 311 331 352 354 374 377 395 393 402 419 438 427 363 317 292 271 273 280 301 294 284 274 263 257 251 245 249 249
267 267 264 272 271 277 280 283 283 283 279 288 281 272 317 309 296 322 329 335 370 361 377 382 386 401 430 402 347 306 292 292 277 270 284 307 310 283 279 259 256 254 254 257
272 271 281 278 286 288 280 280 286 278 284 275 272 307 305 291 320 307 325 324 350 376 373 380 387 392 417 374 339 303 296 300 289 277 272 283 297 310 287 277 270 267 271 281
282 283 281 267 277 277 275 277 281 275 269 283 300 295 294 314 318 299 317 327 332 346 355 354 346 370 398 364 334 309 299 303 313 289 271 267 271 309 290 277 278 278 259 253
270 274 274 271 273 275 275 275 270 268 296 297 292 304 302 335 305 295 333 324 355 345 348 345 341 355 403 356 330 305 305 305 308 314 309 268 264 291 294 280 275 274 280 243
265 279 275 271 271 267 265 266 269 298 293 284 305 313 341 320 294 316 353 351 339 341 346 339 333 324 360 343 324 315 315 311 322 296 307 292 259 275 289 292 277 278 270 239
246 244 235 260 257 259 289 293 291 285 284 287 315 317 344 290 314 328 368 344 349 332 326 333 326 326 345 348 318 314 310 309 314 282 293 285 257 274 289 292 278 269 262 237
246 268 254 283 281 280 279 280 274 283 296 309 316 342 304 299 325 396 361 345 343 328 330 330 325 329 336 360 326 315 309 298 305 273 285 283 264 277 290 276 278 266 259 238
279 279 281 273 270 269 276 274 281 287 303 317 313 326 290 324 316 416 366 341 342 328 325 324 323 322 348 360 259 324 282 292 308 296 276 292 283 269 287 278 272 267 258 237
279 276 273 258 277 277 281 280 287 301 313 301 340 291 308 333 389 418 369 348 347 325 329 325 322 310 344 308 359 382 274 287 285 290 286 293 296 264 282 285 270 265 255 250
287 297 279 282 287 311 297 287 305 316 303 343 286 298 347 337 405 400 368 346 348 331 326 318 311 309 337 332 334 348 280 272 279 289 297 301 301 269 270 287 272 266 260 248
309 307 301 304 313 308 299 302 310 304 338 292 296 348 334 384 396 388 370 345 345 335 326 316 328 325 327 322 324 329 304 302 300 287 305 298 295 290 265 260 286 267 257 255
319 315 316 315 311 307 305 312 300 333 286 299 352 348 404 417 430 429 369 342 346 326 315 333 324 328 321 308 317 309 302 300 289 292 296 301 285 302 281 267 257 287 261 255
320 317 313 306 306 305 314 305 331 281 307 355 349 399 439 432 413 376 352 344 322 309 333 325 324 316 315 309 305 297 298 299 286 285 297 292 285 287 289 265 265 273 290 275
315 311 304 306 304 311 310 322 279 326 360 350 333 420 428 398 369 352 349 316 319 346 313 312 317 312 308 305 302 300 302 302 291 301 301 283 285 289 289 273 262 256 264 284
313 309 308 308 302 321 311 275 350 360 343 331 324 399 361 334 346 340 329 344 334 336 311 317 312 307 309 295 304 295 296 298 294 293 283 285 286 286 289 282 272 263 260 259
310 308 308 300 319 296 274 354 358 351 342 336 338 337 338 336 332 330 316 327 334 325 316 323 287 303 308 282 302 301 315 306 297 295 296 287 298 288 285 286 283 274 276 270
311 305 303 313 290 303 336 333 329 330 338 330 333 323 320 327 328 315 314 318 344 287 274 289 295 288 292 287 295 291 291 284 295 287 295 313 314 314 299 299 300 300 292 306
304 317 303 281 332 328 321 313 312 307 311 305 307 301 300 294 302 290 284 302 296 151 297 304 299 297 295 292 290 291 292 293 295 296 297 297 296 298 299 304 307 310 314 323
325 297 293 327 320 314 306 298 299 301 293 311 320 306 306 311 304 301 296 292 284 281 276 241 276 278 278 277 277 276 275 275 276 276 286 295 298 303 306 308 308 309 311 314
289 330 325 314 311 304 295 310 314 310 307 303 302 298 293 281 277 273 273 277 275 273 274 284 265 277 269 277 279 275 276 274 274 275 274 222 185 274 274 276 278 281 284 287
341 318 308 312 308 296 312 314 304 280 285 291 278 273 277 270 281 275 274 289 267 271 271 269 268 268 262 263 229 261 260 261 261 147 261 194 262 266 266 264 265 267 268 272

GFSNW_2pvu_pres_081.txt.gz
Presure
267 263 252 250 255 240 254 233 242 228 224 226 233 249 241 230 273 259 240 286 278 294 285 301 320 326 308 307 302 304 307 310 337 288 293 280 249 256 246 240 233 225 223 224
259 266 268 267 267 259 256 245 240 237 237 252 257 267 267 244 284 294 293 287 296 290 309 329 304 303 336 326 313 281 287 303 304 304 290 291 269 249 254 243 238 233 227 221
262 265 270 260 261 258 263 265 260 247 265 264 270 266 265 279 290 284 279 289 301 318 306 316 409 388 440 442 434 337 278 278 304 304 293 290 279 266 247 251 241 239 234 231
267 264 262 260 259 252 261 265 260 257 261 264 266 279 286 287 284 280 288 307 305 292 352 414 419 438 369 439 420 447 344 269 278 304 295 286 290 277 257 249 253 242 237 236
269 265 256 259 276 255 259 251 268 267 281 282 275 272 286 274 291 304 300 294 286 324 350 384 404 430 410 423 467 405 395 324 273 283 302 307 251 289 269 252 246 243 247 240
288 276 268 264 263 268 266 275 284 284 265 268 275 273 291 297 298 296 285 282 320 344 336 373 393 409 415 418 426 392 401 350 310 270 287 298 303 263 278 265 248 243 242 247
274 277 279 280 279 278 274 274 274 274 267 267 278 286 296 290 289 276 300 310 322 331 332 377 405 400 398 408 435 410 392 333 323 285 270 290 285 289 269 267 262 255 250 245
269 272 273 277 277 271 276 276 272 276 277 281 294 290 285 280 272 303 301 312 329 316 348 357 389 382 382 396 442 397 345 315 289 283 289 273 285 301 285 279 259 254 253 253
266 263 262 270 270 268 275 277 271 285 286 282 283 281 274 269 302 286 317 340 322 306 354 366 369 369 360 388 395 332 292 299 294 287 298 273 272 283 315 279 274 259 250 248
259 257 264 266 271 272 275 280 278 280 275 276 271 268 279 297 285 321 353 321 302 345 355 352 355 348 383 398 332 311 300 293 294 286 293 290 268 273 288 310 277 266 252 245
270 270 270 273 270 276 276 274 278 273 271 265 268 299 288 284 305 318 327 303 325 365 352 341 332 328 348 373 317 302 296 293 294 299 303 330 272 267 268 294 313 276 275 255
263 262 267 263 266 235 269 254 273 265 255 292 286 288 283 298 320 345 311 317 373 353 341 329 326 318 342 351 308 306 290 286 290 298 325 303 295 263 260 265 281 308 278 276
266 264 264 262 264 265 238 266 265 258 285 282 280 285 297 332 338 321 299 410 361 344 334 324 329 338 344 343 312 300 298 295 289 295 301 309 298 275 259 259 267 303 293 275
271 276 285 285 286 241 274 280 283 280 270 285 296 298 313 317 339 297 346 323 359 345 330 322 325 328 333 336 324 325 309 305 305 305 310 335 282 295 286 265 265 291 288 269
275 272 272 272 274 277 275 278 273 266 282 306 310 307 318 340 304 331 341 396 352 340 325 322 322 331 326 330 332 172 316 321 318 315 302 302 274 282 307 276 257 281 297 277
257 276 273 270 274 276 278 280 301 285 303 314 306 315 325 317 307 352 335 401 351 340 327 320 311 307 327 344 331 335 339 328 270 275 283 285 278 291 298 271 258 275 292 288
281 283 284 281 282 280 293 307 305 304 318 310 313 322 317 304 353 341 407 403 352 340 326 324 313 305 328 329 331 359 371 309 271 280 287 287 284 288 289 285 255 269 288 289
291 295 306 293 304 306 308 313 319 313 310 315 326 301 307 359 344 416 431 383 350 341 324 316 305 309 328 324 335 351 314 273 276 281 289 284 288 286 279 289 268 254 282 276
323 324 329 327 322 317 317 317 310 306 308 325 294 340 349 405 422 416 408 361 345 352 329 314 319 328 325 322 327 300 297 281 271 275 285 280 291 298 299 289 287 261 264 288
342 334 325 319 316 315 313 304 304 304 325 291 368 347 425 429 409 372 357 349 348 325 316 325 321 323 317 323 299 291 295 291 300 284 299 284 279 287 303 293 282 289 256 268
328 321 314 318 315 307 302 306 313 307 312 360 338 438 385 368 356 341 341 340 316 318 340 322 323 315 305 296 301 300 301 303 298 309 318 300 276 286 294 296 287 284 293 267
329 322 316 311 309 306 298 319 283 359 346 335 360 337 364 349 356 329 318 329 335 335 325 319 318 313 291 310 297 302 296 291 295 294 290 290 296 298 290 289 293 289 287 290
320 313 311 308 306 312 302 286 351 348 322 358 349 343 343 336 336 339 336 340 333 315 313 285 282 277 286 286 319 313 305 298 302 295 297 299 297 302 292 288 294 293 293 292
314 311 306 299 312 275 344 349 352 330 338 335 323 313 311 317 317 304 316 295 290 146 278 293 292 292 290 286 299 289 297 297 277 277 299 299 298 296 298 299 301 302 309 313
310 304 301 302 272 326 327 321 311 311 312 309 314 313 298 301 309 302 297 292 309 303 295 251 288 284 283 284 286 287 282 283 281 286 284 287 287 285 285 287 289 290 291 293
298 311 295 308 320 320 316 298 293 285 286 294 308 307 304 294 287 286 285 283 279 275 282 275 270 271 272 274 274 274 263 275 262 275 265 275 277 277 277 276 278 284 286 287
312 272 317 316 314 294 299 295 312 311 304 298 288 286 283 281 281 274 270 280 276 276 275 256 258 266 268 267 265 263 268 264 261 261 261 262 262 263 253 264 265 269 274 275

GFSNW_2pvu_pres_084.txt.gz
Presure
282 271 267 257 257 250 255 254 244 249 242 240 252 243 236 233 239 246 228 240 250 237 243 274 275 294 293 290 309 334 334 312 306 306 334 324 301 288 261 257 240 241 237 229
268 264 256 263 264 249 253 246 250 251 243 240 250 253 257 254 255 248 265 250 264 276 275 279 294 294 298 319 318 317 308 321 297 294 307 327 308 292 264 261 244 238 238 233
260 265 253 252 254 251 246 254 255 252 252 249 258 267 260 258 264 263 268 262 270 268 290 293 286 310 319 309 343 459 409 466 380 318 282 324 336 291 271 260 253 240 240 231
271 259 263 263 248 247 258 247 252 252 240 263 260 258 261 264 263 267 271 275 286 283 285 306 318 312 324 362 457 460 470 439 434 348 282 296 306 274 292 257 256 249 241 237
269 270 265 265 267 258 255 247 247 256 264 267 258 261 259 260 257 264 285 278 279 289 313 311 298 330 356 395 434 428 430 443 445 398 306 286 317 303 284 269 248 254 248 248
262 275 268 264 264 262 260 264 250 257 262 263 268 266 275 278 286 277 277 285 304 305 297 292 333 357 338 437 427 417 410 383 399 478 314 283 302 289 304 286 255 255 263 251
293 270 269 272 270 271 267 268 267 269 261 263 273 277 278 270 277 282 292 295 292 286 287 306 355 331 389 397 395 436 410 389 404 410 318 295 271 298 287 300 280 272 257 256
283 274 272 275 279 280 280 274 276 279 273 273 276 277 274 277 286 288 289 287 278 302 303 353 328 382 393 375 378 404 410 380 378 354 330 286 265 285 282 284 289 284 267 256
266 270 271 267 268 269 269 270 269 272 269 274 273 274 282 286 284 280 274 272 305 298 355 331 314 359 388 361 378 473 395 376 330 329 315 285 273 266 287 277 280 264 273 262
267 277 276 271 267 267 266 267 267 265 266 274 280 278 279 278 278 268 285 296 295 347 338 308 371 359 380 346 393 395 330 307 304 297 279 255 276 287 266 287 288 270 287 265
254 259 260 262 258 259 260 266 266 269 271 277 277 277 272 274 260 293 288 292 338 339 311 373 351 347 353 350 340 327 303 293 292 285 282 265 287 316 294 268 288 294 285 266
264 258 257 256 261 265 268 272 273 267 261 275 270 252 272 260 293 283 282 326 347 311 391 354 334 344 334 324 297 300 296 290 284 281 273 272 275 279 286 302 275 288 319 273
262 261 262 264 264 260 258 267 271 265 224 263 254 275 269 286 282 330 328 338 323 341 372 346 328 328 347 302 284 295 287 290 286 283 278 277 282 297 289 318 270 271 303 288
266 265 269 270 269 264 261 254 257 253 280 289 287 287 279 273 315 323 321 335 299 384 366 338 328 338 340 306 295 293 298 287 290 288 285 294 290 294 290 306 278 261 269 301
255 252 254 248 255 259 263 279 281 275 274 276 277 281 302 302 326 325 340 299 356 373 354 332 320 329 338 308 300 295 293 291 283 292 299 289 297 310 303 285 305 271 263 275
270 268 267 266 270 274 275 272 268 277 275 281 289 317 319 325 324 333 302 317 347 371 347 330 319 325 321 340 305 311 304 303 293 293 295 303 301 273 283 290 295 308 260 260
256 275 276 276 278 273 253 269 276 290 283 291 319 321 324 322 333 302 315 355 334 369 342 328 324 317 315 326 341 322 316 151 307 305 295 294 265 291 277 322 287 298 278 261
269 271 271 271 262 267 278 285 282 296 306 324 327 320 311 330 306 353 388 393 427 363 334 329 315 313 306 325 329 338 351 368 321 283 306 296 281 280 278 297 285 283 298 283
271 271 280 284 280 280 288 294 322 334 331 328 319 319 310 314 356 415 406 418 404 351 337 326 319 321 306 329 323 348 311 311 317 321 269 304 278 306 292 293 281 287 293 292
276 280 269 287 292 298 323 331 328 326 322 316 324 301 354 343 416 410 394 372 344 344 332 321 311 317 327 324 311 303 294 290 290 293 277 237 280 290 288 288 290 280 281 305
309 306 313 312 322 336 331 325 318 314 311 323 300 359 425 414 369 354 351 339 343 350 331 318 326 324 315 315 294 293 292 291 290 282 273 268 268 270 272 282 284 295 304 271
326 326 326 335 336 325 318 311 310 312 305 325 432 404 374 354 350 346 339 342 329 322 330 327 319 318 321 304 293 297 299 299 298 300 309 318 318 319 318 301 293 288 292 291
351 354 343 330 321 316 306 307 310 292 345 351 379 363 356 350 342 337 330 318 329 335 318 308 271 294 302 307 286 309 294 281 282 287 304 301 291 287 278 286 286 287 289 292
336 328 326 321 308 308 308 297 322 339 372 357 348 346 335 336 333 334 339 289 295 300 312 296 292 287 285 283 296 273 273 282 296 275 274 277 283 287 289 294 297 299 299 300
335 328 311 307 305 306 297 332 338 321 347 329 329 328 327 317 308 329 310 285 301 293 300 304 300 287 268 271 276 278 280 280 278 276 273 273 274 275 275 276 277 279 282 285
317 311 305 308 294 315 330 342 326 326 322 325 320 310 308 285 300 313 303 300 291 284 284 258 282 276 271 268 267 264 263 259 260 258 259 259 259 265 267 265 263 265 265 266
312 299 308 285 324 324 318 316 309 306 293 310 309 302 294 283 284 281 285 285 270 267 269 274 260 263 265 263 261 251 250 254 257 260 263 262 264 145 258 264 266 271 276 278

GFSNW_2pvu_pres_087.txt.gz
Presure
300 302 284 275 270 265 260 263 244 243 267 242 245 249 246 240 255 237 254 245 246 243 262 248 246 254 266 265 274 276 286 294 316 295 321 322 131 308 331 315 280 269 260 247
285 282 292 265 266 257 267 258 255 253 251 237 264 266 262 257 259 247 240 241 243 241 244 255 262 269 269 269 275 285 298 306 334 349 187 298 302 303 322 310 280 270 257 246
302 284 274 274 286 267 273 274 260 247 259 260 250 241 245 247 243 246 243 245 244 252 255 275 265 269 268 289 294 287 315 203 322 352 392 384 357 291 308 300 280 263 256 245
280 290 288 271 270 262 272 271 272 266 254 254 246 244 244 239 246 252 253 259 249 262 262 259 256 285 294 289 294 329 318 340 386 503 487 406 359 301 303 319 286 266 262 248
280 266 266 262 261 260 259 254 242 245 246 244 251 243 244 251 253 250 251 274 274 273 281 284 289 281 298 318 304 332 351 428 444 473 445 414 365 329 289 321 289 271 267 252
270 258 263 262 264 262 249 253 258 250 251 254 260 253 259 252 253 254 275 264 263 266 285 277 290 315 307 295 320 362 434 446 425 421 425 411 357 305 278 302 312 276 258 263
290 268 265 258 258 270 270 263 258 260 261 259 266 257 257 256 266 273 267 280 280 281 284 298 304 295 305 310 348 404 399 443 401 394 419 447 313 316 278 296 297 282 251 253
271 294 274 266 263 259 261 264 264 265 263 268 271 271 276 280 285 278 273 279 279 291 293 291 304 307 306 337 385 376 383 425 387 384 427 438 313 299 276 289 291 301 260 255
266 263 280 291 293 296 291 277 289 281 280 286 285 278 279 276 273 273 274 282 285 295 280 310 297 354 338 378 371 396 484 387 385 379 386 364 308 318 282 308 274 289 290 263
266 265 263 268 270 272 268 263 264 271 274 271 267 269 268 270 277 278 279 281 283 269 308 291 311 338 378 350 352 378 372 352 339 347 328 287 286 295 280 273 281 280 288 285
274 270 266 264 268 267 272 272 275 269 267 261 267 273 273 272 273 278 271 277 279 302 290 353 329 379 351 333 367 320 314 307 310 300 295 271 264 283 283 262 277 275 288 290
270 271 274 269 268 263 264 263 263 262 267 268 271 266 270 274 275 262 271 284 292 286 356 335 342 356 344 344 90 301 292 294 288 286 283 278 267 263 282 277 263 261 273 286
258 261 264 263 261 256 257 260 261 264 269 268 272 273 269 263 281 297 284 285 279 335 337 314 349 357 349 320 295 295 284 287 284 283 279 284 273 270 293 276 298 272 256 276
258 256 258 264 263 261 259 260 256 266 275 261 254 265 281 276 278 282 288 299 332 346 318 326 358 343 344 308 301 303 299 293 282 288 278 279 277 270 273 303 310 317 261 274
258 258 256 259 262 264 266 265 262 254 257 262 270 285 276 277 282 293 334 335 328 330 303 361 351 332 331 306 309 300 298 287 292 283 287 288 279 280 289 281 276 274 279 303
256 259 257 258 257 254 251 260 266 263 264 280 274 265 274 300 292 334 343 324 329 304 347 364 346 320 333 301 305 309 303 293 280 289 288 293 284 284 291 281 281 290 272 289
262 256 257 260 259 262 263 267 278 282 281 248 266 285 296 312 337 339 325 333 301 347 340 359 341 329 338 315 299 307 302 300 293 293 281 286 289 279 279 290 279 257 292 299
274 282 282 280 277 273 279 279 278 266 259 276 287 298 323 342 332 330 320 347 378 435 333 355 339 330 327 331 309 305 302 297 312 295 288 293 303 314 280 286 244 265 274 303
262 257 265 271 275 277 278 277 276 285 286 293 300 341 335 324 329 327 361 414 413 427 389 342 334 329 323 323 331 332 315 312 304 296 296 286 278 296 271 236 250 277 295 298
263 263 264 270 276 272 268 284 281 296 312 337 340 333 319 311 343 419 413 421 415 392 349 332 327 322 313 324 331 315 323 328 342 364 334 289 288 285 279 348 343 289 289 290
264 266 266 262 268 275 287 286 312 326 340 340 323 317 317 347 403 378 369 358 347 347 325 329 322 318 321 324 304 309 304 300 299 304 305 307 285 289 283 276 285 290 284 286
267 270 276 283 291 286 306 320 338 337 330 321 309 350 314 362 363 353 338 339 342 347 331 319 319 321 322 305 300 299 299 300 299 293 297 298 286 292 290 294 295 296 275 276
281 281 291 301 306 320 325 338 333 323 316 327 393 392 372 359 349 347 340 338 333 327 327 319 319 309 288 283 274 273 283 275 301 284 284 284 282 298 293 297 298 301 305 305
305 307 312 329 330 341 334 327 315 309 331 364 371 355 304 336 329 324 321 332 328 317 286 291 299 312 309 305 288 295 294 312 288 287 285 284 283 281 277 277 278 278 279 282
325 338 331 346 334 327 318 313 303 344 372 362 334 323 336 332 329 333 336 313 294 298 299 290 310 299 285 276 279 277 273 271 269 268 265 264 264 264 265 265 267 268 268 268
340 360 340 327 321 313 308 309 338 358 347 336 337 334 336 316 307 311 309 307 314 296 282 279 286 278 272 267 263 255 261 251 251 254 254 260 260 263 263 266 271 272 275 277
328 323 325 317 313 303 317 339 335 291 336 336 312 331 288 288 312 297 292 280 287 282 276 267 267 256 251 250 256 258 261 259 243 249 252 252 255 258 260 263 266 263 270 286

GFSNW_2pvu_pres_090.txt.gz
Presure
303 294 278 289 280 270 291 273 283 265 261 252 254 251 256 254 255 257 259 251 256 253 256 257 243 258 252 256 261 255 259 258 272 270 273 273 285 301 305 308 336 364 330 285
300 294 269 270 267 291 288 280 265 266 264 248 258 247 246 261 251 253 255 258 240 267 266 261 261 260 250 251 251 254 257 266 288 283 271 278 295 299 321 326 316 326 326 271
292 275 283 289 302 298 278 273 270 264 259 252 260 263 248 241 243 240 249 240 260 254 247 245 248 248 250 251 252 257 263 275 279 307 308 292 307 224 324 228 306 312 312 265
304 294 300 276 275 281 277 264 256 253 255 262 250 241 240 240 241 252 237 260 249 241 246 244 246 255 253 254 255 290 289 295 303 308 208 326 308 374 378 347 295 337 297 261
278 280 289 289 291 264 269 279 249 261 254 250 249 250 264 263 263 254 252 249 244 251 250 247 253 257 264 268 281 294 303 304 332 312 305 400 408 394 386 376 329 298 306 268
277 272 274 289 284 280 274 270 264 251 252 264 258 262 263 262 262 255 252 248 247 248 246 258 264 274 277 292 290 297 312 305 320 372 452 457 485 500 438 355 329 336 302 287
276 265 258 276 268 265 263 274 268 259 256 255 250 249 248 250 252 252 251 257 262 265 270 269 283 289 292 292 306 298 312 370 405 427 418 420 424 408 384 340 310 293 295 285
271 266 277 265 265 268 258 263 258 254 250 250 250 250 250 262 262 255 253 258 265 278 281 285 275 287 293 295 307 310 396 403 408 411 390 393 412 350 341 325 296 281 294 273
275 269 262 272 266 255 259 269 252 253 263 271 252 259 259 259 261 265 271 283 279 278 279 290 295 292 283 308 357 392 410 448 427 378 370 398 408 359 322 297 284 277 306 277
282 270 259 262 281 267 264 259 259 258 256 260 265 263 272 279 272 269 270 269 272 282 286 286 278 288 294 374 377 395 379 386 382 388 395 388 329 326 295 305 279 280 279 289
277 269 265 261 262 275 289 285 278 287 285 275 266 263 267 270 264 266 273 277 279 281 281 268 305 289 343 349 351 340 332 329 327 317 314 351 310 300 292 278 279 270 276 276
277 273 263 267 264 262 263 267 266 264 263 265 273 267 260 270 271 268 278 280 271 294 294 291 290 341 358 367 328 337 318 224 304 309 318 335 304 287 278 297 270 260 271 289
285 274 271 268 268 262 261 265 269 270 262 262 263 259 261 272 273 274 268 275 287 286 289 323 343 324 355 331 323 318 322 311 300 298 295 286 295 273 272 266 273 274 256 282
270 269 272 274 272 275 273 264 265 261 261 262 257 268 275 262 254 270 289 284 280 284 309 340 338 364 333 326 314 321 316 307 300 287 289 281 269 280 275 284 281 274 278 260
262 265 266 265 260 260 260 264 262 262 259 265 266 258 257 257 276 290 270 278 288 332 340 343 323 360 334 327 317 318 313 304 294 288 289 279 279 267 262 273 281 283 284 279
257 260 257 260 259 257 259 257 268 263 255 257 271 261 266 289 289 267 282 300 351 345 329 335 310 340 327 326 313 311 304 299 300 292 288 285 278 282 275 271 271 277 267 260
256 261 256 256 261 258 257 254 262 257 262 264 271 286 289 271 269 293 305 350 341 329 334 319 301 355 329 329 303 307 308 302 291 293 287 234 286 276 272 283 294 250 279 284
258 258 264 265 256 255 258 257 257 265 271 287 281 276 263 293 297 343 349 338 335 323 333 332 379 356 325 323 314 290 297 298 305 290 297 281 294 293 288 285 284 287 252 290
260 256 258 264 266 263 268 268 274 268 275 281 281 285 285 325 347 344 336 330 412 428 432 437 375 340 328 313 320 298 305 304 305 304 284 298 297 294 285 278 290 297 252 259
264 262 258 259 280 261 264 267 271 276 275 280 278 276 344 344 336 325 348 437 418 418 429 375 347 336 329 318 316 325 317 312 312 310 274 278 277 274 260 271 245 246 294 216
265 267 265 258 265 268 270 268 266 266 278 288 327 346 338 326 342 403 396 384 383 391 357 341 340 333 323 317 324 326 332 342 356 359 362 301 300 303 304 293 303 292 287 285
272 277 272 268 270 266 264 269 277 286 299 338 345 328 323 368 389 366 357 362 359 344 339 331 319 317 315 319 315 317 313 308 309 304 304 313 318 301 273 272 273 273 293 294
274 273 275 277 271 267 270 279 288 307 346 344 323 324 397 370 352 354 353 349 334 338 323 319 312 326 313 310 296 302 272 280 284 286 286 287 294 296 301 296 289 288 285 285
274 269 274 279 275 276 280 291 319 349 337 319 343 378 365 356 343 337 330 324 319 314 321 322 317 275 285 304 276 287 302 304 297 294 287 278 273 272 273 272 271 272 271 272
281 285 289 282 285 300 310 345 346 331 317 370 369 353 337 315 329 323 319 310 303 306 312 317 323 311 286 292 282 274 271 269 266 264 262 262 263 264 263 262 259 263 271 272
291 294 294 298 310 330 346 340 324 319 377 358 332 317 322 324 329 325 294 307 306 313 313 311 294 269 271 269 256 260 262 261 260 260 255 254 260 259 258 255 268 271 266 260
297 302 317 338 340 349 331 316 321 351 357 333 340 339 343 339 303 308 316 287 302 291 281 271 271 259 260 261 262 257 249 248 256 258 259 255 257 258 252 258 260 260 261 266

GFSNW_2pvu_pres_093.txt.gz
Presure
287 280 315 321 298 281 284 291 270 264 287 285 280 299 276 273 266 259 267 266 261 260 261 261 262 252 251 245 241 262 253 254 253 246 241 260 259 257 262 264 269 283 286 329
273 276 296 329 307 300 284 282 272 258 279 269 268 277 263 260 255 241 239 248 249 247 246 248 257 260 255 257 252 251 267 275 271 260 253 252 251 251 260 269 281 226 324 320
288 295 352 313 305 285 288 260 264 271 279 274 261 249 251 247 242 245 249 245 242 247 257 253 246 243 254 243 275 265 255 255 253 253 259 254 255 263 274 299 326 317 321 353
273 285 314 319 298 293 280 279 308 294 267 254 261 252 247 250 242 246 238 242 245 241 243 235 242 255 241 268 258 251 258 255 258 267 265 267 289 273 304 329 334 351 318 321
279 281 306 296 284 276 276 272 291 280 277 253 252 257 255 253 251 252 261 249 233 239 237 252 245 238 247 254 255 264 260 253 260 267 296 312 329 325 329 322 319 305 300 306
274 283 302 297 295 285 308 277 285 275 267 256 251 241 246 248 251 242 241 242 239 238 240 250 261 262 263 256 256 260 259 265 280 315 324 333 315 380 488 480 409 415 409 298
269 315 296 277 285 294 279 270 271 270 258 254 255 247 245 243 244 240 242 244 251 256 257 259 257 254 254 255 261 276 289 309 304 321 305 336 457 423 392 428 521 394 374 282
269 301 280 280 277 294 279 274 261 262 273 265 248 264 261 260 261 256 259 259 249 248 250 252 252 268 271 274 298 295 301 303 301 391 420 424 400 371 353 392 427 362 345 290
269 288 278 266 264 276 278 277 269 262 254 261 258 260 260 256 255 250 251 250 247 256 267 262 269 288 291 288 292 295 291 317 478 457 405 402 373 351 353 379 356 328 322 290
278 290 271 268 272 268 264 262 263 268 262 259 253 250 246 248 248 251 255 265 262 266 276 287 278 277 291 293 287 288 362 401 385 371 389 384 360 341 351 354 327 305 301 289
276 293 275 266 264 273 262 264 256 255 259 260 251 250 254 262 262 261 267 276 275 272 270 277 286 287 289 292 332 357 367 354 341 336 341 338 345 324 326 336 302 293 299 300
294 291 278 265 264 260 256 263 263 262 259 260 256 262 260 264 280 270 270 269 263 277 280 279 275 293 299 322 349 349 345 335 327 318 333 357 350 305 302 325 287 280 283 272
288 281 277 272 264 259 258 270 287 268 271 271 287 287 270 263 272 267 260 271 277 277 271 281 293 287 311 395 340 337 344 327 312 315 323 322 318 301 293 289 286 274 281 283
277 280 276 267 266 260 260 261 260 261 262 263 263 271 269 260 258 260 273 274 267 264 292 285 287 286 357 343 315 319 322 325 308 304 308 300 303 295 292 291 291 293 269 286
269 269 280 274 271 266 263 265 262 260 263 266 263 255 260 264 269 269 265 262 268 295 285 279 325 351 340 325 316 311 325 304 305 297 299 289 277 272 277 283 282 278 285 285
265 260 278 271 268 264 266 269 275 272 267 269 259 262 267 268 271 263 260 293 292 274 283 302 351 337 328 350 339 316 324 296 315 299 293 299 282 283 270 280 276 253 262 283
262 261 265 270 266 268 267 262 258 256 255 265 264 258 250 255 274 292 285 283 289 306 324 355 335 338 325 313 323 323 307 309 304 297 284 285 285 282 283 269 266 281 285 291
258 266 261 262 263 263 263 261 264 259 258 254 258 266 263 273 283 283 291 295 351 361 351 343 331 329 311 308 328 323 318 301 305 308 294 277 277 274 283 289 272 266 251 263
258 260 263 261 260 258 255 255 254 259 261 265 272 268 280 279 286 291 287 362 352 343 343 368 336 331 352 350 320 319 321 313 301 302 282 284 296 285 269 273 284 289 266 257
257 256 258 258 258 256 262 263 267 268 279 267 270 274 273 259 300 359 355 346 458 428 427 436 429 343 349 341 323 308 321 318 330 318 290 270 287 267 271 300 300 269 287 279
257 259 258 260 257 260 262 260 265 273 264 271 269 267 289 323 351 339 365 408 402 415 421 388 362 334 336 331 325 312 309 330 354 285 272 273 271 280 287 279 240 232 274 255
263 260 260 260 261 256 257 260 267 266 268 265 274 287 338 346 332 396 387 388 364 352 353 344 342 336 335 338 330 334 336 320 322 334 341 335 308 290 290 299 303 332 317 287
262 262 264 264 266 265 270 271 272 265 262 277 289 358 340 324 375 380 385 355 346 340 334 334 333 330 321 325 317 294 297 303 304 304 303 309 314 317 283 287 268 265 279 281
263 260 262 267 269 268 274 272 271 273 279 291 357 337 331 366 363 354 346 339 329 324 320 319 318 319 319 289 291 275 295 294 294 293 288 280 273 273 273 272 271 270 270 274
268 268 268 267 274 275 271 277 279 286 305 356 332 379 370 353 348 329 330 319 321 319 326 317 294 294 297 293 294 281 272 269 270 270 268 264 265 264 261 260 259 257 257 260
266 267 270 274 276 280 283 290 294 315 349 327 386 355 343 333 330 328 322 333 327 305 315 297 278 301 279 270 272 272 263 257 262 264 265 259 257 256 258 259 257 254 252 252
276 276 271 273 282 283 291 300 331 345 324 377 354 340 327 336 339 327 319 320 328 328 306 283 271 270 272 262 258 264 262 256 258 257 254 256 256 252 252 254 257 253 265 251

GFSNW_2pvu_pres_096.txt.gz
Presure
299 284 281 271 286 287 285 337 314 297 300 315 267 297 298 307 300 323 274 265 273 268 272 271 268 259 261 259 247 230 219 249 252 232 253 241 246 254 254 252 263 258 260 265
288 282 276 275 266 290 275 320 297 292 288 284 267 277 278 284 301 315 273 264 263 257 250 254 261 257 257 255 259 252 253 258 253 250 254 250 246 113 238 259 262 272 273 272
292 284 280 271 278 273 273 294 310 295 287 266 258 272 269 276 279 266 253 256 253 253 257 254 252 250 251 252 252 252 248 248 248 253 258 252 246 252 275 268 265 264 268 271
283 280 277 277 274 278 344 336 306 297 277 276 270 270 257 261 262 256 255 249 249 247 243 235 242 241 240 243 248 258 251 245 247 259 246 262 272 262 260 263 264 273 273 289
275 282 276 270 269 280 326 318 290 282 260 274 288 272 255 262 251 252 241 253 241 243 235 245 239 241 250 246 252 244 238 237 254 244 248 263 267 266 266 271 276 288 298 363
269 277 277 274 280 321 307 303 300 278 273 307 284 264 252 252 242 249 253 238 237 238 234 230 237 254 244 240 246 249 245 250 259 265 268 272 273 272 279 291 332 346 338 316
268 275 265 266 270 292 294 289 277 272 294 288 271 263 255 254 243 240 240 244 240 242 249 251 253 249 242 243 250 251 262 262 262 266 268 277 297 321 327 258 329 424 495 516
267 265 264 271 273 290 291 293 292 289 281 279 264 271 251 249 255 246 246 248 243 247 249 240 239 245 246 250 265 255 262 270 274 295 307 324 319 306 399 412 403 417 464 433
258 264 263 267 303 290 279 280 285 269 264 270 265 265 252 250 241 241 241 245 244 243 245 245 242 245 259 254 255 262 267 293 314 310 321 398 420 397 368 387 406 416 372 373
262 264 266 268 296 279 269 278 277 258 264 263 260 262 260 249 244 251 246 243 248 258 262 264 266 258 258 264 276 290 304 304 307 349 389 397 416 357 364 380 355 339 344 324
264 262 262 296 274 275 264 273 278 262 260 265 262 256 261 264 259 254 259 262 247 248 250 250 255 264 285 288 278 293 294 307 361 354 373 380 349 345 362 348 329 321 312 299
257 258 259 277 278 266 268 269 269 273 273 259 257 259 264 263 259 255 250 251 253 258 271 269 285 281 275 296 284 295 307 354 326 337 344 374 337 335 342 320 305 298 296 284
255 257 257 277 269 266 265 273 258 260 267 262 257 262 262 259 255 255 253 255 266 275 276 274 270 285 290 278 287 304 349 330 318 330 331 346 323 314 327 299 299 296 282 299
256 256 263 293 271 266 259 262 263 263 264 265 265 263 259 261 263 270 282 275 269 269 265 256 282 276 268 296 286 368 338 329 319 304 307 322 308 303 312 291 291 283 284 286
256 255 280 286 274 268 259 261 258 255 263 277 279 281 282 275 267 271 271 263 258 267 280 275 272 287 290 288 346 357 325 308 312 310 294 325 299 298 291 307 285 277 277 280
257 255 279 280 280 266 266 261 261 257 261 260 263 260 260 269 266 259 257 271 274 271 267 291 289 282 302 357 344 336 320 306 304 296 289 308 289 286 286 295 301 276 285 269
252 252 270 271 271 269 263 264 260 259 265 266 265 270 268 265 267 267 266 262 268 285 287 290 294 292 357 342 332 318 323 304 299 289 285 300 295 279 286 285 284 289 289 281
251 254 258 267 276 273 272 272 266 264 267 270 259 255 250 261 264 261 272 287 285 286 291 288 366 359 341 334 330 313 319 318 302 313 282 276 291 294 280 283 277 262 267 275
254 254 259 260 273 272 268 266 269 267 258 260 262 263 257 258 279 278 277 285 276 358 371 362 348 336 330 328 321 303 311 319 325 308 276 294 288 273 293 275 263 285 293 293
253 254 255 259 258 263 265 263 260 261 258 259 259 258 268 261 275 271 271 305 369 362 459 446 451 414 325 315 307 303 335 318 320 322 294 291 267 277 293 284 263 282 272 250
254 250 252 260 264 260 254 261 260 264 262 260 266 269 270 272 273 277 328 353 424 428 421 431 435 399 361 337 341 341 326 316 324 329 331 295 274 279 267 260 265 269 268 280
259 262 264 263 262 262 262 262 256 261 260 261 261 262 269 266 280 354 343 403 393 411 411 396 367 349 340 332 333 341 335 323 338 367 359 341 297 263 265 271 275 275 297 230
256 254 257 258 265 257 260 260 260 255 255 272 275 269 258 285 351 375 399 378 357 347 349 330 326 330 338 341 331 303 303 314 324 332 327 293 317 312 313 324 337 306 279 270
257 257 260 259 259 258 260 258 259 266 276 277 277 280 286 352 389 384 371 351 341 338 332 332 333 330 327 300 296 296 294 287 293 299 304 304 298 274 267 268 268 266 262 264
259 261 261 260 263 264 264 262 265 274 277 281 289 303 350 373 377 347 343 334 332 328 326 324 326 305 295 299 270 282 262 281 276 271 274 274 269 263 260 255 251 252 252 250
261 262 261 264 260 261 267 269 274 277 286 288 310 346 371 365 347 339 328 327 325 324 325 311 296 287 285 296 273 275 273 270 265 265 263 259 255 251 249 251 258 259 247 244
267 268 265 267 267 268 269 274 276 282 289 306 343 376 360 352 334 332 331 320 321 307 305 292 297 290 279 271 276 271 265 268 260 253 248 250 256 258 246 248 251 252 253 258

GFSNW_2pvu_pres_099.txt.gz
Presure
327 333 325 328 282 295 305 308 287 287 281 288 307 302 279 280 272 285 282 281 288 280 283 271 286 288 290 291 277 272 298 268 266 263 292 274 269 238 237 207 238 252 272 249
289 302 295 299 300 300 282 286 282 281 276 286 326 288 297 308 274 279 292 283 296 306 280 277 278 270 264 273 273 270 264 264 263 256 249 265 269 271 268 239 233 253 261 256
354 338 321 310 316 286 282 284 275 265 280 278 306 292 303 280 267 279 274 279 313 279 272 264 259 258 261 258 259 253 250 249 249 253 249 247 245 244 250 261 262 261 253 256
346 329 318 307 296 289 285 282 273 271 270 272 305 294 285 270 281 272 276 284 289 274 259 257 258 250 253 248 249 250 250 251 249 252 253 252 254 249 252 252 257 258 261 259
343 321 306 295 286 284 285 278 275 273 344 326 307 285 275 261 270 268 275 260 261 250 253 248 249 250 240 244 250 251 245 243 245 246 246 243 243 252 255 193 255 263 257 264
328 314 295 284 281 286 280 276 275 277 335 313 296 293 280 272 266 267 255 261 252 243 252 249 249 250 236 232 241 242 238 239 245 253 256 259 252 247 252 255 264 287 281 284
309 295 282 278 274 281 280 267 272 311 303 295 281 271 273 271 258 263 251 252 243 254 242 248 241 239 244 239 231 234 241 255 251 246 247 251 255 259 270 285 283 198 298 336
303 289 279 270 270 271 273 269 312 308 295 288 273 256 298 276 263 254 261 243 243 243 246 237 235 239 237 239 242 249 248 244 245 249 253 259 272 275 280 293 333 327 310 436
294 279 273 273 269 273 263 275 303 285 281 276 292 295 281 273 263 254 248 247 247 238 241 247 243 239 243 247 248 246 250 248 250 255 265 286 303 329 318 327 399 413 419 382
285 279 271 268 268 261 267 276 297 288 281 287 285 280 268 266 260 252 252 249 246 246 244 243 244 246 240 244 249 254 257 268 276 285 319 305 364 431 399 383 367 351 350 366
281 275 268 265 262 264 278 289 278 293 278 272 280 274 267 272 267 250 250 246 242 242 246 245 242 245 244 260 260 261 264 278 304 302 311 346 397 371 368 331 324 320 321 326
276 266 265 260 262 280 280 275 269 289 264 257 259 261 258 253 253 256 252 247 241 242 242 254 257 265 260 257 261 282 287 282 295 310 368 380 360 360 326 311 317 315 307 300
266 263 257 258 264 286 277 269 270 274 270 256 265 253 249 257 257 257 259 258 260 259 258 263 255 257 259 282 282 271 290 288 292 350 344 373 335 349 316 302 297 303 288 292
265 256 258 261 288 277 272 265 261 270 275 263 255 258 262 260 255 254 262 262 257 254 255 257 274 285 279 274 276 288 268 293 338 335 326 355 328 326 302 301 297 292 286 282
256 257 259 259 273 269 275 261 266 262 260 259 256 259 260 260 255 258 257 256 258 268 281 271 274 270 261 285 281 296 290 361 333 315 312 325 318 314 296 288 290 284 290 275
257 257 259 256 276 269 265 260 262 267 266 255 260 262 268 266 265 270 275 270 265 271 266 264 257 281 277 289 295 299 313 343 320 302 302 317 304 314 292 282 289 282 284 279
257 256 256 255 287 275 267 260 259 256 260 256 254 257 257 258 261 258 263 269 267 266 269 274 271 281 289 293 293 306 349 341 314 296 291 309 303 287 307 280 290 274 283 276
256 255 254 256 286 279 272 267 263 260 259 258 259 258 261 261 269 267 264 264 256 265 280 287 291 285 292 347 362 352 334 331 319 299 285 282 288 297 286 290 293 280 272 284
256 256 254 254 277 277 276 269 265 264 261 257 259 263 267 268 262 256 252 267 284 289 287 283 287 371 362 358 351 339 327 321 331 317 285 277 283 293 280 283 281 295 291 258
255 254 251 255 269 270 269 265 265 265 269 264 264 265 257 258 263 268 265 281 284 283 310 463 480 472 360 340 342 330 327 311 322 322 305 287 275 277 284 267 279 271 248 280
255 250 250 253 258 263 274 271 268 264 264 264 262 258 262 271 273 276 274 284 287 392 446 441 433 439 427 335 325 320 312 294 310 319 318 298 280 275 279 277 281 280 268 252
256 252 254 254 258 259 258 263 264 261 259 255 261 265 267 268 270 277 281 303 426 422 429 428 428 397 386 339 314 321 338 336 331 326 332 326 307 287 286 263 274 277 279 274
255 252 256 255 254 256 259 259 256 259 263 266 265 262 265 280 280 277 354 407 409 376 373 363 358 354 348 350 341 328 322 326 333 342 353 336 337 270 298 285 284 287 259 285
255 255 251 253 250 249 251 260 267 268 259 263 262 269 274 283 292 359 382 367 359 347 340 333 336 336 331 323 319 321 322 325 329 300 337 334 328 328 325 297 280 270 262 262
256 256 256 256 261 264 261 258 257 258 263 263 270 277 282 299 357 394 380 351 341 333 327 332 329 318 310 308 296 301 304 302 305 305 302 296 285 271 263 262 259 259 257 252
262 258 256 260 260 262 260 259 263 266 266 269 276 286 299 354 388 358 345 343 333 331 331 320 306 308 297 287 293 279 278 275 276 275 269 265 264 260 258 254 250 253 261 255
258 257 257 256 257 260 261 261 258 267 274 277 278 296 356 381 361 344 340 333 330 332 315 300 298 287 275 286 272 275 272 269 267 261 259 259 257 247 249 258 241 251 249 239

GFSNW_2pvu_pres_102.txt.gz
Presure
290 283 264 267 276 263 258 265 276 275 299 335 339 311 317 297 288 288 301 282 291 280 296 292 296 281 272 276 276 288 295 287 290 292 296 318 304 297 291 235 266 260 257 251
347 296 288 289 284 282 280 290 327 337 328 296 277 308 286 284 287 313 304 298 288 284 298 305 308 274 275 267 267 279 279 271 276 275 276 274 278 282 281 277 272 264 259 255
302 390 375 369 356 345 327 289 262 259 278 308 295 286 279 274 285 309 295 310 281 277 278 294 294 270 267 266 268 266 270 270 271 269 264 266 268 261 263 263 273 270 268 266
421 420 404 370 365 347 322 320 299 303 305 295 279 278 276 272 300 314 300 293 273 271 279 309 277 269 266 263 260 262 266 264 263 261 256 253 252 254 253 249 251 254 254 249
415 392 374 372 363 353 327 316 303 302 297 282 278 273 266 279 281 303 286 283 273 280 299 282 267 263 263 260 256 261 255 255 249 246 246 247 247 249 250 252 251 250 251 256
372 372 358 356 343 331 313 301 297 288 278 280 278 271 270 272 291 281 271 272 267 282 274 264 260 254 258 250 246 251 247 242 245 246 247 249 250 250 250 251 251 253 249 253
381 355 356 340 330 312 301 291 286 280 279 276 275 275 322 305 293 277 272 267 276 264 265 257 249 247 243 243 249 242 239 236 239 245 245 237 241 250 254 259 253 257 255 260
352 347 333 328 309 297 290 286 274 278 270 272 269 321 300 287 281 273 271 271 269 255 254 248 242 247 248 250 246 237 233 246 236 237 237 243 255 252 253 257 265 272 282 295
348 335 326 309 297 292 282 277 276 267 272 282 310 296 286 269 287 278 255 266 256 246 249 237 250 240 241 235 232 234 241 239 238 247 257 253 257 259 268 281 294 335 308 312
333 321 310 297 284 268 265 270 276 267 280 308 289 282 277 284 257 249 267 257 251 255 247 236 237 241 245 238 241 242 244 244 251 250 255 267 276 281 303 312 410 396 381 368
325 309 295 281 284 271 256 262 269 262 291 290 283 279 277 286 276 269 262 254 251 252 251 246 243 241 241 239 246 246 250 251 250 263 271 283 300 293 374 385 357 348 324 311
313 294 293 280 266 262 265 267 259 287 273 280 268 262 274 279 266 264 258 257 250 252 245 245 248 247 247 248 250 248 248 264 272 275 300 278 301 370 361 337 317 309 306 303
298 279 270 268 264 265 259 259 280 284 286 282 278 276 275 271 262 253 265 265 252 243 241 245 248 247 244 246 253 258 265 269 295 285 282 301 328 352 332 315 296 288 293 296
281 273 270 265 264 260 259 266 279 279 279 267 264 263 263 263 256 253 252 250 253 256 255 257 260 261 262 261 263 267 288 279 280 278 292 368 350 321 302 294 286 293 281 293
279 276 266 260 261 259 279 275 268 273 275 266 254 257 255 254 252 249 257 259 257 255 253 259 264 262 264 277 284 280 267 279 273 294 351 365 341 295 300 283 283 286 284 280
275 267 259 259 258 271 278 268 263 261 264 266 262 254 255 256 258 262 255 258 262 262 261 262 271 279 274 277 266 278 271 280 291 298 335 319 328 311 286 283 283 282 283 276
268 257 258 256 260 278 269 267 260 258 255 262 264 264 262 257 260 265 266 265 270 275 270 265 272 274 270 271 275 273 288 287 287 336 323 317 304 304 288 275 280 284 268 277
263 257 256 259 257 265 269 269 254 257 261 263 261 253 253 259 260 261 259 262 264 264 270 270 266 264 269 282 289 288 281 349 347 321 318 329 299 305 296 281 280 265 279 270
257 256 256 259 279 269 267 263 258 259 258 256 260 258 253 256 259 264 265 272 274 273 260 262 266 283 287 286 284 299 372 355 338 320 308 299 304 290 284 277 286 277 272 266
255 255 254 255 261 272 271 262 258 260 261 259 262 260 259 257 265 268 270 265 264 265 282 283 285 282 295 422 363 361 363 341 330 316 303 295 285 292 297 291 286 273 271 283
255 256 257 253 262 277 278 277 275 272 263 264 265 264 266 267 271 264 263 261 269 285 296 308 467 459 474 443 370 350 351 334 319 324 305 295 287 284 284 289 260 276 283 274
256 254 255 254 265 272 275 270 265 265 261 264 268 267 267 263 258 256 271 276 291 289 440 437 428 440 435 407 351 346 333 329 317 334 297 290 290 283 274 279 282 282 270 257
255 255 256 252 269 261 260 265 269 267 268 266 266 260 253 257 268 272 278 290 357 428 411 400 392 395 391 342 325 323 316 310 290 287 323 319 296 275 286 281 288 266 270 270
255 255 248 247 250 256 257 254 260 258 257 252 248 256 261 264 265 279 293 399 384 375 365 358 356 355 331 318 310 317 343 333 326 332 330 337 330 294 300 303 278 281 308 279
255 255 249 252 255 256 256 257 257 255 255 258 266 262 262 268 279 290 403 379 356 342 338 335 335 332 332 330 328 331 329 327 327 342 370 367 342 315 302 309 283 271 263 258
256 255 254 254 255 253 251 250 249 254 263 251 260 266 267 278 283 405 370 355 341 337 335 329 322 321 324 321 316 313 311 312 318 325 325 311 293 282 269 262 260 252 246 245
257 255 254 254 251 253 252 256 262 261 258 264 264 265 279 288 400 388 345 340 338 339 331 319 312 309 309 307 307 303 296 288 285 280 275 270 262 262 252 246 251 259 247 242

GFSNW_2pvu_pres_105.txt.gz
Presure
295 280 296 283 285 276 265 264 255 264 266 264 260 274 272 253 249 252 267 257 346 324 308 292 281 287 291 286 285 282 272 276 280 292 304 303 278 268 265 269 268 264 252 248
297 286 300 287 287 279 284 282 284 280 279 284 283 268 273 263 256 282 334 332 314 301 286 305 297 289 287 297 286 272 264 272 274 278 286 288 301 271 261 254 256 250 239 243
434 388 378 404 357 329 318 319 309 283 284 290 273 270 284 273 300 329 291 281 292 284 276 306 307 284 295 289 291 275 265 271 270 270 277 279 282 296 267 254 242 242 247 256
413 285 372 364 207 304 367 342 335 331 321 316 315 323 326 329 276 265 285 286 283 284 298 290 291 278 276 282 286 271 266 266 275 276 276 277 273 277 280 284 293 294 298 294
371 364 354 369 373 377 384 395 272 280 320 327 321 311 317 266 257 297 281 282 274 336 308 310 281 271 273 287 278 266 265 270 264 271 271 267 264 262 263 261 260 259 257 259
351 344 364 360 373 385 384 372 356 314 293 278 315 308 294 297 296 276 280 271 266 314 292 274 270 277 295 282 260 263 271 258 258 262 259 258 257 254 253 253 251 251 249 252
362 353 356 421 385 372 357 349 346 343 330 312 298 300 297 291 277 275 269 267 289 287 279 265 282 286 266 257 254 264 253 259 257 252 246 246 248 249 250 249 249 249 249 251
321 354 376 367 353 345 338 336 331 323 312 302 296 291 287 277 272 274 265 293 282 272 261 270 269 264 255 257 255 248 246 246 246 245 242 238 238 243 247 246 240 240 242 258
307 363 353 344 338 332 326 321 317 299 293 290 286 278 274 272 266 318 299 281 281 266 255 261 256 256 251 244 247 247 241 242 243 242 231 237 252 243 245 249 255 269 273 280
321 351 341 330 327 320 314 306 293 287 281 278 275 272 271 265 298 293 279 275 273 260 265 260 257 250 238 246 242 245 245 245 237 235 239 246 252 250 260 263 281 296 328 378
350 340 332 323 316 311 299 290 282 278 274 271 266 267 261 297 289 281 279 279 272 263 255 254 247 250 241 241 247 245 243 242 242 246 250 252 259 261 274 292 313 371 361 353
338 324 315 313 309 296 286 277 274 267 269 268 258 282 284 277 278 284 275 254 244 258 256 248 249 248 250 238 240 246 245 243 247 253 254 262 273 288 298 302 358 338 332 321
324 317 311 307 293 285 277 272 262 270 264 261 300 279 276 270 281 280 258 257 259 256 248 243 248 252 248 248 252 252 253 253 254 260 273 274 291 292 307 353 331 320 309 296
314 310 306 293 280 272 267 258 256 259 260 278 285 274 276 276 273 266 264 257 259 258 255 252 248 250 249 248 248 251 253 261 270 271 288 281 286 304 353 320 308 295 288 283
308 301 287 282 280 268 256 257 258 256 278 272 276 258 268 268 271 267 259 256 249 257 262 261 257 254 251 257 258 267 267 265 269 290 277 275 299 350 331 295 294 282 282 282
290 288 286 268 256 256 261 255 252 280 280 270 271 270 263 261 264 263 258 257 255 254 251 251 255 261 262 259 266 270 267 285 276 274 270 285 295 328 313 290 283 272 275 280
283 277 268 259 256 258 254 251 271 270 269 261 258 263 257 252 252 255 255 251 253 258 260 259 260 262 262 260 272 282 280 272 266 269 287 281 356 321 307 283 285 270 276 276
273 267 264 258 257 254 254 276 266 267 269 265 262 259 255 252 252 254 253 258 266 263 262 263 271 273 274 267 281 278 269 277 285 285 275 303 333 309 302 287 280 274 267 270
269 266 258 256 256 256 261 271 265 263 259 262 264 262 261 263 264 255 253 261 266 266 263 265 265 276 286 273 270 275 281 285 280 273 300 336 317 307 295 295 280 279 270 270
267 264 258 252 255 271 272 263 262 259 257 258 257 258 256 254 257 256 255 257 263 267 275 281 276 273 278 279 282 283 287 279 279 378 335 315 330 309 295 291 281 281 272 263
263 255 253 254 256 275 267 265 261 254 252 256 257 257 256 260 258 259 262 267 275 275 277 264 276 284 291 297 291 331 323 376 368 363 323 312 310 296 303 289 273 279 273 274
256 253 255 254 282 276 264 263 261 261 259 261 258 259 262 265 268 270 274 275 270 262 273 291 304 420 463 466 464 418 380 360 355 348 313 303 298 300 296 289 286 283 278 262
255 253 255 253 256 263 266 265 267 268 271 272 267 265 266 271 272 271 264 260 258 282 301 409 401 428 433 435 431 377 352 351 343 334 310 303 295 290 285 289 284 295 279 297
253 252 251 250 250 271 279 283 276 270 267 267 266 268 270 269 263 263 256 268 286 308 393 371 375 387 389 362 346 343 343 339 326 322 320 301 279 291 275 274 258 276 294 265
253 253 250 251 253 264 265 268 269 270 270 271 266 257 258 263 265 270 274 286 357 367 348 354 344 332 324 320 320 317 322 323 319 310 294 283 295 289 290 299 291 278 281 283
255 255 253 252 251 263 263 263 261 262 259 259 259 260 257 261 259 272 287 365 356 357 337 339 328 323 318 313 312 314 332 331 326 327 330 322 334 330 308 286 290 277 264 260
253 252 255 255 250 251 254 257 257 256 254 252 255 250 258 268 274 282 392 357 344 329 326 327 320 320 322 324 323 317 318 321 327 337 357 390 356 353 295 274 264 255 250 250

GFSNW_2pvu_pres_108.txt.gz
Presure
251 264 263 252 254 258 250 247 247 251 246 241 250 246 245 245 240 245 250 254 255 261 256 259 262 261 278 251 318 292 287 280 288 293 286 281 283 286 281 300 274 275 260 250
311 310 263 305 296 323 284 287 295 278 261 268 283 284 276 278 267 269 266 263 263 255 261 275 277 278 256 319 293 278 278 269 283 287 282 275 284 273 289 269 289 270 274 252
332 384 336 277 290 296 290 292 301 302 293 291 281 273 270 270 273 277 273 267 267 271 281 276 296 316 305 287 278 279 275 280 284 295 287 270 268 271 282 278 281 295 266 276
424 425 431 421 423 394 351 361 350 358 304 284 272 281 285 279 271 272 268 277 282 276 283 306 293 276 287 274 287 290 281 280 276 294 281 272 274 270 273 279 273 274 281 263
466 457 437 393 221 358 357 371 296 381 410 344 334 321 320 337 328 323 323 316 313 318 312 272 271 279 275 264 282 274 277 273 272 285 272 270 277 270 270 266 269 271 274 287
387 424 391 366 169 358 291 163 169 371 374 386 355 337 326 318 312 317 306 311 310 296 258 290 271 274 278 295 295 283 273 271 283 270 266 270 266 266 265 264 262 259 259 267
364 380 361 349 342 247 137 357 358 363 364 372 342 348 333 301 272 316 310 300 280 247 283 273 269 292 301 279 275 271 285 282 272 264 268 259 252 253 251 251 249 249 251 252
330 359 351 351 348 343 352 358 347 345 347 355 344 325 322 260 287 305 295 286 289 276 264 284 277 285 276 270 280 286 272 264 259 256 248 258 248 246 240 244 243 244 245 248
319 334 338 333 353 345 365 362 353 343 333 333 327 321 316 303 299 301 282 291 272 262 269 272 279 268 271 284 271 263 257 253 245 243 241 239 244 242 240 239 234 241 246 249
309 317 314 333 352 366 358 345 331 325 318 314 312 308 296 299 291 283 284 272 266 265 269 279 267 264 265 260 258 251 245 247 242 242 239 241 241 242 243 231 236 245 254 253
308 308 310 363 348 338 328 321 316 313 311 309 294 292 285 282 282 276 271 269 268 278 279 273 258 258 258 253 250 247 237 239 236 241 244 244 243 243 239 247 253 261 276 310
319 308 360 338 330 326 320 314 309 308 299 285 283 279 276 271 268 269 268 266 296 282 272 263 258 249 252 252 249 242 235 243 248 246 245 245 251 245 253 258 276 302 302 350
298 354 337 323 316 310 310 303 292 284 279 279 274 270 269 268 264 264 263 287 280 280 267 259 255 253 248 251 246 246 246 239 239 244 250 252 258 263 270 291 292 313 328 330
346 332 324 321 309 302 290 284 280 277 272 267 266 265 261 272 281 276 276 266 280 276 262 254 251 257 249 246 248 247 250 249 246 251 253 257 270 275 287 283 329 333 316 308
339 326 315 300 296 285 283 277 273 268 267 267 264 261 277 274 274 269 277 273 257 246 251 251 251 250 247 243 245 247 246 247 248 254 261 266 276 289 276 295 336 313 299 285
325 312 304 293 284 280 274 267 266 260 263 264 290 290 274 272 271 270 271 262 262 260 260 254 254 253 249 249 248 250 253 259 263 265 271 276 282 270 290 284 320 299 289 275
308 300 289 283 279 271 266 262 255 256 261 266 273 282 272 259 268 262 258 260 257 255 250 246 251 257 259 257 253 255 262 262 261 269 274 279 268 280 279 275 297 294 287 273
296 292 286 278 266 264 259 261 260 256 265 267 275 263 260 271 264 259 263 264 259 256 254 255 251 251 255 260 264 259 263 265 274 271 276 270 279 289 274 319 294 285 279 271
297 285 271 271 266 261 257 256 253 266 279 271 268 261 265 258 255 255 252 254 254 256 254 254 258 266 267 266 272 274 274 269 279 267 268 275 279 272 272 326 296 283 276 271
278 268 272 263 256 259 255 251 267 270 267 260 259 253 255 253 252 252 255 252 254 258 257 260 264 266 266 269 272 280 286 286 275 275 273 270 271 267 327 322 292 285 271 273
279 267 260 257 256 253 251 271 266 264 259 260 259 257 261 257 257 261 264 260 252 257 262 260 267 272 280 288 277 278 277 277 276 277 277 273 269 309 312 310 295 286 273 269
267 265 260 260 255 254 255 271 264 262 259 258 260 261 260 261 258 261 261 261 259 262 268 274 283 281 282 287 294 302 306 305 297 290 283 285 336 331 314 301 287 287 282 270
266 262 261 256 251 251 271 267 257 258 258 253 255 257 256 254 255 255 261 266 272 279 274 269 279 288 415 450 472 459 449 432 395 371 355 357 321 311 321 298 288 286 287 281
259 256 248 248 250 267 266 265 264 262 260 262 257 256 255 263 267 266 271 278 268 264 273 281 371 393 402 416 425 428 414 381 360 352 343 329 309 302 299 309 287 292 283 280
258 249 247 252 262 275 271 264 258 258 261 263 266 272 273 269 270 271 265 270 273 270 284 371 370 362 348 353 362 359 351 347 342 336 343 316 302 296 288 289 294 302 248 258
252 250 251 256 254 265 270 269 271 274 275 273 270 269 271 265 261 261 260 263 272 287 365 364 352 332 331 330 333 331 339 337 332 334 332 318 302 296 296 286 295 288 273 280
251 252 251 254 251 248 260 269 272 271 270 266 259 257 260 260 259 259 263 272 288 360 354 342 329 335 325 316 312 310 308 315 321 319 319 282 280 300 301 292 292 298 299 281

GFSNW_2pvu_pres_111.txt.gz
Presure
265 261 256 258 260 254 257 247 253 242 229 231 229 237 229 238 243 236 243 248 240 233 232 243 242 250 245 252 273 270 268 272 265 286 296 293 286 276 290 281 282 288 291 290
301 302 293 281 270 273 264 270 256 254 262 260 255 259 251 247 254 245 243 246 250 254 253 253 253 260 274 277 260 264 266 268 272 321 299 283 284 277 293 288 276 274 284 297
278 277 292 297 295 287 287 291 294 288 278 302 290 285 277 246 255 254 245 247 260 282 269 281 283 275 268 271 269 272 289 274 309 307 279 278 276 286 306 286 274 265 275 290
294 292 294 280 273 271 279 272 289 284 295 293 286 294 297 290 293 296 294 296 290 291 285 271 279 277 276 270 261 282 291 303 281 277 293 284 278 277 301 283 267 271 272 284
393 396 398 374 399 389 393 136 351 378 361 382 350 373 356 290 285 271 270 277 271 271 268 271 262 265 320 304 291 309 283 270 274 296 289 280 282 288 280 268 277 273 276 276
373 377 379 382 381 377 379 217 371 374 217 377 380 402 393 385 347 334 327 328 321 310 287 316 322 313 305 302 299 269 273 276 267 281 278 277 277 280 265 267 266 266 267 263
371 375 357 356 397 440 383 266 365 359 339 170 340 365 374 384 364 315 340 331 316 315 313 314 308 296 307 285 259 277 273 268 277 294 274 279 278 264 262 258 255 251 253 252
342 336 335 339 426 372 356 349 347 267 366 209 352 369 382 362 345 345 312 336 325 313 308 298 304 289 271 261 275 272 311 300 280 272 291 277 259 255 256 251 247 247 244 242
323 321 326 334 357 343 345 341 337 194 136 352 348 348 359 339 333 333 329 320 301 306 296 290 272 258 275 268 301 299 284 276 290 279 264 256 244 250 244 246 243 241 242 241
315 310 319 354 349 343 344 339 336 347 341 327 343 346 329 321 320 323 327 293 278 296 274 269 282 271 261 287 278 269 284 282 265 259 255 246 244 241 243 241 238 242 243 243
309 311 318 352 340 342 342 343 340 333 323 311 327 324 317 310 307 310 291 265 274 282 280 279 272 284 280 273 269 280 262 257 247 248 246 237 243 241 238 241 243 242 244 245
304 303 310 310 345 331 351 397 340 324 319 315 312 308 308 302 323 286 273 284 282 280 275 268 263 281 268 264 268 258 256 251 242 240 242 243 240 239 236 243 243 248 254 262
303 306 304 339 346 344 334 331 324 323 315 307 307 308 295 289 285 283 279 277 277 269 261 267 277 272 263 259 253 248 246 247 244 240 238 239 240 243 242 248 253 265 279 295
306 294 340 345 330 323 320 321 317 311 308 296 293 286 278 276 276 275 273 268 266 261 278 283 277 270 259 253 250 247 242 246 243 242 244 246 247 247 246 257 265 283 291 311
295 344 345 325 320 317 313 312 301 295 285 280 276 276 274 271 267 265 262 260 289 287 281 274 264 266 255 247 247 241 243 244 242 244 245 248 245 247 258 268 283 281 292 327
355 342 326 319 314 306 299 289 285 280 278 276 272 270 269 269 272 282 281 267 276 269 279 272 263 261 254 248 250 250 242 243 243 241 244 245 255 263 269 278 272 292 288 310
332 322 311 303 298 291 283 278 272 270 268 266 267 259 271 267 268 271 268 271 279 266 262 258 254 251 252 250 248 250 246 246 247 250 259 256 261 267 275 270 280 282 275 303
319 303 296 294 283 279 271 267 267 267 266 266 279 287 276 268 264 265 269 272 267 261 260 258 260 256 252 249 247 252 255 256 254 255 259 261 269 272 276 262 274 276 271 299
297 296 292 281 274 271 265 267 264 262 263 269 274 279 264 267 265 263 259 259 256 259 253 254 252 251 249 258 258 254 252 255 260 264 267 273 269 278 259 268 273 268 273 295
295 292 282 273 270 267 266 262 258 263 257 261 264 276 264 257 264 264 257 257 259 257 259 258 257 256 253 254 256 260 265 270 272 269 267 274 280 261 268 269 267 262 304 288
290 280 273 272 267 262 255 255 257 252 268 275 274 266 263 263 262 262 258 254 250 252 256 252 253 255 258 261 265 267 269 272 276 280 282 280 267 270 269 269 273 261 312 287
277 275 267 261 258 255 253 253 255 270 266 262 260 258 252 256 252 250 252 251 253 253 256 256 258 263 266 270 275 279 284 282 280 279 271 274 274 275 275 271 264 265 311 296
276 270 268 262 250 252 250 248 266 266 262 262 256 257 255 254 256 254 259 257 260 262 263 265 270 278 283 277 280 294 305 447 428 320 306 298 290 285 274 270 275 317 303 298
268 258 253 253 253 250 252 260 261 260 263 259 260 261 259 256 256 254 256 257 260 266 273 280 280 277 285 303 419 461 455 446 439 423 401 380 368 353 336 330 317 302 296 289
260 256 251 254 250 249 253 257 262 260 259 257 257 252 249 251 255 258 263 271 272 272 267 273 279 325 362 356 366 391 405 407 401 384 369 355 340 336 315 313 326 300 290 288
258 257 257 246 249 252 256 259 262 263 259 257 261 257 252 261 270 272 272 269 265 266 269 276 330 366 340 329 352 346 355 362 358 351 345 331 343 313 304 304 304 314 291 281
258 259 252 249 254 255 271 262 257 258 257 256 258 264 271 270 271 267 262 262 259 269 287 359 351 338 346 326 312 328 345 337 335 336 324 330 330 303 299 298 297 294 296 292

GFSNW_2pvu_pres_114.txt.gz
Presure
253 253 250 241 238 231 231 232 231 233 231 235 233 237 239 240 246 229 228 238 236 230 226 227 236 223 237 236 235 235 250 243 250 252 282 291 272 266 273 276 284 305 290 291
249 272 258 257 254 255 255 252 253 254 253 244 244 245 248 253 248 247 248 249 247 243 245 248 250 245 241 250 257 257 258 261 263 288 279 280 274 265 271 310 304 296 282 299
291 288 294 284 279 285 274 271 267 268 263 275 260 252 258 255 246 247 250 258 258 258 262 267 268 278 284 285 282 265 287 294 289 271 270 278 268 281 304 307 294 282 288 305
297 295 299 287 278 271 293 294 301 292 278 283 230 282 291 301 292 288 282 280 275 276 270 284 300 296 297 294 290 287 266 260 274 254 259 269 281 304 293 283 292 284 293 295
346 363 334 292 287 291 288 276 277 269 291 298 287 276 276 286 288 279 284 280 280 282 276 282 271 273 267 260 262 267 271 267 270 267 286 281 305 282 268 298 285 285 287 271
356 360 366 363 346 325 324 303 294 301 244 289 268 304 285 283 280 279 279 276 271 272 283 269 266 272 288 288 284 294 287 280 284 293 291 293 269 275 289 281 272 292 275 265
347 345 346 360 382 384 372 362 352 345 353 228 356 345 340 352 309 390 394 350 357 332 328 326 321 318 315 310 305 295 291 298 297 302 290 276 279 277 278 272 284 275 263 262
358 357 355 352 359 365 367 364 366 366 365 319 139 315 189 276 357 341 385 369 361 372 346 358 335 320 307 304 302 300 297 301 298 269 276 266 287 284 267 283 270 260 259 253
352 352 350 347 345 351 362 363 361 358 372 376 347 344 171 147 160 369 362 329 347 354 338 314 334 320 301 303 296 300 298 287 260 272 266 292 269 281 278 268 257 256 254 251
348 354 364 362 343 335 333 328 347 359 378 346 331 325 325 142 370 369 333 324 317 331 321 319 307 300 297 295 299 287 272 273 281 317 285 284 269 271 259 249 253 245 246 244
351 337 328 323 322 326 323 354 352 349 346 335 333 339 210 264 362 349 327 326 307 305 299 297 292 298 301 291 274 272 275 299 277 286 266 257 258 254 254 245 243 244 244 243
316 317 316 313 318 374 359 350 349 332 328 333 317 318 326 335 332 323 316 311 293 292 291 288 293 295 279 266 270 296 278 269 288 264 258 258 256 252 244 244 244 242 239 245
306 303 307 367 354 341 338 338 319 320 323 314 298 319 318 316 308 310 304 290 288 290 285 294 265 280 272 277 269 275 271 274 260 252 253 249 244 244 244 244 244 243 242 250
304 296 306 314 341 321 320 328 327 323 323 313 322 307 303 293 299 283 288 287 280 268 260 268 283 268 261 269 272 263 263 260 256 253 251 247 245 240 239 240 245 248 247 258
297 299 305 336 321 334 355 385 342 332 319 311 310 306 305 298 284 279 285 275 275 280 278 275 264 255 269 265 261 259 259 251 249 247 246 244 243 246 246 250 246 250 261 278
306 296 329 334 332 331 333 337 323 310 309 310 293 286 282 284 284 277 278 274 272 270 265 258 278 273 270 258 258 257 255 253 247 244 245 246 248 246 246 245 256 260 270 278
293 336 336 327 319 321 312 298 304 296 291 282 277 279 277 274 272 270 269 269 265 267 284 286 271 265 266 259 253 261 248 251 245 246 244 245 246 245 248 259 257 265 276 267
343 333 318 314 311 301 295 288 281 280 279 276 274 271 267 266 267 270 271 276 274 274 269 267 271 259 256 261 262 258 252 253 252 248 249 248 247 252 258 256 262 271 271 261
326 312 310 312 294 285 282 278 276 275 271 267 266 269 275 275 270 266 266 267 274 269 267 267 270 269 266 259 254 254 252 252 250 249 253 258 257 256 257 264 272 271 268 261
314 311 302 290 281 279 278 271 266 267 266 269 263 273 266 269 263 259 263 272 271 269 262 256 255 257 260 259 257 255 251 251 258 262 256 255 257 264 271 265 265 278 260 268
306 289 282 280 276 275 268 264 262 267 281 292 278 266 260 262 263 262 263 262 262 258 257 259 256 256 254 254 254 256 261 258 258 258 262 265 266 264 268 273 276 270 262 268
286 283 280 271 268 264 261 256 266 262 263 268 272 274 270 258 260 274 261 260 260 258 258 257 260 258 258 258 260 262 263 265 267 269 269 268 270 272 276 275 265 261 263 263
281 275 270 264 259 259 256 263 256 262 260 265 274 264 263 264 264 262 259 256 254 253 253 254 258 261 265 269 273 275 280 283 286 289 283 276 275 271 266 262 260 265 265 270
271 266 258 260 260 255 256 253 254 271 274 267 267 264 253 255 252 253 253 254 258 258 262 265 265 267 276 281 278 284 295 330 489 474 452 430 349 305 285 279 275 280 278 270
266 265 260 258 254 254 252 254 269 265 262 262 260 258 258 258 257 259 255 259 261 262 268 277 279 268 274 284 322 369 373 443 450 440 426 406 400 389 368 346 319 304 300 306
260 261 260 256 253 252 252 259 263 260 261 260 257 254 257 254 251 252 257 261 275 279 273 266 268 280 303 366 347 340 366 381 404 405 392 381 373 362 354 343 331 325 318 319
268 261 256 255 253 254 255 259 261 258 260 256 260 257 259 259 258 267 277 276 269 263 264 257 290 363 351 343 335 324 331 343 351 362 357 350 343 335 323 322 325 314 320 304

GFSNW_2pvu_pres_117.txt.gz
Presure
255 251 245 244 243 232 229 226 225 222 219 215 218 219 215 213 209 212 213 216 222 228 222 226 231 233 236 234 231 232 240 240 233 238 240 242 239 252 289 287 283 305 292 281
295 271 257 255 237 243 245 241 236 229 227 228 229 224 226 222 221 223 227 228 227 226 230 233 239 241 242 245 246 247 251 250 255 264 259 269 272 290 285 290 294 286 281 281
304 286 292 278 265 263 249 245 254 251 249 247 242 241 243 240 239 242 244 246 248 254 260 252 249 248 253 256 258 264 262 265 250 269 288 300 293 284 271 267 289 263 288 283
325 311 284 293 289 274 271 270 273 262 252 260 259 254 256 263 264 263 256 260 260 265 258 263 266 261 264 271 286 283 282 282 281 278 277 273 271 253 265 279 279 283 277 307
351 356 320 305 284 274 294 291 288 280 263 264 265 260 302 263 258 269 268 270 278 275 282 279 277 287 294 286 287 280 280 276 273 271 270 272 273 268 276 280 270 281 288 275
358 350 339 370 300 340 306 293 278 293 285 275 281 274 272 276 277 269 286 270 276 288 278 271 280 272 270 274 271 270 260 268 268 268 269 283 296 292 283 272 284 290 275 288
360 355 345 345 363 357 348 357 355 330 306 286 332 304 290 282 278 285 278 279 274 266 266 267 225 262 277 280 279 280 303 313 304 305 302 303 308 287 281 285 300 262 272 278
362 364 351 346 353 338 326 336 340 340 335 194 340 325 163 206 276 325 304 289 297 285 291 282 284 288 286 292 333 331 317 317 309 309 307 303 287 291 285 279 266 253 284 286
368 357 359 341 344 353 355 351 344 340 343 346 346 109 330 347 149 318 321 369 355 351 331 387 376 347 345 345 335 324 317 317 314 305 293 302 288 288 268 265 281 281 284 271
375 365 359 343 340 331 325 322 332 348 361 354 356 358 351 350 357 327 153 285 371 343 335 357 350 344 347 353 341 322 315 304 298 299 302 295 273 265 262 295 278 283 265 260
374 368 357 346 342 335 335 335 339 344 352 354 360 343 340 361 355 338 261 142 343 324 314 301 345 330 333 319 314 307 301 300 297 295 291 257 288 307 282 283 272 260 253 253
354 350 344 339 335 335 330 331 334 339 350 336 322 360 355 342 323 322 346 280 328 316 322 311 312 304 301 301 304 301 291 293 285 264 300 287 277 285 278 267 255 246 247 246
336 335 335 340 351 337 327 319 320 319 310 363 332 319 310 319 330 337 180 321 306 296 299 302 308 306 301 294 291 288 289 274 259 289 271 273 281 269 260 255 247 247 244 246
324 320 319 315 311 311 311 313 319 360 341 313 308 314 318 336 333 328 333 309 299 296 303 299 298 294 289 287 286 281 264 274 276 265 282 267 257 258 258 256 246 245 245 241
307 306 306 305 307 339 348 348 331 325 314 310 310 307 319 314 313 313 311 306 299 297 292 286 291 276 281 278 264 288 271 271 266 274 261 254 252 251 247 244 245 240 248 249
297 302 310 355 328 335 335 329 309 322 304 297 310 303 291 303 304 298 296 297 289 291 288 283 281 279 263 265 271 274 271 259 263 258 257 256 253 254 247 244 243 248 247 246
296 298 328 319 323 322 316 317 320 318 304 297 316 305 300 296 289 294 295 286 277 274 266 269 256 272 263 264 270 265 267 260 265 256 248 250 246 245 246 246 250 247 245 260
296 306 319 328 336 349 353 364 345 315 314 311 295 289 299 288 286 283 277 275 269 266 270 274 273 266 258 257 272 262 261 257 256 253 252 250 248 245 245 245 250 248 256 256
323 328 325 328 326 316 313 308 302 299 297 285 287 288 277 275 270 271 269 266 270 270 284 273 286 256 276 268 266 262 257 253 259 246 247 248 250 252 249 250 249 258 255 258
331 325 327 306 300 306 297 295 293 281 280 277 274 270 269 269 268 266 293 286 281 278 274 273 271 279 270 263 262 260 260 257 257 256 253 256 253 249 251 256 260 255 259 266
326 307 298 300 295 288 287 278 275 274 269 268 268 267 265 265 277 270 262 266 276 271 267 266 270 270 272 270 265 262 260 254 254 254 254 251 254 257 263 258 256 259 261 260
301 294 296 289 277 276 270 267 266 265 263 264 265 273 273 268 261 265 260 270 272 269 266 264 258 256 257 257 257 257 258 259 258 258 258 262 265 260 260 263 263 261 260 263
294 291 285 275 268 267 263 263 261 262 261 266 272 265 263 260 261 263 263 261 262 260 256 257 259 258 259 260 261 261 262 264 266 268 267 265 265 266 266 267 265 267 269 270
280 275 269 264 264 261 262 267 269 280 288 279 268 261 264 257 257 265 264 261 261 261 258 257 256 257 262 266 269 272 278 284 288 291 291 289 289 287 286 285 279 275 266 263
270 267 265 265 262 259 262 257 258 255 260 269 267 260 259 259 259 259 258 254 256 258 260 261 263 266 275 282 280 270 273 283 334 480 477 468 455 439 420 328 286 281 272 271
268 269 264 259 255 257 256 253 263 274 271 264 263 259 256 255 255 255 257 259 258 260 262 277 279 270 268 262 296 375 363 351 377 436 433 424 418 409 402 393 382 362 320 297
267 266 261 255 254 255 250 269 267 264 261 258 256 257 255 258 258 254 252 257 265 283 274 264 262 268 279 364 360 360 349 341 354 374 397 387 379 378 375 369 361 350 344 329

GFSNW_2pvu_pres_120.txt.gz
Presure
292 262 251 240 231 234 226 215 225 220 217 222 226 233 226 217 209 201 216 217 211 195 202 211 201 216 189 210 204 211 207 209 214 226 229 229 226 234 247 251 258 259 276 267
316 300 278 256 243 236 236 224 228 226 220 218 224 222 212 208 218 224 218 221 220 221 218 220 224 218 217 217 219 219 218 218 226 234 239 252 259 253 267 269 281 278 289 292
348 348 324 300 289 255 240 239 247 236 232 231 231 232 232 229 225 225 229 228 223 227 225 224 225 220 225 230 225 230 234 240 247 258 266 287 270 271 288 282 275 274 276 276
365 362 352 325 301 291 285 257 255 252 263 261 244 236 237 245 251 253 251 238 234 231 237 238 238 237 239 243 254 263 267 267 271 278 278 279 290 293 273 273 269 267 258 266
356 360 375 365 349 323 302 297 291 274 258 253 253 255 259 260 239 261 252 251 249 254 264 256 256 254 260 267 270 260 261 255 272 284 287 286 283 272 269 254 256 257 248 264
367 360 377 377 356 347 336 323 315 290 284 264 262 259 251 249 255 260 261 262 259 258 259 259 257 270 264 260 263 271 273 282 257 282 265 277 266 261 266 273 302 293 288 283
365 371 366 369 353 349 349 340 337 349 321 284 287 283 266 258 266 263 272 269 266 261 266 269 270 271 270 271 266 263 271 271 272 268 269 264 268 281 297 312 302 298 288 285
363 381 395 376 363 334 344 337 339 331 340 333 340 306 320 285 272 262 269 278 272 271 270 269 272 284 273 276 276 142 278 280 204 274 274 303 293 322 308 308 303 300 288 281
360 373 378 382 383 343 351 359 348 345 332 346 343 323 309 336 341 336 292 284 148 290 280 295 279 273 288 278 269 267 276 289 301 321 333 345 330 312 310 308 300 287 290 289
374 374 360 364 368 362 338 330 342 345 327 327 339 339 338 334 337 339 333 332 250 323 316 314 311 318 312 308 301 327 322 319 324 334 341 332 312 302 303 301 289 291 276 260
387 391 392 376 365 353 353 343 337 334 328 337 337 326 317 325 333 314 325 324 206 333 337 337 338 351 329 369 352 336 330 334 341 326 336 308 292 298 300 294 285 267 266 281
381 383 384 378 359 346 347 339 334 335 332 326 330 341 340 332 339 345 358 352 355 360 167 148 334 324 303 318 338 324 333 333 324 330 311 296 295 291 290 274 261 259 275 281
367 370 371 358 354 346 332 325 324 328 325 325 318 318 354 348 350 348 339 348 333 332 176 182 330 308 298 312 330 344 341 320 317 302 287 290 286 277 259 300 284 281 276 263
354 357 353 345 344 339 326 320 319 319 317 322 333 332 338 341 351 344 325 319 342 354 316 302 307 305 302 311 315 303 301 304 294 287 283 274 280 293 267 274 279 271 257 251
337 336 335 333 328 324 322 322 315 319 325 316 306 344 324 319 316 316 320 352 327 306 266 302 304 316 315 303 296 295 293 285 283 275 261 282 269 256 280 266 258 249 251 247
343 335 327 321 323 318 325 321 309 307 300 326 311 312 312 324 325 330 306 312 308 297 301 309 308 303 297 290 284 284 283 278 259 286 277 260 276 272 257 254 252 252 247 241
302 301 301 301 300 302 299 292 295 294 317 304 306 308 310 310 313 314 325 318 295 299 291 295 293 287 282 280 281 279 263 262 275 270 258 271 266 255 253 249 246 250 246 241
297 301 304 317 304 322 330 326 323 310 314 301 294 298 305 301 301 303 313 310 300 301 296 282 279 277 273 274 268 261 269 271 266 262 265 264 255 252 253 250 249 247 245 242
301 329 333 331 320 317 315 323 306 305 309 303 306 306 309 300 301 297 296 291 281 284 281 273 278 260 273 264 261 259 264 264 267 255 259 258 255 245 251 250 248 244 246 245
311 333 328 320 320 312 306 320 298 298 294 312 303 303 299 287 287 283 281 275 274 269 263 262 261 264 269 263 255 253 257 264 261 261 255 259 252 247 247 250 247 252 251 251
327 323 334 334 338 361 329 332 308 305 299 288 293 292 276 274 271 269 268 267 265 266 269 270 263 261 256 254 258 261 264 266 264 260 256 251 255 254 252 250 256 250 250 250
319 313 315 313 312 311 311 304 292 282 281 277 272 272 268 264 264 266 276 271 268 275 270 265 265 270 271 275 275 269 260 258 256 254 256 257 256 254 255 253 252 256 254 261
303 309 304 300 296 291 281 277 272 272 270 269 267 264 264 265 267 258 253 262 271 274 271 269 262 261 260 260 260 261 261 261 261 260 260 261 262 262 262 261 259 259 260 255
300 288 284 281 277 275 272 272 269 268 266 264 259 264 265 251 253 264 260 261 265 264 262 262 260 259 259 260 260 260 261 263 264 266 266 267 268 267 269 267 265 265 263 263
280 278 272 273 269 266 265 260 263 261 265 265 263 264 256 256 259 262 265 260 256 259 260 261 259 256 258 261 265 268 273 278 283 285 288 284 289 286 283 281 280 279 277 275
271 270 270 265 264 261 261 275 286 274 265 262 260 251 260 254 252 260 260 258 255 254 257 260 260 261 274 281 275 272 273 276 283 341 372 424 464 460 453 440 437 372 342 284
274 268 263 258 264 266 260 262 264 265 268 269 267 259 256 259 258 256 255 255 257 257 258 272 279 268 267 267 274 285 375 373 354 350 368 410 409 406 405 403 399 394 389 357

GFSNW_2pvu_pres_123.txt.gz
Presure
405 350 313 303 277 253 247 242 233 228 220 225 224 227 210 211 214 221 89 220 217 205 205 203 207 84 201 198 210 215 211 202 215 216 192 208 214 197 210 215 219 230 231 250
400 382 352 339 310 301 275 254 248 244 225 219 226 221 214 97 210 195 224 217 219 218 215 212 219 218 214 224 218 219 209 217 215 217 220 153 221 220 218 225 238 256 280 289
392 394 384 343 335 336 312 301 267 253 252 243 242 236 231 222 210 217 212 211 210 210 208 209 212 210 210 211 212 209 213 216 221 223 225 233 235 238 235 249 272 277 271 278
393 406 367 351 337 329 334 344 315 273 257 252 254 247 241 239 235 230 222 221 215 210 214 218 214 212 214 222 224 225 231 241 241 244 131 246 253 258 268 280 268 271 275 270
366 370 377 370 332 332 334 341 350 322 298 280 263 254 262 253 241 241 233 236 227 223 217 210 213 219 223 227 226 230 230 255 253 250 250 263 267 266 259 267 283 282 262 272
414 374 371 339 341 337 333 335 342 347 331 304 292 274 266 251 249 254 256 239 239 240 238 232 232 237 244 257 254 249 250 243 246 269 260 265 278 271 260 269 264 262 260 266
345 339 331 346 351 333 343 350 354 339 336 333 332 300 290 283 268 262 255 253 254 257 256 255 257 259 262 264 270 267 255 264 262 263 261 255 270 278 273 273 266 269 275 274
349 354 343 324 334 339 343 350 354 348 339 336 326 323 313 283 278 275 274 268 268 268 261 265 269 268 271 273 271 262 257 254 267 270 263 273 179 186 167 272 280 274 284 297
320 346 325 341 341 339 345 352 359 353 347 356 344 333 326 313 299 282 279 273 272 264 279 279 279 266 247 264 270 275 268 263 277 269 284 149 287 283 287 282 300 314 326 332
330 355 335 338 336 339 349 357 380 374 349 361 337 343 335 334 329 325 329 310 290 290 289 278 279 273 288 278 286 281 291 261 276 283 295 311 305 308 316 315 348 342 325 309
335 341 354 355 358 369 379 387 403 370 362 356 350 343 322 340 340 337 331 334 338 334 333 327 313 324 322 326 337 306 324 317 308 305 305 312 318 324 330 330 324 314 300 295
354 355 350 351 353 356 350 370 376 363 344 343 356 333 330 332 334 334 337 321 331 334 315 332 336 337 336 330 328 327 363 324 320 330 326 330 336 357 341 320 301 299 294 288
354 361 373 384 385 368 366 355 361 356 340 334 345 320 338 340 326 322 324 337 333 323 322 331 336 376 353 334 210 330 326 321 357 332 327 341 354 327 310 297 291 286 285 278
380 387 382 386 385 381 355 347 341 334 329 330 322 321 317 322 329 325 319 326 335 341 349 346 353 264 323 150 224 314 321 320 338 352 355 346 314 293 290 288 281 282 289 285
362 370 369 372 362 346 337 332 329 323 318 316 319 319 320 321 323 318 338 329 335 322 335 337 332 319 321 312 310 311 312 322 318 314 301 295 293 284 280 287 273 270 278 284
352 348 350 342 339 335 327 316 309 312 313 309 307 313 312 322 320 328 329 326 315 319 363 256 312 306 307 314 314 321 312 298 294 292 283 288 278 273 281 277 265 282 271 263
338 335 329 326 320 312 308 306 304 310 308 308 312 319 316 306 323 332 316 316 331 319 309 306 311 307 308 322 305 299 291 292 282 284 280 272 270 278 266 277 274 259 254 250
315 316 315 312 309 308 305 303 304 301 302 305 310 304 307 315 321 331 314 312 325 303 308 310 321 314 295 293 291 285 280 283 281 271 264 279 267 258 279 269 256 254 245 248
314 316 314 313 307 305 294 294 294 287 304 306 308 302 299 307 310 316 309 309 330 308 289 292 289 285 283 285 279 276 273 267 261 264 276 266 258 272 266 257 253 246 248 246
300 297 297 296 294 292 294 286 288 300 299 301 303 313 305 305 305 307 315 329 315 296 286 280 278 278 273 272 274 263 257 270 267 267 263 264 259 264 258 253 249 248 248 251
330 332 331 327 312 316 315 317 312 308 301 304 306 314 299 295 293 293 287 284 283 275 272 274 277 265 255 268 263 261 261 258 259 260 267 265 259 257 258 257 250 244 242 249
326 334 331 317 311 312 313 310 320 314 313 301 296 288 283 279 278 276 272 267 265 258 259 264 263 264 265 266 260 256 255 259 261 265 265 262 260 260 259 254 256 257 252 251
326 320 318 314 311 328 308 297 294 293 293 282 276 275 269 269 266 265 262 260 262 266 263 266 264 260 266 268 270 273 272 269 266 263 261 260 261 258 257 256 257 255 254 253
323 325 335 334 329 313 295 285 286 280 278 276 269 267 264 267 280 270 265 264 267 264 263 266 264 262 259 260 260 259 258 259 260 261 262 263 263 264 264 263 263 262 261 262
303 301 299 296 290 280 279 279 276 271 265 262 264 264 268 263 258 257 251 265 265 263 262 261 260 260 259 258 259 260 261 262 263 265 267 270 272 275 275 274 272 271 270 269
294 290 283 278 275 271 269 268 262 261 263 264 262 259 257 251 252 260 258 258 256 255 256 257 258 256 255 257 261 268 275 278 275 275 278 283 285 288 284 279 282 283 282 279
280 274 272 269 268 266 265 262 264 267 266 261 263 257 254 258 261 261 260 258 256 255 253 255 260 259 274 277 264 265 270 272 368 377 365 352 351 418 426 427 432 436 425 429